[[{"header":{"parameterUnit":"m.s-1","parameterCategory":1,"la1":31.0,"la2":29.5877,"lo1":-88.7671,"lo2":-86.6584,"dy":0.0162,"dx":0.0185,"nx":115,"ny":88,"refTime":"2026-05-20T12:00:00:Z","depth":0,"parameterNumber":2,"parameterNumberName":"U-component_of_WINDS"},"data":[0.0,0.0,0.0,0.0,0.0,0.0,0.0,0.0,0.0,0.0,0.0,0.0,0.0,0.0,0.0,0.0,0.0,0.0,0.0,0.0,0.0,0.0,0.0,0.0,0.0,0.0,0.0,0.0,0.0,0.0,0.0,0.0,0.0,0.0,0.0,0.0,0.0,0.0,0.0,0.0,0.0,0.0,0.0,0.0,0.0,0.0,0.0,0.0,0.0,0.0,0.0,0.0,0.0,0.0,0.0,0.0,0.0,0.0,0.0,0.0,0.0,0.0,0.0,0.0,0.0,0.0,0.0,0.0,0.0,0.0,0.0,0.0,0.0,0.0,0.0,0.0,0.0,0.0,0.0,0.0,0.0,0.0,0.0,0.0,0.0,0.0,0.0,0.0,0.0,0.0,0.0,0.0,0.0,0.0,0.0,0.0,0.0,0.0,0.0,0.0,0.0,0.0,0.0,0.0,0.0,0.0,0.0,0.0,0.0,0.0,0.0,0.0,0.0,0.0,0.0,0.0,0.0,0.0,0.0,0.0,0.0,0.0,0.0,0.0,0.0,0.0,0.0,0.0,0.0,0.0,0.0,0.0,0.0,0.0,0.0,0.0,0.0,0.0,0.0,0.0,0.0,0.0,0.0,0.0,0.0,0.0,0.0,0.0,0.0,0.0,0.0,0.0,0.0,0.0,0.0,0.0,0.0,0.0,0.0,0.0,0.0,0.0,0.0,0.0,0.0,0.0,0.0,0.0,0.0,0.0,0.0,0.0,0.0,0.0,0.0,0.0,0.0,0.0,0.0,0.0,0.0,0.0,0.0,0.0,0.0,0.0,0.0,0.0,0.0,0.0,0.0,0.0,0.0,0.0,0.0,0.0,0.0,0.0,0.0,0.0,0.0,0.0,0.0,0.0,0.0,0.0,0.0,0.0,0.0,0.0,0.0,0.0,0.0,0.0,0.0,0.0,0.0,0.0,0.0,0.0,0.0,0.0,0.0,0.0,0.0,0.0,0.0,0.0,0.0,0.0,0.0,0.0,0.0,0.0,0.0,0.0,0.0,0.0,0.0,0.0,0.0,0.0,0.0,0.0,0.0,0.0,0.0,0.0,0.0,0.0,0.0,0.0,0.0,0.0,0.0,0.0,0.0,0.0,0.0,0.0,0.0,0.0,0.0,0.0,0.0,0.0,0.0,0.0,0.0,0.0,0.0,0.0,0.0,0.0,0.0,0.0,0.0,0.0,0.0,0.0,0.0,0.0,0.0,0.0,0.0,0.0,0.0,0.0,0.0,0.0,0.0,0.0,0.0,0.0,0.0,0.0,0.0,0.0,0.0,0.0,0.0,0.0,0.0,0.0,0.0,0.0,0.0,0.0,0.0,0.0,0.0,0.0,0.0,0.0,0.0,0.0,0.0,0.0,0.0,0.0,0.0,0.0,0.0,0.0,0.0,0.0,0.0,0.0,0.0,0.0,0.0,0.0,0.0,0.0,0.0,0.0,0.0,0.0,0.0,0.0,0.0,0.0,0.0,0.0,0.0,0.0,0.0,0.0,0.0,0.0,0.0,0.0,0.0,0.0,0.0,0.0,0.0,0.0,0.0,0.0,0.0,0.0,0.0,0.0,0.0,0.0,0.0,0.0,0.0,0.0,0.0,0.0,0.0,0.0,0.0,0.0,0.0,0.0,0.0,0.0,0.0,0.0,0.0,0.0,0.0,0.0,0.0,0.0,0.0,0.0,0.0,0.0,0.0,0.0,0.0,0.0,0.0,0.0,0.0,0.0,0.0,0.0,0.0,0.0,0.0,0.0,0.0,0.0,0.0,0.0,0.0,0.0,0.0,0.0,0.0,0.0,0.0,0.0,0.0,0.0,0.0,0.0,0.0,0.0,0.0,0.0,0.0,0.0,0.0,0.0,0.0,0.0,0.0,0.0,0.0,0.0,0.0,0.0,0.0,0.0,0.0,0.0,0.0,0.0,0.0,0.0,0.0,0.0,0.0,0.0,0.0,0.0,0.0,0.0,0.0,0.0,0.0,0.0,0.0,0.0,0.0,0.0,0.0,0.0,0.0,0.0,0.0,0.0,0.0,0.0,0.0,0.0,0.0,0.0,0.0,0.0,0.0,0.0,0.0,0.0,0.0,0.0,0.0,0.0,0.0,0.0,0.0,0.0,0.0,0.0,0.0,0.0,0.0,0.0,0.0,0.0,0.0,0.0,0.0,0.0,0.0,0.0,0.0,0.0,0.0,0.0,0.0,0.0,0.0,0.0,0.0,0.0,0.0,0.0,0.0,0.0,0.0,0.0,0.0,0.0,0.0,0.0,0.0,0.0,0.0,0.0,0.0,0.0,0.0,0.0,0.0,0.0,0.0,0.0,0.0,0.0,0.0,0.0,0.0,0.0,0.0,0.0,0.0,0.0,0.0,0.0,0.0,0.0,0.0,0.0,0.0,0.0,0.0,0.0,0.0,0.0,0.0,0.0,0.0,0.0,0.0,0.0,0.0,0.0,0.0,0.0,0.0,0.0,0.0,0.0,0.0,0.0,0.0,0.0,0.0,0.0,0.0,0.0,0.0,0.0,0.0,0.0,0.0,0.0,0.0,0.0,0.0,0.0,0.0,0.0,0.0,0.0,0.0,0.0,0.0,0.0,0.0,0.0,0.0,0.0,0.0,0.0,0.0,0.0,0.0,0.0,0.0,0.0,0.0,0.0,0.0,0.0,0.0,0.0,0.0,0.0,0.0,0.0,0.0,0.0,0.0,0.0,0.0,0.0,0.0,0.0,0.0,0.0,0.0,0.0,0.0,0.0,0.0,0.0,0.0,0.0,0.0,0.0,0.0,0.0,0.0,0.0,0.0,0.0,0.0,0.0,0.0,0.0,0.0,0.0,0.0,0.0,0.0,0.0,0.0,0.0,0.0,0.0,0.0,0.0,0.0,0.0,0.0,0.0,0.0,0.0,0.0,0.0,0.0,0.0,0.0,0.0,0.0,0.0,0.0,0.0,0.0,0.0,0.0,0.0,0.0,0.0,0.0,0.0,0.0,0.0,0.0,0.0,0.0,0.0,0.0,0.0,0.0,0.0,0.0,0.0,0.0,0.0,0.0,0.0,0.0,0.0,0.0,0.0,0.0,0.0,0.0,0.0,0.0,0.0,0.0,0.0,0.0,0.0,0.0,0.0,0.0,0.0,0.0,0.0,0.0,0.0,0.0,0.0,0.0,0.0,0.0,0.0,0.0,0.0,0.0,0.0,0.0,0.0,0.0,0.0,0.0,0.0,0.0,0.0,0.0,0.0,0.0,0.0,0.0,0.0,0.0,0.0,0.0,0.0,0.0,0.0,0.0,0.0,0.0,0.0,0.0,0.0,0.0,0.0,0.0,0.0,0.0,0.0,0.0,0.0,0.0,0.0,0.0,0.0,0.0,0.0,0.0,0.0,0.0,0.0,0.0,0.0,0.0,0.0,0.0,0.0,0.0,0.0,0.0,0.0,0.0,0.0,0.0,0.0,0.0,0.0,0.0,0.0,0.0,0.0,0.0,0.0,0.0,0.0,0.0,0.0,0.0,0.0,0.0,0.0,0.0,0.0,0.0,0.0,0.0,0.0,0.0,0.0,0.0,0.0,0.0,0.0,0.0,0.0,0.0,0.0,0.0,0.0,0.0,0.0,0.0,0.0,0.0,0.0,0.0,0.0,0.0,0.0,0.0,0.0,0.0,0.0,0.0,0.0,0.0,0.0,0.0,0.0,0.0,0.0,0.0,0.0,0.0,0.0,0.0,0.0,0.0,0.0,0.0,0.0,0.0,0.0,0.0,0.0,0.0,0.0,0.0,0.0,0.0,0.0,0.0,0.0,0.0,0.0,0.0,0.0,0.0,0.0,0.0,0.0,0.0,0.0,0.0,0.0,0.0,0.0,0.0,0.0,0.0,0.0,0.0,0.0,0.0,0.0,0.0,0.0,0.0,0.0,0.0,0.0,0.0,0.0,0.0,0.0,0.0,0.0,0.0,0.0,0.0,0.0,0.0,0.0,0.0,0.0,0.0,0.0,0.0,0.0,0.0,0.0,0.0,0.0,0.0,0.0,0.0,0.0,0.0,0.0,0.0,0.0,0.0,0.0,0.0,0.0,0.0,0.0,0.0,0.0,0.0,0.0,0.0,0.0,0.0,0.0,0.0,0.0,0.0,0.0,0.0,0.0,0.0,0.0,0.0,0.0,0.0,0.0,0.0,0.0,0.0,0.0,0.0,0.0,0.0,0.0,0.0,0.0,0.0,0.0,0.0,0.0,-2.0828,0.0,0.0,0.0,0.0,0.0,0.0,0.0,0.0,0.0,0.0,0.0,0.0,0.0,0.0,0.0,0.0,0.0,0.0,0.0,0.0,0.0,0.0,0.0,0.0,0.0,0.0,0.0,0.0,0.0,0.0,0.0,0.0,0.0,0.0,0.0,0.0,0.0,0.0,0.0,0.0,0.0,0.0,0.0,0.0,0.0,0.0,0.0,0.0,0.0,0.0,0.0,0.0,0.0,0.0,0.0,0.0,0.0,0.0,0.0,0.0,0.0,0.0,0.0,0.0,0.0,0.0,0.0,0.0,0.0,0.0,0.0,0.0,0.0,0.0,0.0,0.0,0.0,0.0,0.0,0.0,0.0,0.0,0.0,0.0,0.0,0.0,0.0,0.0,0.0,0.0,0.0,0.0,0.0,0.0,0.0,0.0,0.0,0.0,0.0,0.0,0.0,0.0,0.0,0.0,0.0,0.0,0.0,0.0,0.0,0.0,-2.2287,-2.2678,-2.1917,-2.1306,-2.0861,0.0,0.0,0.0,0.0,0.0,0.0,0.0,0.0,0.0,0.0,0.0,0.0,0.0,0.0,0.0,0.0,0.0,0.0,0.0,0.0,0.0,0.0,0.0,0.0,0.0,0.0,0.0,0.0,0.0,0.0,0.0,0.0,0.0,0.0,0.0,0.0,0.0,0.0,0.0,0.0,0.0,0.0,0.0,0.0,0.0,0.0,0.0,0.0,0.0,0.0,0.0,0.0,0.0,0.0,0.0,0.0,0.0,0.0,0.0,0.0,0.0,0.0,0.0,0.0,0.0,0.0,0.0,0.0,0.0,0.0,0.0,0.0,0.0,0.0,0.0,0.0,0.0,0.0,0.0,0.0,0.0,0.0,0.0,0.0,0.0,0.0,0.0,0.0,0.0,0.0,0.0,0.0,0.0,0.0,0.0,0.0,0.0,0.0,0.0,0.0,0.0,0.0,0.0,0.0,0.0,0.0,0.0,0.0,0.0,0.0,0.0,0.0,-2.2776,-2.18,-2.0786,0.0,0.0,0.0,0.0,0.0,0.0,0.0,0.0,0.0,0.0,0.0,0.0,0.0,0.0,0.0,0.0,0.0,0.0,0.0,0.0,0.0,0.0,0.0,0.0,0.0,0.0,0.0,0.0,0.0,0.0,0.0,0.0,0.0,0.0,0.0,0.0,0.0,0.0,0.0,0.0,0.0,0.0,0.0,0.0,0.0,0.0,0.0,0.0,0.0,0.0,0.0,0.0,0.0,0.0,0.0,0.0,0.0,0.0,0.0,0.0,0.0,0.0,0.0,0.0,0.0,0.0,0.0,0.0,0.0,0.0,0.0,0.0,0.0,0.0,0.0,0.0,0.0,0.0,0.0,0.0,0.0,0.0,0.0,0.0,0.0,0.0,0.0,0.0,0.0,0.0,0.0,0.0,0.0,0.0,0.0,0.0,0.0,0.0,0.0,0.0,0.0,0.0,0.0,0.0,0.0,0.0,0.0,0.0,0.0,0.0,-2.3935,-2.5401,-2.3916,0.0,-2.0848,0.0,0.0,0.0,0.0,0.0,0.0,0.0,0.0,0.0,0.0,0.0,0.0,0.0,0.0,0.0,0.0,0.0,0.0,0.0,0.0,0.0,0.0,0.0,0.0,0.0,0.0,0.0,0.0,0.0,0.0,0.0,0.0,0.0,0.0,0.0,0.0,0.0,0.0,0.0,0.0,0.0,0.0,0.0,0.0,0.0,0.0,0.0,0.0,0.0,0.0,0.0,0.0,0.0,0.0,0.0,0.0,0.0,0.0,0.0,0.0,0.0,0.0,0.0,0.0,0.0,0.0,0.0,0.0,0.0,0.0,0.0,0.0,0.0,0.0,0.0,0.0,0.0,0.0,0.0,0.0,0.0,0.0,0.0,0.0,0.0,0.0,0.0,0.0,0.0,0.0,0.0,0.0,0.0,0.0,0.0,0.0,0.0,0.0,0.0,0.0,0.0,0.0,0.0,0.0,0.0,0.0,0.0,0.0,0.0,0.0,-2.5234,-2.6368,-2.4825,-2.2967,0.0,0.0,0.0,0.0,0.0,0.0,0.0,0.0,0.0,0.0,0.0,0.0,0.0,0.0,0.0,0.0,0.0,0.0,0.0,0.0,0.0,0.0,0.0,0.0,0.0,0.0,0.0,0.0,0.0,0.0,0.0,0.0,0.0,0.0,0.0,0.0,0.0,0.0,0.0,0.0,0.0,0.0,0.0,0.0,0.0,0.0,0.0,0.0,0.0,0.0,0.0,0.0,0.0,0.0,0.0,0.0,0.0,0.0,0.0,0.0,0.0,0.0,0.0,0.0,0.0,0.0,0.0,0.0,0.0,0.0,0.0,0.0,0.0,0.0,0.0,0.0,0.0,0.0,0.0,0.0,0.0,0.0,0.0,0.0,0.0,0.0,0.0,0.0,0.0,0.0,0.0,0.0,0.0,0.0,0.0,0.0,0.0,0.0,0.0,0.0,0.0,0.0,0.0,0.0,0.0,0.0,0.0,0.0,0.0,0.0,-2.4212,0.0,-2.6154,-2.5113,-2.332,-2.0882,0.0,0.0,0.0,0.0,0.0,0.0,0.0,0.0,0.0,0.0,0.0,0.0,0.0,0.0,0.0,0.0,0.0,0.0,0.0,0.0,0.0,0.0,0.0,0.0,0.0,0.0,0.0,0.0,0.0,0.0,0.0,0.0,0.0,0.0,0.0,0.0,0.0,0.0,0.0,0.0,0.0,0.0,0.0,0.0,0.0,0.0,0.0,0.0,0.0,0.0,0.0,0.0,0.0,0.0,0.0,0.0,0.0,0.0,0.0,0.0,0.0,0.0,0.0,0.0,0.0,0.0,0.0,0.0,0.0,0.0,0.0,0.0,0.0,0.0,0.0,0.0,0.0,0.0,0.0,0.0,0.0,0.0,0.0,0.0,0.0,0.0,0.0,0.0,0.0,0.0,0.0,0.0,0.0,0.0,0.0,0.0,0.0,0.0,0.0,0.0,0.0,0.0,0.0,0.0,0.0,0.0,0.0,0.0,0.0,-2.3692,-2.4574,-2.4685,-2.4537,-2.3339,0.0,0.0,0.0,0.0,0.0,0.0,0.0,0.0,0.0,0.0,0.0,0.0,0.0,0.0,0.0,0.0,0.0,0.0,0.0,0.0,0.0,0.0,0.0,0.0,0.0,0.0,0.0,0.0,0.0,0.0,0.0,0.0,0.0,0.0,0.0,0.0,0.0,0.0,0.0,0.0,0.0,0.0,0.0,0.0,0.0,0.0,0.0,0.0,0.0,0.0,0.0,0.0,0.0,0.0,0.0,0.0,0.0,0.0,0.0,0.0,0.0,0.0,0.0,0.0,0.0,0.0,0.0,0.0,0.0,0.0,0.0,0.0,0.0,0.0,0.0,0.0,0.0,0.0,0.0,0.0,0.0,0.0,0.0,0.0,0.0,0.0,0.0,0.0,0.0,0.0,0.0,0.0,0.0,0.0,0.0,0.0,0.0,0.0,0.0,0.0,0.0,0.0,0.0,0.0,0.0,0.0,0.0,0.0,0.0,-2.2089,-2.4129,-2.528,-2.5224,-2.3729,-2.1993,0.0,0.0,0.0,0.0,0.0,0.0,0.0,0.0,0.0,0.0,0.0,0.0,0.0,0.0,0.0,0.0,0.0,0.0,0.0,0.0,0.0,0.0,0.0,0.0,0.0,0.0,0.0,0.0,0.0,0.0,0.0,0.0,0.0,0.0,0.0,0.0,0.0,0.0,0.0,0.0,0.0,0.0,0.0,0.0,0.0,0.0,0.0,0.0,0.0,0.0,0.0,0.0,0.0,0.0,0.0,0.0,0.0,0.0,0.0,0.0,0.0,0.0,0.0,0.0,0.0,0.0,0.0,0.0,0.0,0.0,0.0,0.0,0.0,0.0,0.0,0.0,0.0,0.0,0.0,0.0,0.0,0.0,0.0,0.0,0.0,0.0,0.0,0.0,0.0,0.0,0.0,0.0,0.0,0.0,0.0,0.0,0.0,0.0,0.0,0.0,0.0,0.0,0.0,0.0,0.0,0.0,0.0,0.0,0.0,-2.3229,0.0,-2.6247,0.0,-2.3832,-2.18,0.0,0.0,0.0,0.0,0.0,0.0,0.0,0.0,0.0,0.0,0.0,0.0,0.0,0.0,0.0,0.0,0.0,0.0,0.0,0.0,0.0,0.0,0.0,0.0,0.0,0.0,0.0,0.0,0.0,0.0,0.0,0.0,0.0,0.0,0.0,0.0,0.0,0.0,0.0,0.0,0.0,0.0,0.0,0.0,0.0,0.0,0.0,0.0,0.0,0.0,0.0,0.0,0.0,0.0,0.0,0.0,0.0,0.0,0.0,0.0,0.0,0.0,0.0,0.0,0.0,0.0,0.0,0.0,0.0,0.0,0.0,0.0,0.0,0.0,0.0,0.0,0.0,0.0,0.0,0.0,0.0,0.0,0.0,0.0,0.0,0.0,0.0,0.0,0.0,0.0,0.0,0.0,0.0,0.0,0.0,0.0,0.0,0.0,0.0,0.0,0.0,0.0,0.0,0.0,0.0,0.0,0.0,0.0,-2.4065,-2.5699,-2.7278,-2.7352,-2.5773,-2.4834,-2.2893,0.0,0.0,0.0,0.0,0.0,0.0,0.0,0.0,0.0,0.0,0.0,0.0,0.0,0.0,0.0,0.0,0.0,0.0,0.0,0.0,0.0,0.0,0.0,0.0,0.0,0.0,0.0,0.0,0.0,0.0,0.0,0.0,0.0,0.0,0.0,0.0,0.0,0.0,0.0,0.0,0.0,0.0,0.0,0.0,0.0,0.0,0.0,0.0,0.0,0.0,0.0,0.0,0.0,0.0,0.0,0.0,0.0,0.0,0.0,0.0,0.0,0.0,0.0,0.0,0.0,0.0,0.0,0.0,0.0,0.0,0.0,0.0,0.0,0.0,0.0,0.0,0.0,0.0,0.0,0.0,0.0,0.0,0.0,0.0,0.0,0.0,0.0,0.0,0.0,0.0,0.0,0.0,0.0,0.0,0.0,0.0,0.0,0.0,0.0,0.0,0.0,0.0,0.0,0.0,0.0,0.0,0.0,0.0,0.0,-2.8226,-2.8746,-2.8467,-2.7334,-2.4371,-2.2049,0.0,0.0,0.0,0.0,0.0,0.0,0.0,0.0,0.0,0.0,0.0,0.0,0.0,0.0,0.0,0.0,0.0,0.0,0.0,0.0,0.0,0.0,0.0,0.0,0.0,0.0,0.0,0.0,0.0,0.0,0.0,0.0,0.0,0.0,0.0,0.0,0.0,0.0,0.0,0.0,0.0,0.0,0.0,0.0,0.0,0.0,0.0,0.0,0.0,0.0,0.0,0.0,0.0,0.0,0.0,0.0,0.0,0.0,0.0,0.0,0.0,0.0,0.0,0.0,0.0,0.0,0.0,0.0,0.0,0.0,0.0,0.0,0.0,0.0,0.0,0.0,0.0,0.0,0.0,0.0,0.0,0.0,0.0,0.0,0.0,0.0,0.0,0.0,0.0,0.0,0.0,0.0,0.0,0.0,0.0,0.0,0.0,0.0,0.0,0.0,0.0,0.0,0.0,0.0,0.0,0.0,0.0,0.0,0.0,-3.174,-3.1959,-3.1332,-2.9919,-2.6515,-2.3734,-2.1736,0.0,0.0,0.0,0.0,0.0,0.0,0.0,0.0,0.0,0.0,0.0,0.0,0.0,0.0,0.0,0.0,0.0,0.0,0.0,0.0,0.0,0.0,0.0,0.0,0.0,0.0,0.0,0.0,0.0,0.0,0.0,0.0,0.0,0.0,0.0,0.0,0.0,0.0,0.0,0.0,0.0,0.0,0.0,0.0,0.0,0.0,0.0,0.0,0.0,0.0,0.0,0.0,0.0,0.0,0.0,0.0,0.0,0.0,0.0,0.0,0.0,0.0,0.0,0.0,0.0,0.0,0.0,0.0,0.0,0.0,0.0,0.0,0.0,0.0,0.0,0.0,0.0,0.0,0.0,0.0,0.0,0.0,0.0,0.0,0.0,0.0,0.0,0.0,0.0,0.0,0.0,0.0,0.0,0.0,0.0,0.0,0.0,0.0,0.0,0.0,0.0,0.0,0.0,0.0,0.0,0.0,0.0,0.0,-3.6112,-3.66,-3.5643,-3.3167,-3.0634,-2.7448,0.0,0.0,0.0,0.0,0.0,0.0,0.0,0.0,0.0,0.0,0.0,0.0,0.0,0.0,0.0,0.0,0.0,0.0,0.0,0.0,0.0,0.0,0.0,0.0,0.0,0.0,0.0,0.0,0.0,0.0,0.0,0.0,0.0,0.0,0.0,0.0,0.0,0.0,0.0,0.0,0.0,0.0,0.0,0.0,0.0,0.0,0.0,0.0,0.0,0.0,0.0,0.0,0.0,0.0,0.0,0.0,0.0,0.0,0.0,0.0,0.0,0.0,0.0,0.0,0.0,0.0,0.0,0.0,0.0,0.0,0.0,0.0,0.0,0.0,0.0,0.0,0.0,0.0,0.0,0.0,0.0,0.0,0.0,0.0,0.0,0.0,0.0,0.0,0.0,0.0,0.0,0.0,0.0,0.0,0.0,0.0,0.0,0.0,0.0,0.0,0.0,0.0,0.0,0.0,0.0,0.0,0.0,0.0,0.0,-3.9096,-4.1106,-4.0154,-3.6175,-3.2669,-2.9244,0.0,0.0,0.0,0.0,0.0,0.0,0.0,0.0,0.0,0.0,0.0,0.0,0.0,0.0,0.0,0.0,0.0,0.0,0.0,0.0,0.0,0.0,0.0,0.0,0.0,0.0,0.0,0.0,0.0,0.0,0.0,0.0,0.0,0.0,0.0,0.0,0.0,0.0,0.0,0.0,0.0,0.0,0.0,0.0,0.0,0.0,0.0,0.0,0.0,0.0,0.0,0.0,0.0,0.0,0.0,0.0,0.0,0.0,0.0,0.0,0.0,0.0,0.0,0.0,0.0,0.0,0.0,0.0,0.0,0.0,0.0,0.0,0.0,0.0,0.0,0.0,0.0,0.0,0.0,0.0,0.0,0.0,0.0,0.0,0.0,0.0,0.0,0.0,0.0,0.0,0.0,0.0,0.0,0.0,0.0,0.0,0.0,0.0,0.0,0.0,0.0,0.0,0.0,0.0,0.0,0.0,0.0,0.0,-3.5344,-4.0165,-4.2593,-4.242,-3.9442,-3.5781,-3.2041,0.0,0.0,0.0,0.0,0.0,0.0,0.0,0.0,0.0,0.0,0.0,0.0,0.0,0.0,0.0,0.0,0.0,0.0,0.0,0.0,0.0,0.0,0.0,0.0,0.0,0.0,0.0,0.0,0.0,0.0,0.0,0.0,0.0,0.0,0.0,0.0,0.0,0.0,0.0,0.0,0.0,0.0,0.0,0.0,0.0,0.0,0.0,0.0,0.0,0.0,0.0,0.0,0.0,0.0,0.0,0.0,0.0,0.0,0.0,0.0,0.0,0.0,0.0,0.0,0.0,0.0,0.0,0.0,0.0,0.0,0.0,0.0,0.0,0.0,0.0,0.0,0.0,0.0,0.0,0.0,0.0,0.0,0.0,0.0,0.0,0.0,0.0,0.0,0.0,0.0,0.0,0.0,0.0,0.0,0.0,0.0,0.0,0.0,0.0,0.0,0.0,0.0,0.0,0.0,0.0,0.0,0.0,0.0,-3.6238,-4.0092,-4.2409,-4.3254,-4.2445,-3.9117,-3.5086,0.0,0.0,0.0,0.0,0.0,0.0,0.0,0.0,0.0,0.0,0.0,0.0,0.0,0.0,0.0,0.0,0.0,0.0,0.0,0.0,0.0,0.0,0.0,0.0,0.0,0.0,0.0,0.0,0.0,0.0,0.0,0.0,0.0,0.0,0.0,0.0,0.0,0.0,0.0,0.0,0.0,0.0,0.0,0.0,0.0,0.0,0.0,0.0,0.0,0.0,0.0,0.0,0.0,0.0,0.0,0.0,0.0,0.0,0.0,0.0,0.0,0.0,0.0,0.0,0.0,0.0,0.0,0.0,0.0,0.0,0.0,0.0,0.0,0.0,0.0,0.0,0.0,0.0,0.0,0.0,0.0,0.0,0.0,0.0,0.0,0.0,0.0,0.0,0.0,0.0,0.0,0.0,0.0,0.0,0.0,0.0,0.0,0.0,0.0,0.0,0.0,0.0,0.0,0.0,0.0,0.0,0.0,0.0,-3.7809,-4.168,-4.3483,-4.4018,-4.3272,-3.9678,-3.5851,0.0,0.0,0.0,0.0,0.0,0.0,0.0,0.0,0.0,0.0,0.0,0.0,0.0,0.0,0.0,0.0,0.0,0.0,0.0,0.0,0.0,0.0,0.0,0.0,0.0,0.0,0.0,0.0,0.0,0.0,0.0,0.0,0.0,0.0,0.0,0.0,0.0,0.0,0.0,0.0,0.0,0.0,0.0,0.0,0.0,0.0,0.0,0.0,-2.4238,0.0,0.0,0.0,0.0,0.0,0.0,0.0,0.0,0.0,0.0,0.0,0.0,0.0,0.0,0.0,0.0,0.0,0.0,0.0,0.0,0.0,0.0,0.0,0.0,0.0,0.0,0.0,0.0,0.0,0.0,0.0,0.0,0.0,0.0,0.0,0.0,0.0,0.0,0.0,0.0,0.0,0.0,0.0,0.0,0.0,0.0,0.0,0.0,0.0,0.0,0.0,0.0,0.0,0.0,0.0,0.0,0.0,0.0,0.0,-3.9075,-4.2218,-4.3822,-4.4246,-4.3447,-4.0477,-3.6877,0.0,0.0,0.0,0.0,0.0,0.0,0.0,0.0,0.0,0.0,0.0,0.0,0.0,0.0,0.0,0.0,0.0,0.0,0.0,0.0,0.0,0.0,0.0,0.0,0.0,0.0,0.0,0.0,0.0,0.0,0.0,0.0,0.0,0.0,0.0,0.0,0.0,0.0,0.0,0.0,0.0,0.0,0.0,0.0,0.0,0.0,0.0,0.0,0.0,0.0,0.0,0.0,0.0,0.0,0.0,0.0,0.0,0.0,0.0,0.0,0.0,0.0,0.0,0.0,0.0,0.0,0.0,0.0,0.0,0.0,0.0,0.0,0.0,0.0,0.0,0.0,0.0,0.0,0.0,0.0,0.0,0.0,0.0,0.0,0.0,0.0,0.0,0.0,0.0,0.0,0.0,0.0,0.0,0.0,0.0,0.0,0.0,0.0,0.0,0.0,0.0,0.0,0.0,0.0,0.0,0.0,0.0,-3.697,-4.0039,-4.2236,-4.3714,-4.4036,-4.3144,-4.0911,-3.7578,-3.3052,0.0,0.0,0.0,0.0,0.0,0.0,0.0,0.0,0.0,0.0,0.0,0.0,0.0,0.0,0.0,0.0,0.0,0.0,0.0,0.0,0.0,0.0,0.0,0.0,0.0,0.0,0.0,0.0,0.0,0.0,0.0,0.0,0.0,0.0,0.0,0.0,0.0,0.0,-1.9611,-2.1735,0.0,0.0,0.0,0.0,0.0,0.0,0.0,0.0,-2.2511,0.0,0.0,0.0,0.0,0.0,0.0,0.0,0.0,0.0,0.0,0.0,0.0,0.0,0.0,0.0,0.0,0.0,0.0,0.0,0.0,0.0,0.0,0.0,0.0,0.0,0.0,0.0,0.0,0.0,0.0,0.0,0.0,0.0,0.0,0.0,0.0,0.0,0.0,0.0,0.0,0.0,0.0,0.0,0.0,0.0,0.0,0.0,0.0,0.0,0.0,0.0,0.0,0.0,0.0,0.0,0.0,-3.3865,-3.7737,-4.0574,-4.2272,-4.3197,-4.2983,-4.1538,-3.9878,-3.6756,-3.2163,0.0,0.0,0.0,0.0,0.0,0.0,0.0,0.0,0.0,0.0,0.0,0.0,0.0,0.0,0.0,0.0,0.0,0.0,0.0,0.0,0.0,0.0,0.0,0.0,0.0,0.0,0.0,0.0,0.0,0.0,0.0,0.0,0.0,0.0,0.0,0.0,0.0,0.0,0.0,-2.3666,-2.4858,0.0,0.0,0.0,0.0,0.0,0.0,0.0,0.0,-2.2575,0.0,0.0,0.0,0.0,0.0,0.0,0.0,0.0,0.0,0.0,0.0,0.0,0.0,0.0,0.0,0.0,0.0,0.0,0.0,0.0,0.0,0.0,0.0,0.0,0.0,0.0,0.0,0.0,0.0,0.0,0.0,0.0,0.0,0.0,0.0,0.0,0.0,0.0,0.0,0.0,0.0,0.0,0.0,0.0,0.0,0.0,0.0,0.0,0.0,0.0,0.0,0.0,0.0,0.0,0.0,-3.4598,-3.8521,-4.1109,-4.229,-4.309,-4.2555,-4.0521,-3.8576,-3.5346,0.0,0.0,0.0,0.0,0.0,0.0,0.0,0.0,0.0,0.0,0.0,0.0,0.0,0.0,0.0,0.0,0.0,0.0,0.0,0.0,0.0,0.0,0.0,0.0,0.0,0.0,0.0,0.0,0.0,0.0,0.0,0.0,0.0,0.0,0.0,0.0,0.0,0.0,0.0,0.0,-2.4439,-2.5732,-2.5783,0.0,0.0,0.0,0.0,0.0,0.0,-2.2724,-2.2352,0.0,0.0,0.0,0.0,0.0,0.0,0.0,0.0,0.0,0.0,0.0,0.0,0.0,0.0,0.0,0.0,0.0,0.0,0.0,0.0,0.0,0.0,0.0,0.0,0.0,0.0,0.0,0.0,0.0,0.0,0.0,0.0,0.0,0.0,0.0,0.0,0.0,0.0,0.0,0.0,0.0,0.0,0.0,0.0,0.0,0.0,0.0,0.0,0.0,0.0,0.0,0.0,0.0,0.0,0.0,-3.5099,-3.8894,-4.1283,-4.2249,-4.2909,-4.2017,-3.9483,-3.7433,-3.4083,0.0,0.0,0.0,0.0,0.0,0.0,0.0,0.0,0.0,0.0,0.0,0.0,0.0,0.0,0.0,0.0,0.0,0.0,0.0,0.0,0.0,0.0,0.0,0.0,0.0,0.0,0.0,0.0,0.0,0.0,0.0,0.0,0.0,0.0,0.0,0.0,0.0,0.0,0.0,0.0,0.0,-2.6457,-2.6439,-2.5878,0.0,0.0,0.0,0.0,-2.2554,-2.297,0.0,0.0,0.0,0.0,0.0,0.0,0.0,0.0,0.0,0.0,0.0,0.0,0.0,0.0,0.0,0.0,0.0,0.0,0.0,0.0,0.0,0.0,0.0,0.0,0.0,0.0,0.0,0.0,0.0,0.0,0.0,0.0,0.0,0.0,0.0,0.0,0.0,0.0,0.0,0.0,0.0,0.0,0.0,0.0,0.0,0.0,0.0,0.0,0.0,0.0,0.0,0.0,0.0,0.0,0.0,0.0,-3.4925,-3.8151,-4.0532,-4.2053,-4.2335,-4.0965,-3.7894,-3.6771,-3.3682,0.0,0.0,0.0,0.0,0.0,0.0,0.0,0.0,0.0,0.0,0.0,0.0,0.0,0.0,0.0,0.0,0.0,0.0,0.0,0.0,0.0,0.0,0.0,0.0,0.0,0.0,0.0,0.0,0.0,0.0,0.0,0.0,0.0,0.0,0.0,0.0,0.0,0.0,0.0,0.0,0.0,-2.7272,-2.7272,-2.717,-2.6826,0.0,0.0,-2.5769,-2.5679,-2.574,0.0,0.0,0.0,0.0,0.0,0.0,0.0,0.0,0.0,0.0,0.0,0.0,0.0,0.0,0.0,0.0,0.0,0.0,0.0,0.0,0.0,0.0,0.0,0.0,0.0,0.0,0.0,0.0,0.0,0.0,0.0,0.0,0.0,0.0,0.0,0.0,0.0,0.0,0.0,0.0,0.0,0.0,0.0,0.0,0.0,0.0,0.0,0.0,0.0,0.0,0.0,0.0,0.0,0.0,0.0,-2.9351,-3.3969,-3.76,-4.0044,-4.1226,-4.1935,-4.0942,-3.8136,-3.6304,-3.2965,0.0,0.0,0.0,0.0,0.0,0.0,0.0,0.0,0.0,0.0,0.0,0.0,0.0,0.0,0.0,0.0,0.0,0.0,0.0,0.0,0.0,0.0,0.0,0.0,0.0,0.0,0.0,0.0,0.0,0.0,0.0,0.0,0.0,0.0,0.0,0.0,0.0,0.0,0.0,0.0,0.0,0.0,-2.7405,-2.7803,0.0,0.0,0.0,-2.6548,-2.624,0.0,0.0,0.0,0.0,0.0,0.0,0.0,0.0,0.0,0.0,0.0,0.0,0.0,0.0,0.0,0.0,0.0,0.0,0.0,0.0,0.0,0.0,0.0,0.0,0.0,0.0,0.0,0.0,0.0,0.0,0.0,0.0,0.0,0.0,0.0,0.0,0.0,0.0,0.0,0.0,0.0,0.0,0.0,0.0,0.0,0.0,0.0,0.0,0.0,0.0,0.0,0.0,0.0,0.0,0.0,0.0,0.0,-3.3154,-3.7105,-3.9469,-4.0193,-4.1286,-4.0636,-3.8117,-3.5778,0.0,0.0,0.0,0.0,0.0,0.0,0.0,0.0,0.0,0.0,0.0,0.0,0.0,0.0,0.0,0.0,0.0,0.0,0.0,0.0,0.0,0.0,0.0,0.0,0.0,0.0,0.0,-1.466,0.0,0.0,0.0,0.0,0.0,0.0,0.0,0.0,0.0,0.0,0.0,0.0,0.0,0.0,-2.7361,-2.7578,-2.8348,-2.8613,0.0,0.0,-2.6874,-2.6748,-2.6567,-2.564,0.0,0.0,0.0,0.0,0.0,0.0,0.0,0.0,0.0,0.0,0.0,0.0,0.0,0.0,0.0,0.0,0.0,0.0,0.0,0.0,0.0,0.0,0.0,0.0,0.0,0.0,0.0,0.0,0.0,0.0,0.0,0.0,0.0,0.0,0.0,0.0,0.0,0.0,0.0,0.0,0.0,0.0,0.0,0.0,0.0,0.0,0.0,0.0,0.0,0.0,0.0,0.0,0.0,0.0,0.0,-3.2854,-3.6675,-3.8794,-3.9133,-4.0104,-3.9424,-3.6888,-3.5092,-3.1977,0.0,0.0,0.0,0.0,0.0,0.0,0.0,0.0,0.0,0.0,0.0,0.0,0.0,0.0,0.0,0.0,0.0,0.0,0.0,0.0,0.0,0.0,0.0,0.0,0.0,0.0,0.0,0.0,0.0,0.0,0.0,0.0,0.0,0.0,0.0,0.0,0.0,0.0,0.0,0.0,0.0,-2.7312,-2.8036,-2.911,-2.941,0.0,0.0,-2.7054,-2.8004,-2.7559,-2.6333,-2.4003,0.0,0.0,0.0,0.0,0.0,0.0,0.0,0.0,0.0,0.0,0.0,0.0,0.0,0.0,0.0,0.0,0.0,0.0,0.0,0.0,0.0,0.0,0.0,0.0,0.0,0.0,0.0,0.0,0.0,0.0,0.0,0.0,0.0,0.0,0.0,0.0,0.0,0.0,0.0,0.0,0.0,0.0,0.0,0.0,0.0,0.0,0.0,0.0,0.0,0.0,0.0,0.0,0.0,-2.7571,-3.1684,-3.5535,-3.7558,-3.7732,-3.8772,-3.8556,-3.6986,-3.5299,-3.2451,0.0,0.0,0.0,0.0,0.0,0.0,0.0,0.0,0.0,0.0,0.0,0.0,0.0,0.0,0.0,0.0,0.0,0.0,0.0,0.0,0.0,0.0,0.0,0.0,0.0,0.0,0.0,0.0,-1.627,-1.6326,-1.6457,0.0,0.0,0.0,0.0,0.0,0.0,0.0,0.0,0.0,0.0,-2.6806,-2.7102,-2.852,0.0,0.0,-2.8029,-2.7921,-2.7445,-2.6787,-2.5571,-2.3318,-2.1726,0.0,0.0,0.0,0.0,0.0,0.0,0.0,0.0,0.0,0.0,0.0,0.0,0.0,0.0,0.0,0.0,0.0,0.0,0.0,0.0,0.0,0.0,0.0,0.0,0.0,0.0,0.0,0.0,0.0,0.0,0.0,0.0,0.0,0.0,0.0,0.0,0.0,0.0,0.0,0.0,0.0,0.0,0.0,0.0,0.0,0.0,0.0,0.0,0.0,0.0,0.0,0.0,-2.692,-3.0922,-3.4536,-3.6383,-3.6457,-3.749,-3.7489,-3.6314,-3.4897,-3.2448,0.0,0.0,0.0,0.0,0.0,0.0,0.0,0.0,0.0,0.0,0.0,0.0,0.0,0.0,0.0,0.0,0.0,0.0,0.0,0.0,0.0,0.0,0.0,0.0,0.0,0.0,0.0,0.0,-1.6588,-1.6536,-1.664,0.0,0.0,0.0,0.0,0.0,0.0,0.0,0.0,0.0,0.0,-2.6981,-2.6754,-2.8078,-2.8739,-2.7692,-2.8039,-2.802,-2.6831,-2.6105,-2.4999,-2.3039,0.0,0.0,0.0,0.0,0.0,0.0,0.0,0.0,0.0,0.0,0.0,0.0,0.0,0.0,0.0,0.0,0.0,0.0,0.0,0.0,0.0,0.0,0.0,0.0,0.0,0.0,0.0,0.0,0.0,0.0,-1.9551,0.0,0.0,0.0,0.0,0.0,0.0,0.0,0.0,0.0,0.0,0.0,0.0,0.0,0.0,0.0,0.0,0.0,0.0,0.0,0.0,0.0,0.0,-2.6365,-3.0825,-3.3795,-3.535,-3.5435,-3.6354,-3.6056,-3.4543,-3.3592,-3.1733,-2.873,0.0,0.0,0.0,0.0,0.0,0.0,0.0,0.0,0.0,0.0,0.0,0.0,0.0,0.0,0.0,0.0,0.0,0.0,0.0,0.0,0.0,0.0,0.0,0.0,0.0,0.0,-1.798,-1.752,-1.717,0.0,0.0,0.0,0.0,0.0,0.0,0.0,0.0,0.0,0.0,-2.6498,-2.8058,-2.7282,-2.7993,-2.8286,-2.7335,-2.7186,-2.6943,-2.637,-2.5782,-2.4923,0.0,0.0,0.0,0.0,0.0,0.0,0.0,0.0,0.0,0.0,0.0,0.0,0.0,0.0,0.0,0.0,0.0,0.0,0.0,0.0,0.0,0.0,0.0,0.0,0.0,0.0,0.0,-2.3719,-2.3223,0.0,0.0,0.0,0.0,0.0,0.0,0.0,0.0,0.0,0.0,0.0,-2.8668,-2.8437,0.0,0.0,0.0,0.0,0.0,0.0,0.0,0.0,0.0,0.0,0.0,0.0,-2.6474,-2.9849,-3.2813,-3.4299,-3.4339,-3.4618,-3.4558,-3.4012,-3.2785,-3.0301,-2.6443,0.0,0.0,0.0,0.0,0.0,0.0,0.0,0.0,0.0,0.0,0.0,0.0,0.0,0.0,0.0,0.0,0.0,0.0,0.0,0.0,0.0,0.0,0.0,0.0,0.0,-1.7733,0.0,0.0,0.0,0.0,0.0,0.0,0.0,0.0,0.0,0.0,0.0,-2.316,-2.4307,-2.6085,-2.7164,-2.6891,-2.7556,-2.7777,0.0,0.0,0.0,0.0,0.0,0.0,0.0,0.0,0.0,0.0,0.0,0.0,0.0,0.0,-2.2863,-2.2107,-2.1447,-2.0798,-2.0176,0.0,0.0,0.0,0.0,0.0,0.0,0.0,0.0,0.0,0.0,0.0,0.0,0.0,0.0,-2.67,0.0,-2.5475,0.0,0.0,0.0,0.0,0.0,0.0,0.0,0.0,-3.099,-3.1669,-3.1615,-3.1388,-3.1007,0.0,-3.0311,-2.8552,0.0,0.0,0.0,0.0,0.0,0.0,0.0,0.0,-2.6518,-2.9363,-3.205,-3.3431,-3.3425,-3.3657,-3.3541,-3.3027,-3.1598,-2.9264,-2.5955,-2.4448,-2.2775,0.0,0.0,0.0,0.0,0.0,0.0,0.0,0.0,0.0,0.0,0.0,0.0,0.0,0.0,0.0,0.0,0.0,0.0,0.0,0.0,0.0,0.0,0.0,-1.777,0.0,0.0,0.0,0.0,0.0,0.0,0.0,0.0,0.0,-2.0475,-2.2584,-2.4423,-2.5307,-2.6843,-2.7791,-2.7537,0.0,0.0,0.0,0.0,0.0,0.0,0.0,-2.4513,-2.3657,-2.3357,-2.355,-2.4423,-2.5094,-2.5721,-2.6362,0.0,0.0,-2.4386,-2.361,-2.298,-2.2333,-2.2564,-2.2836,-2.2816,-2.3485,-2.4293,0.0,0.0,0.0,0.0,0.0,0.0,0.0,0.0,-2.8658,-2.8674,0.0,-2.7862,0.0,0.0,0.0,0.0,0.0,-2.7845,0.0,0.0,-3.3127,-3.3846,-3.3756,-3.31,-3.2768,-3.268,-3.1967,-3.1201,-3.0241,-2.6897,0.0,0.0,0.0,0.0,0.0,0.0,-2.6533,-2.9367,-3.1553,-3.2685,-3.2685,-3.3342,-3.3011,-3.1565,-3.0179,-2.8754,-2.7315,-2.5872,-2.4448,-2.2973,-2.0127,0.0,0.0,0.0,0.0,0.0,0.0,0.0,0.0,0.0,0.0,0.0,0.0,0.0,0.0,0.0,0.0,0.0,0.0,0.0,0.0,-1.7739,0.0,0.0,0.0,0.0,0.0,0.0,0.0,0.0,0.0,0.0,-2.2877,-2.5164,-2.6926,-2.6859,0.0,0.0,0.0,0.0,-2.8976,-2.8976,-2.8993,-2.8469,-2.7046,-2.6841,-2.6446,-2.5122,0.0,0.0,-2.738,-2.7581,-2.7855,-2.8587,-2.799,-2.7187,-2.6314,-2.5605,-2.4952,-2.4313,-2.4921,-2.5516,-2.5179,-2.5619,-2.6359,-3.3756,0.0,0.0,0.0,0.0,-3.0924,-3.1575,-3.2304,-3.2796,-3.3066,-3.2984,-3.1707,0.0,0.0,0.0,0.0,0.0,0.0,-3.1565,-3.3193,-3.4154,-3.4584,-3.4568,-3.4352,-3.4011,-3.3458,-3.2729,-3.1735,-3.0456,-2.8917,-2.6798,-2.4166,0.0,0.0,0.0,0.0,-2.7046,-2.9347,-3.1052,-3.1912,-3.1912,-3.2111,-3.1515,-3.0075,-2.9612,-2.8738,-2.7348,-2.6385,-2.5209,-2.3719,-2.1381,0.0,0.0,0.0,0.0,0.0,0.0,0.0,0.0,0.0,0.0,0.0,0.0,0.0,0.0,0.0,0.0,0.0,0.0,0.0,-1.7789,-1.9214,-1.9578,0.0,0.0,0.0,0.0,0.0,0.0,0.0,0.0,0.0,-2.6266,-2.7013,-2.7758,0.0,0.0,-2.9247,-2.9027,-2.8993,-2.8993,-2.8993,-2.8993,0.0,-2.7673,-2.7521,-2.7402,-2.6995,-2.7691,-2.8391,-2.8664,-2.8834,-2.9021,-2.9245,-2.909,-2.8643,-2.7867,-2.674,-2.5944,-2.5774,-2.5715,-2.5915,-2.6483,-2.6945,-2.7401,-3.6489,-3.4717,-3.2978,-3.268,-3.3369,-3.3822,-3.4435,-3.5131,-3.5595,-3.5777,-3.5694,-3.4518,-3.3027,-3.1288,-2.9566,0.0,0.0,0.0,-3.268,-3.3822,-3.4551,-3.4899,-3.4899,-3.4899,-3.4667,-3.4203,-3.3497,-3.2553,-3.1371,-3.0621,-2.9099,-2.6798,0.0,0.0,-2.5938,-2.6402,-2.7545,-2.9363,-3.0853,-3.1466,-3.1184,-3.087,-3.0195,-2.9069,-2.9003,-2.8472,-2.7348,-2.6868,-2.5955,-2.4481,-2.2609,-2.0901,0.0,0.0,0.0,0.0,0.0,0.0,0.0,0.0,0.0,0.0,0.0,-1.3854,-1.4569,0.0,0.0,0.0,-1.6906,-1.812,-1.9263,-2.0953,0.0,0.0,0.0,0.0,0.0,0.0,0.0,-2.5982,-2.7283,-2.8332,-2.9041,-2.9142,-2.9228,-2.9414,-2.9704,-2.9854,-2.9873,0.0,-2.989,-2.989,-2.9873,-2.9583,-2.8838,-2.8703,-2.8721,-2.8757,-2.9257,-2.981,-3.0119,-3.0297,-3.042,-3.0368,-2.992,-2.9368,-2.892,-2.7641,-2.6651,-2.6757,-2.6871,-2.7097,-2.7556,-2.803,-2.8555,-3.8295,-3.8129,-3.6092,-3.5562,-3.6092,-3.6158,-3.6555,-3.7201,-3.7251,-3.7284,-3.7218,-3.6506,-3.4982,-3.2851,-3.0775,0.0,-3.1879,-3.2564,-3.3243,-3.3905,-3.4584,-3.4899,-3.4899,-3.4899,-3.4899,-3.4866,-3.4154,-3.3431,-3.2685,-3.1951,-3.0886,-2.9463,-2.746,-2.68,-2.7415,-2.7464,-2.8144,-2.9479,-3.082,-3.1151,-3.0444,-2.9678,-2.9003,-2.8343,-2.831,-2.7928,-2.7184,-2.7116,-2.647,-2.506,-2.3669,-2.2261,-2.0834,0.0,0.0,0.0,0.0,0.0,0.0,0.0,0.0,0.0,0.0,0.0,0.0,0.0,0.0,0.0,-1.8588,0.0,-2.0884,-2.2907,0.0,0.0,0.0,-2.4564,-2.5296,-2.6201,-2.7312,-2.8708,0.0,0.0,-3.1106,-3.119,-3.0954,-3.0277,-3.0768,-3.119,-3.119,-3.114,-3.119,-3.1106,-3.1157,-3.0937,-3.0226,-3.0125,-3.0146,-3.0187,-3.0385,-3.0735,-3.1356,-3.164,-3.1783,-3.1576,-3.0524,-2.9523,-2.9437,-2.823,-2.7351,-2.7297,-2.8014,-2.8579,-2.8314,-2.8963,-2.952,-3.905,-3.9,-3.8486,-3.7698,-3.6903,-3.745,-3.7781,-3.7971,-3.8543,-3.8785,-3.8718,-3.7996,-3.6771,-3.5164,-3.4087,-3.3789,-3.4137,-3.4303,-3.4468,-3.4651,-3.4816,-3.4899,-3.4899,-3.4899,-3.4899,-3.4849,-3.4177,-3.3431,-3.268,-3.1946,-3.1135,-3.0224,-2.9165,-2.8738,-2.8903,-2.8903,-2.9334,-3.0224,-3.0588,-3.0406,-2.9661,-2.8986,-2.8293,-2.758,-2.7564,-2.695,-2.5673,-2.5624,-2.5193,-2.4299,-2.3388,-2.2492,-2.158,-1.9992,0.0,0.0,0.0,0.0,0.0,0.0,0.0,0.0,0.0,-1.6177,-1.6918,0.0,-1.824,0.0,-2.0837,-2.241,-2.3156,-2.4696,0.0,0.0,-2.5626,-2.6044,-2.6794,-2.7709,-2.8626,-2.9517,-3.0405,-3.1004,-3.1173,-3.119,-3.1142,-3.0954,-3.1089,-3.119,-3.119,-3.119,-3.119,-3.119,-3.119,-3.1123,-3.0954,-3.098,-3.1002,-3.104,-3.1192,-3.1391,-3.1564,-3.1709,-3.161,-3.1111,-3.0714,-2.9989,-2.8903,-2.8334,-2.7937,-2.747,-2.7639,-2.814,-2.8781,-2.9303,-2.9669,-3.9315,-3.9315,-3.9315,-3.8834,-3.8096,-3.851,-3.8692,-3.8725,-3.9133,-3.9315,-3.9265,-3.8526,-3.7765,-3.6953,-3.6208,-3.5876,-3.586,-3.5545,-3.5379,-3.5363,-3.5065,-3.4899,-3.4899,-3.4899,-3.4899,-3.4883,-3.4137,-3.3408,-3.268,-3.1946,-3.1217,-3.0506,-3.0092,-2.9893,-2.9877,-2.9562,-2.9595,-2.9992,-2.9715,-2.9201,-2.8489,-2.8094,-2.7547,-2.6851,-2.6468,-2.5922,-2.5127,-2.4762,-2.4347,-2.3885,-2.3176,-2.2616,-2.2203,-2.0805,-1.9174,0.0,0.0,0.0,0.0,0.0,0.0,0.0,0.0,0.0,0.0,0.0,-2.0905,-2.1948,-2.3156,-2.4315,-2.5359,-2.6766,-2.7609,-2.7625,-2.7945,-2.8331,-2.873,-2.9343,-2.9897,-3.03,-3.0842,-3.119,-3.119,-3.119,-3.119,-3.119,-3.119,-3.119,-3.119,-3.119,-3.119,-3.119,-3.119,-3.119,-3.119,-3.1249,-3.1274,-3.1387,-3.15,-3.1578,-3.1671,-3.1746,-3.1558,-3.0852,-3.0403,-2.9799,-2.8644,-2.8092,-2.7763,-2.7486,-2.7423,-2.7759,-2.8394,-2.9236,-2.9808,-3.9315,-3.9315,-3.9315,-3.9315,-3.9315,-3.9315,-3.9315,-3.9315,-3.9315,-3.9315,-3.9265,-3.8609,-3.8361,-3.8311,-3.7682,-3.7334,-3.7201,-3.6473,-3.6108,-3.5959,-3.523,-3.4899,-3.4899,-3.4899,-3.4899,-3.4866,-3.4237,-3.3491,-3.268,-3.2023,-3.1274,-3.0459,-3.0426,-3.0422,-3.0372,-2.9778,-2.9389,-2.9284,-2.8588,-2.7945,-2.7298,-2.7218,-2.6818,-2.6087,-2.5441,-2.5011,-2.4812,-2.4116,-2.3638,-2.3391,-2.2834,-2.2523,-2.2491,-2.123,-1.9841,0.0,-1.8493,0.0,0.0,0.0,0.0,0.0,0.0,0.0,0.0,-2.2327,-2.3752,-2.5127,-2.5425,-2.6071,-2.7448,-2.8754,-2.9549,-2.9562,-3.0108,-3.0489,-3.0489,-3.0749,-3.0912,-3.0912,-3.1072,-3.119,-3.119,-3.1275,-3.1326,-3.1241,-3.1326,-3.1343,-3.1207,-3.119,-3.119,-3.119,-3.119,-3.119,-3.119,-3.121,-3.1271,-3.1423,-3.15,-3.1557,-3.1727,-3.1764,-3.1524,-3.0696,-2.9989,-2.9248,-2.8437,-2.7713,-2.7349,-2.7332,-2.7345,-2.7504,-2.799,-2.9107,-2.9705,-3.9315,-3.9315,-3.9315,-3.9315,-3.9315,-3.9315,-3.9315,-3.9315,-3.9315,-3.9315,-3.9299,-3.9166,-3.9116,-3.9056,-3.895,-3.8543,-3.7937,-3.7235,-3.6589,-3.5976,-3.5247,-3.4899,-3.4899,-3.4899,-3.4899,-3.4899,-3.4767,-3.3942,-3.2545,-3.2334,-3.1522,-3.0136,-3.0,-2.9924,-2.9941,0.0,0.0,0.0,-2.7879,-2.7431,-2.7282,-2.67,-2.6053,-2.5342,-2.5193,0.0,-2.3388,-2.3062,-2.2573,-2.1794,-2.1632,0.0,0.0,0.0,0.0,0.0,0.0,0.0,0.0,0.0,0.0,0.0,-2.2864,-2.3191,-2.236,-2.3737,-2.506,-2.5922,-2.7065,-2.8111,-2.892,-2.9781,-3.029,-3.029,-3.0423,-3.0489,-3.0489,-3.0733,-3.0912,-3.0912,-3.1089,-3.119,-3.1258,-3.1718,-3.1853,-3.1393,-3.1735,-3.1819,-3.1292,-3.1207,-3.119,-3.119,-3.119,-3.119,-3.119,-3.1252,-3.1274,-3.1351,-3.1485,-3.1579,-3.1634,-3.1727,-3.1282,-3.0058,-2.961,-2.9075,-2.7782,-2.7385,-2.7315,-2.7315,-2.7315,-2.7565,-2.8419,-2.9334,-3.0008,-3.9315,0.0,-3.9315,-3.9315,0.0,-3.9315,-3.9315,-3.9315,-3.9315,-3.9315,-3.9315,-3.9315,-3.9315,-3.9315,-3.9315,-3.91,-3.8692,-3.7599,-3.6903,-3.6489,-3.5413,-3.4899,-3.4899,-3.4899,-3.4899,-3.4883,-3.4518,-3.3697,-3.2459,-3.1922,-3.0985,-2.9705,-2.9528,-2.9461,-2.9445,-2.9213,-2.8799,-2.8201,-2.7187,-2.6679,-2.6733,-2.6385,-2.602,-2.5656,0.0,0.0,0.0,0.0,0.0,0.0,0.0,0.0,0.0,0.0,0.0,-1.9922,-2.0591,-2.0831,-2.0512,-2.1756,-2.2713,-2.3081,-2.4425,-2.5107,-2.478,-2.5634,-2.6634,-2.7675,-2.8472,-2.9185,-2.986,-3.029,-3.0489,-3.0489,-3.0489,-3.0489,-3.051,-3.0749,-3.0912,-3.0912,-3.1055,-3.1328,-3.1701,-3.2039,-3.2327,-3.2273,-3.2276,-3.2175,-3.1802,-3.1427,-3.119,-3.119,-3.119,-3.119,-3.119,-3.1213,-3.1274,-3.1295,-3.1372,-3.1485,-3.1579,-3.1654,-3.1227,-2.9868,-2.9506,-2.9023,-2.7694,-2.7315,-2.7315,-2.7315,-2.7315,-2.7433,-2.8023,-2.8975,-2.9652,-3.9315,-3.9315,-3.9315,-3.9315,-3.9315,-3.9315,-3.9315,-3.9315,0.0,0.0,0.0,-3.9315,-3.9315,-3.9315,-3.9315,-3.9272,-3.9146,-3.7696,-3.7001,-3.6918,-3.5456,-3.4763,-3.4756,-3.4756,-3.4739,-3.4747,-3.4152,-3.3287,-3.2252,-3.1364,-3.0392,-2.9373,-2.912,-2.902,-2.8996,-2.8545,-2.8148,-2.7798,-2.6733,-2.6175,-2.6202,-2.6185,-2.6154,-2.6021,-2.527,-2.4491,-2.3667,-2.2779,-2.2168,-2.1872,-2.1354,-2.1291,-2.1808,-2.1338,-2.1023,-2.1004,-2.1665,-2.2061,-2.2077,-2.2703,-2.3393,-2.4104,-2.5224,-2.6172,-2.6808,-2.7287,-2.8045,-2.9197,-2.9411,-2.9704,-3.0318,-3.0363,-3.0384,-3.0422,-3.0426,-3.0464,-3.0485,-3.0729,-3.0912,-3.0932,-3.1072,-3.1413,-3.1972,-3.2344,-3.2632,-3.3,-3.2784,-3.2344,-3.209,-3.1546,-3.119,-3.119,-3.119,-3.119,-3.119,-3.119,-3.1213,-3.1254,-3.1295,-3.1353,-3.1504,-3.1579,-3.1034,-2.973,-2.9506,-2.8885,-2.7677,-2.7315,-2.7315,-2.7315,-2.7315,-2.7315,-2.7435,-2.8472,-2.9299,-3.9315,-3.9315,-3.9315,-3.9315,-3.9315,-3.9315,-3.9315,-3.9315,-3.9315,-3.9315,-3.9315,-3.9315,-3.9315,-3.9315,-3.9315,-3.9202,-3.8924,-3.7462,-3.6718,-3.6506,-3.4942,-3.4201,-3.4201,-3.4226,-3.4226,-3.4209,-3.4096,-3.3234,-3.1831,-3.1349,-3.0418,-2.9116,-2.8826,-2.8756,-2.8717,-2.8238,-2.7703,-2.7142,-2.6895,-2.6595,-2.6202,-2.6185,-2.5887,-2.5275,-2.4987,-2.4386,-2.3495,-2.2982,-2.2541,-2.2154,-2.2058,-2.204,-2.2135,-2.2043,-2.1993,-2.2009,-2.2663,-2.3087,-2.3095,-2.369,-2.438,-2.5033,-2.5296,-2.5665,-2.6375,-2.768,-2.8598,-2.8842,-2.9361,-2.9767,-2.9903,-2.9897,-2.9957,-3.0081,-3.0167,-3.0274,-3.038,-3.0708,-3.0912,-3.0912,-3.1072,-3.1207,-3.1512,-3.2476,-3.3017,-3.2713,-3.2933,-3.2797,-3.1698,-3.1258,-3.119,-3.119,-3.119,-3.119,-3.119,-3.119,-3.121,-3.121,-3.1254,-3.1295,-3.137,-3.1485,-3.1048,-2.9677,-2.9472,-2.8903,-2.7609,-2.7315,-2.7315,-2.7315,-2.7315,-2.7332,-2.7385,-2.8541,-2.9489,-3.9315,-3.9315,-3.9315,-3.9315,-3.9315,-3.9315,-3.9315,-3.9315,-3.9315,-3.9315,-3.9315,-3.9315,-3.9315,-3.9315,-3.9315,-3.9164,-3.8821,-3.7175,-3.6312,-3.6002,-3.438,-3.362,-3.362,-3.3604,-3.362,-3.3604,-3.3246,-3.2408,-3.1207,-3.0535,-2.9675,-2.8691,-2.8573,-2.8494,-2.8472,-2.8271,-2.765,-2.6607,-2.6568,-2.6335,-2.5895,-2.5862,-2.5699,-2.5371,-2.5188,-2.4629,-2.3704,-2.3356,-2.2995,-2.2589,-2.2274,-2.2243,-2.2539,-2.2274,-2.2243,-2.2574,-2.2919,-2.3295,-2.3667,-2.4304,-2.4823,-2.5129,-2.5832,-2.6388,-2.6729,-2.7717,-2.8499,-2.8866,-2.924,-2.9416,-2.9416,-2.9416,-2.9483,-2.9661,-2.9837,-3.0065,-3.0295,-3.0651,-3.0912,-3.0932,-3.1055,-3.1343,-3.1769,-3.273,-3.3508,-3.3444,-3.3525,-3.2831,-3.1427,-3.119,-3.119,-3.119,-3.119,-3.119,-3.119,-3.119,-3.119,-3.119,-3.1213,-3.1254,-3.1293,-3.1408,-3.0852,-2.9728,-2.9403,-2.8853,-2.7559,-2.7315,-2.7315,-2.7315,-2.7315,-2.7402,-2.7902,-2.9092,-3.0248,-3.9315,-3.9315,-3.9315,-3.9315,-3.9315,-3.9315,-3.9315,-3.9315,-3.9315,-3.9315,-3.9315,-3.9315,-3.9272,-3.9245,-3.9202,-3.8985,-3.8427,-3.6821,-3.5851,-3.5438,-3.3808,-3.3013,-3.3013,-3.3013,-3.3013,-3.2934,-3.2348,-3.1528,-3.0643,-2.9759,-2.9012,-2.8473,-2.8411,-2.8381,-2.8319,-2.8341,-2.7632,-2.6236,-2.6228,-2.5986,-2.5451,-2.5438,-2.5438,-2.5419,-2.5243,-2.4775,-2.4037,-2.3751,-2.3447,-2.3075,-2.2607,-2.2561,-2.3009,-2.2627,-2.2581,-2.3009,-2.3126,-2.3434,-2.4079,-2.4766,-2.5205,-2.5372,-2.631,-2.7009,-2.7265,-2.7667,-2.8193,-2.881,-2.8951,-2.8928,-2.8928,-2.8928,-2.902,-2.9234,-2.9643,-2.9921,-3.0109,-3.0654,-3.0998,-3.0922,-3.1035,-3.141,-3.2019,-3.2848,-3.3541,-3.3931,-3.3609,-3.2628,-3.1495,-3.119,-3.119,-3.119,-3.119,-3.119,-3.119,-3.119,-3.119,-3.119,-3.119,-3.1213,-3.1254,-3.1293,-3.0755,-2.9673,-2.9333,-2.875,-2.7598,-2.725,-2.725,-2.725,-2.7421,-2.7885,-2.8851,-2.9817,-3.0958,-3.9315,-3.9315,-3.9315,-3.9315,-3.9315,-3.9315,-3.9315,-3.9315,-3.9315,-3.9315,-3.9299,-3.9315,-3.9175,-3.9023,-3.8887,-3.8595,-3.8028,-3.6286,-3.5275,-3.4792,-3.328,-3.248,-3.248,-3.2465,-3.2465,-3.2372,-3.1782,-3.1008,-3.0236,-2.9404,-2.8828,-2.8449,-2.8411,-2.8381,-2.8356,-2.8284,-2.7466,-2.5978,-2.6061,-2.5737,-2.5017,-2.4962,-2.4977,-2.4958,-2.4779,-2.4542,-2.4246,-2.408,-2.3813,-2.3569,-2.3452,-2.3458,-2.3496,-2.3452,-2.3467,-2.3511,-2.3548,-2.3841,-2.4515,-2.5159,-2.5811,-2.6357,-2.657,-2.693,-2.748,-2.7605,-2.7858,-2.8332,-2.8468,-2.8468,-2.8468,-2.8468,-2.8565,-2.8865,-2.9549,-2.9973,-3.0,-3.08,-3.1335,-3.0762,-3.1026,-3.1241,-3.1478,-3.251,-3.3339,-3.3457,-3.2966,-3.2242,-3.1393,-3.119,-3.119,-3.119,-3.119,-3.119,-3.119,-3.119,-3.119,-3.119,-3.119,-3.121,-3.1213,-3.1152,-3.0838,-2.9548,-2.9107,-2.8579,-2.7621,-2.7071,-2.7119,-2.7426,-2.7923,-2.8747,-3.0024,-3.061,-3.1131,-3.9315,-3.9315,-3.9315,-3.9315,-3.9315,-3.9315,-3.9315,-3.9315,-3.9315,-3.9245,-3.9121,-3.9023,-3.8942,-3.886,-3.8634,-3.8016,-3.6982,-3.5501,-3.4428,-3.371,-3.2448,-3.1868,-3.1853,-3.1881,-3.1853,-3.1775,-3.0822,-3.0171,-2.9709,-2.8879,-2.8381,-2.8356,-2.8381,-2.8396,-2.831,-2.8186,-2.7494,-2.6356,-2.6359,-2.5849,-2.486,-2.4611,-2.4538,-2.4533,-2.439,-2.4245,-2.413,-2.3982,-2.3782,-2.3616,-2.3595,-2.3595,-2.3595,-2.3595,-2.3595,-2.3625,-2.3962,-2.4485,-2.5143,-2.5824,-2.6303,-2.6587,-2.6986,-2.733,-2.7555,-2.7585,-2.77,-2.7875,-2.7925,-2.794,-2.794,-2.794,-2.8166,-2.8765,-2.932,-2.9835,-3.0498,-3.0888,-3.1134,-3.1104,-3.1102,-3.1075,-3.1227,-3.2046,-3.2679,-3.273,-3.2446,-3.1989,-3.1326,-3.119,-3.119,-3.119,-3.119,-3.119,-3.119,-3.119,-3.119,-3.119,-3.119,-3.119,-3.1142,-3.0789,-3.0234,-2.9236,-2.8849,-2.8237,-2.7213,-2.7092,-2.7158,-2.7721,-2.8938,-3.0006,-3.061,-3.1041,-3.151,-3.9315,-3.9315,-3.9315,-3.9315,-3.9315,-3.9315,-3.9315,-3.9315,-3.9315,-3.9191,-3.8942,-3.8733,-3.8551,-3.8399,-3.8169,-3.7368,-3.6124,-3.4883,-3.3811,-3.2908,-3.194,-3.1496,-3.1496,-3.1496,-3.1496,-3.1316,-3.0402,-2.9696,-2.9262,-2.8419,-2.8024,-2.8189,-2.8284,-2.8259,-2.8213,-2.8024,-2.7484,-2.6686,-2.6602,-2.6033,-2.5002,-2.4546,-2.4292,-2.413,-2.4015,-2.3931,-2.3903,-2.3797,-2.3717,-2.3595,-2.3595,-2.3595,-2.361,-2.3774,-2.3947,-2.4193,-2.4769,-2.536,-2.5854,-2.6482,-2.6881,-2.6911,-2.7345,-2.7585,-2.7585,-2.7585,-2.7585,-2.761,-2.7585,-2.7625,-2.7585,-2.7585,-2.7926,-2.8596,-2.9073,-2.9811,-3.0237,-3.0648,-3.1008,-3.103,-3.09,-3.1056,-3.1321,-3.1759,-3.2073,-3.2293,-3.2124,-3.1853,-3.1343,-3.119,-3.119,-3.119,-3.119,-3.119,-3.119,-3.119,-3.119,-3.119,-3.119,-3.1106,-3.1038,-3.0497,-2.9736,-2.8961,-2.8404,-2.7827,-2.7164,-2.7044,-2.7725,-2.875,-2.9799,-3.073,-3.1041,-3.1472,-3.1733,-3.9315,-3.9315,-3.9315,-3.9315,-3.9315,-3.9315,-3.9315,-3.9315,-3.9315,-3.9121,-3.8788,-3.8479,-3.801,-3.749,-3.7399,-3.68,-3.5622,-3.4483,-3.353,-3.2718,-3.1897,-3.1496,-3.1496,-3.1496,-3.1496,-3.1436,-3.0761,-2.9819,-2.8697,-2.8117,-2.7865,-2.8005,-2.8005,-2.8005,-2.8005,-2.7865,-2.7425,-2.6761,-2.6677,-2.6273,-2.56,-2.4941,-2.4357,-2.3794,-2.3653,-2.3638,-2.3631,-2.3631,-2.3595,-2.3595,-2.3595,-2.3595,-2.364,-2.4186,-2.4784,-2.545,-2.6078,-2.6467,-2.6602,-2.7151,-2.7495,-2.7525,-2.754,-2.7585,-2.7585,-2.7585,-2.7585,-2.7585,-2.7645,-2.7675,-2.766,-2.763,-2.771,-2.8017,-2.9122,-2.9439,-2.8859,-3.0288,-3.0743,-3.039,-3.0509,-3.1035,-3.1962,-3.1613,-3.1684,-3.1921,-3.1701,-3.1258,-3.1241,-3.119,-3.119,-3.119,-3.119,-3.119,-3.119,-3.119,-3.119,-3.119,-3.114,-3.1021,-3.0751,-3.0362,-2.9499,-2.8738,-2.8197,-2.7673,-2.7148,-2.7538,-2.8629,-2.9555,-3.0157,-3.0846,-3.1331,-3.1626,-3.1818,-3.9315,-3.9315,-3.9315,-3.9315,-3.9315,-3.9315,-3.9315,-3.9315,-3.9315,-3.9067,-3.8623,-3.8242,-3.7679,-3.7041,-3.6228,-3.5415,-3.4575,-3.3517,-3.2675,-3.1987,-3.1629,-3.1496,-3.1496,-3.1496,-3.1496,-3.1406,-3.0793,-2.9849,-2.8652,-2.7955,-2.7715,-2.774,-2.774,-2.7725,-2.7725,-2.7715,-2.7515,-2.7295,-2.724,-2.6926,-2.6288,-2.6004,-2.539,-2.4291,-2.3819,-2.3595,-2.3595,-2.3595,-2.3595,-2.3595,-2.3595,-2.3595,-2.3655,-2.4231,-2.5098,-2.6093,-2.6467,-2.6791,-2.7195,-2.7465,-2.7585,-2.7585,-2.7585,-2.7615,-2.7585,-2.7585,-2.7585,-2.7675,-2.8034,-2.8203,-2.8154,-2.7869,-2.782,-2.8295,-2.8767,-2.9282,-2.9439,-2.983,-3.0009,-3.0089,-3.0375,-3.0866,-3.1341,-3.1343,-3.1328,-3.1495,-3.136,-3.1224,-3.119,-3.119,-3.119,-3.119,-3.119,-3.119,-3.119,-3.119,-3.119,-3.119,-3.1157,-3.1123,-3.0937,-3.0125,-2.9262,-2.8721,-2.8146,-2.7875,-2.7554,-2.8488,-2.9547,-3.001,-3.063,-3.1082,-3.1603,-3.1709,-3.1763,-3.9315,-3.9315,-3.9315,-3.9315,-3.9315,-3.9315,-3.9315,-3.9315,-3.9315,-3.9013,-3.85,-3.7972,-3.7275,-3.6319,-3.508,-3.4137,-3.3517,-3.2781,-3.2153,-3.1555,-3.1496,-3.1496,-3.1496,-3.1496,-3.1496,-3.1391,-3.0808,-2.9939,-2.8951,-2.8259,-2.7824,-2.7625,-2.7585,-2.7585,-2.7585,-2.7585,-2.7585,-2.7585,-2.7585,-2.736,-2.6971,-2.6901,-2.6537,-2.5615,-2.4717,-2.3992,-2.364,-2.3595,-2.3595,-2.3595,-2.3595,-2.3789,-2.4238,-2.4664,-2.5501,-2.6707,-2.6941,-2.7121,-2.751,-2.7585,-2.7585,-2.7615,-2.7824,-2.7929,-2.7944,-2.8109,-2.8229,-2.8364,-2.8633,-2.8921,-2.8831,-2.8528,-2.8438,-2.8861,-2.9101,-2.9372,-2.9853,-2.9855,-3.002,-3.022,-3.0341,-3.0634,-3.0975,-3.1089,-3.1109,-3.1112,-3.1112,-3.1162,-3.1418,-3.1249,-3.1306,-3.1444,-3.1326,-3.1224,-3.119,-3.1207,-3.119,-3.119,-3.1173,-3.1157,-3.0886,-3.0008,-2.9314,-2.8756,-2.8416,-2.8213,-2.8587,-2.9487,-3.0049,-3.0479,-3.0842,-3.1295,-3.1542,-3.1615,-3.167,-3.9315,-3.9315,-3.9315,-3.9299,-3.9272,-3.9262,-3.9288,-3.9245,-3.9228,-3.8892,-3.829,-3.7695,-3.6712,-3.5476,-3.4273,-3.3216,-3.2691,-3.2467,-3.2064,-3.154,-3.1496,-3.1496,-3.1496,-3.1496,-3.1496,-3.1466,-3.0836,-3.0193,-2.9579,-2.8873,-2.8218,-2.7735,-2.7615,-2.7585,-2.7585,-2.7585,-2.7585,-2.7585,-2.7585,-2.757,-2.7585,-2.751,-2.745,-2.727,-2.6228,-2.5031,-2.3774,-2.364,-2.3625,-2.3655,-2.367,-2.4253,-2.5315,-2.5576,-2.6183,-2.7285,-2.757,-2.7615,-2.7645,-2.7675,-2.772,-2.7779,-2.8244,-2.8487,-2.8532,-2.9026,-2.9397,-2.9382,-2.9517,-2.9579,-2.9579,-2.9621,-2.9562,-2.9636,-2.9864,-3.0023,-2.9979,-3.0416,-3.0771,-3.0537,-3.0334,-3.0425,-3.0745,-3.0911,-3.094,-3.094,-3.1065,-3.134,-3.1858,-3.1577,-3.149,-3.1914,-3.1718,-3.1258,-3.1224,-3.1207,-3.119,-3.119,-3.1173,-3.1123,-3.0869,-3.0192,-2.9685,-2.9178,-2.9245,-2.9076,-2.9245,-3.0078,-3.0487,-3.0883,-3.1213,-3.137,-3.1428,-3.1521,-3.1576,-3.9315,-3.9315,-3.9315,-3.9218,-3.9094,-3.8996,-3.8914,-3.8821,-3.8711,-3.8391,-3.786,-3.7312,-3.6411,-3.5217,-3.403,-3.314,-3.2467,-3.2049,-3.169,-3.1525,-3.1496,-3.1496,-3.1496,-3.1496,-3.1496,-3.1391,-3.0821,-3.0417,-3.0043,-2.9131,-2.8472,-2.8248,-2.7824,-2.76,-2.7585,-2.7585,-2.7585,-2.7585,-2.7585,-2.7585,-2.7585,-2.76,-2.76,-2.7555,-2.7165,-2.6348,-2.5061,-2.4103,-2.3864,-2.4246,-2.4291,-2.4911,-2.5989,-2.6312,-2.6716,-2.751,-2.8064,-2.8278,-2.8278,-2.8263,-2.8218,-2.8308,-2.8487,-2.8577,-2.8652,-2.925,-2.9609,-2.9669,-2.9953,-3.0223,-3.0283,-3.0644,-3.0507,-2.9711,-2.9744,-2.9951,-2.9856,-3.0155,-3.0217,-3.0096,-3.0139,-3.0226,-3.0272,-3.0462,-3.0828,-3.0893,-3.1309,-3.194,-3.2254,-3.2033,-3.2156,-3.2803,-3.2046,-3.1458,-3.1576,-3.1441,-3.1171,-3.119,-3.1173,-3.1157,-3.0869,-3.0598,-3.0091,-2.982,-2.9888,-2.9989,-3.0176,-3.0463,-3.0874,-3.1082,-3.124,-3.1312,-3.1368,-3.1406,-3.1462,-3.9315,-3.9315,-3.9315,-3.9148,-3.8914,-3.8706,-3.8495,-3.8343,-3.8132,-3.7799,-3.7373,-3.6921,-3.6153,-3.508,-3.3968,-3.3125,-3.2467,-3.1795,-3.1496,-3.1496,-3.1496,-3.1496,-3.1496,-3.1496,-3.1496,-3.1436,-3.1062,-3.0746,-3.0447,-2.9505,-2.8846,-2.8532,-2.7929,-2.7585,-2.7585,-2.7585,-2.7585,-2.7585,-2.7585,-2.7585,-2.7645,-2.7854,-2.7974,-2.7944,-2.7735,-2.718,-2.6303,-2.5046,-2.4418,-2.4634,-2.4814,-2.5525,-2.6482,-2.6602,-2.6911,-2.7525,-2.7959,-2.8203,-2.8218,-2.8169,-2.8218,-2.8278,-2.8682,-2.8966,-2.9131,-2.9729,-3.0283,-3.0372,-3.0657,-3.0881,-3.0928,-3.1197,-3.1077,-3.0447,-3.0372,-3.0313,-3.0338,-3.0332,-3.0459,-3.038,-3.0237,-3.0093,-3.0179,-3.0348,-3.0679,-3.0799,-3.1454,-3.236,-3.2524,-3.2348,-3.2762,-3.2983,-3.2555,-3.2188,-3.209,-3.1722,-3.1182,-3.1171,-3.119,-3.119,-3.1055,-3.0886,-3.0531,-3.0378,-3.0362,-3.0362,-3.0514,-3.0801,-3.1142,-3.1213,-3.1232,-3.1252,-3.1271,-3.1308,-3.1346,-3.9299,-3.9272,-3.9272,-3.904,-3.8706,-3.8351,-3.8084,-3.7796,-3.7504,-3.7177,-3.6845,-3.6523,-3.5844,-3.491,-3.4043,-3.3245,-3.2467,-3.1929,-3.1585,-3.1525,-3.1496,-3.1496,-3.1496,-3.1496,-3.1496,-3.1481,-3.1451,-3.1137,-3.0657,-2.9968,-2.9337,-2.8712,-2.8083,-2.763,-2.7615,-2.7585,-2.7585,-2.7585,-2.7585,-2.7585,-2.7615,-2.8139,-2.8502,-2.8502,-2.8034,-2.7645,-2.7255,-2.6198,-2.533,-2.4918,-2.5465,-2.6108,-2.6557,-2.6662,-2.7031,-2.757,-2.763,-2.7779,-2.772,-2.7884,-2.7929,-2.8109,-2.8948,-2.9651,-2.9771,-3.0569,-3.1241,-3.1271,-3.1361,-3.1436,-3.1421,-3.1481,-3.1436,-3.1481,-3.1271,-3.1286,-3.1391,-3.1024,-3.0949,-3.1032,-3.0489,-2.9882,-3.0283,-3.0394,-3.0577,-3.0648,-3.127,-3.2321,-3.286,-3.2854,-3.2836,-3.284,-3.2857,-3.2536,-3.231,-3.2269,-3.1789,-3.1644,-3.163,-3.1613,-3.1309,-3.1072,-3.0987,-3.0852,-3.0751,-3.0751,-3.0835,-3.1072,-3.119,-3.121,-3.121,-3.119,-3.121,-3.1249,-3.1269,-3.9202,-3.905,-3.8969,-3.8678,-3.8258,-3.7841,-3.7445,-3.7147,-3.6846,-3.66,-3.6383,-3.6164,-3.5625,-3.4785,-3.4418,-3.3619,-3.2676,-3.2288,-3.1914,-3.1555,-3.1496,-3.1496,-3.1496,-3.1496,-3.1496,-3.1496,-3.1496,-3.1421,-3.1197,-3.0597,-2.9939,-2.9337,-2.8652,-2.8079,-2.769,-2.7585,-2.7585,-2.7585,-2.7585,-2.7585,-2.7615,-2.7764,-2.8124,-2.8547,-2.8382,-2.8064,-2.76,-2.6806,-2.6288,-2.6153,-2.6716,-2.7136,-2.727,-2.73,-2.7375,-2.7585,-2.8034,-2.8319,-2.8293,-2.8278,-2.8528,-2.9037,-2.9322,-2.9786,-3.0253,-3.0987,-3.1436,-3.1496,-3.1496,-3.1496,-3.1496,-3.1496,-3.1496,-3.1496,-3.1496,-3.1496,-3.1495,-3.1519,-3.1388,-3.097,-3.0765,-3.0308,-2.9971,-3.0345,-3.0768,-3.0695,-3.1518,-3.2629,-3.3013,-3.3262,-3.3194,-3.3275,-3.3206,-3.2784,-3.2525,-3.2567,-3.2479,-3.2283,-3.2239,-3.2307,-3.1782,-3.119,-3.1157,-3.1106,-3.1004,-3.0987,-3.1038,-3.1173,-3.119,-3.119,-3.119,-3.119,-3.119,-3.121,-3.121,-3.9148,-3.8887,-3.8706,-3.8282,-3.7754,-3.7222,-3.6799,-3.6492,-3.6195,-3.602,-3.5893,-3.5829,-3.5522,-3.505,-3.4655,-3.3918,-3.2991,-3.2647,-3.2108,-3.1585,-3.1496,-3.1496,-3.1496,-3.1496,-3.1496,-3.1496,-3.1496,-3.1675,-3.175,-3.1241,-3.0612,-2.9968,-2.9325,-2.8558,-2.763,-2.7585,-2.76,-2.7585,-2.7585,-2.7585,-2.7585,-2.7585,-2.7764,-2.8139,-2.8173,-2.7974,-2.757,-2.7225,-2.7031,-2.7091,-2.7375,-2.7585,-2.7585,-2.7585,-2.7585,-2.7615,-2.7989,-2.8158,-2.8184,-2.8173,-2.8487,-2.9056,-2.9397,-2.9894,-3.0462,-3.1092,-3.1496,-3.1496,-3.1496,-3.1496,-3.1496,-3.1496,-3.1496,-3.1496,-3.1496,-3.1496,-3.1496,-3.1582,-3.1503,-3.1214,-3.0951,-3.0685,-2.9875,-3.0677,-3.0865,-3.1014,-3.182,-3.2565,-3.3061,-3.3288,-3.3455,-3.3406,-3.3297,-3.2852,-3.28,-3.2912,-3.3141,-3.2984,-3.2882,-3.2949,-3.2341,-3.1579,-3.1241,-3.1224,-3.1207,-3.119,-3.119,-3.119,-3.119,-3.119,-3.119,-3.119,-3.119,-3.119,-3.119,-3.911,-3.875,-3.8423,-3.7895,-3.7312,-3.6646,-3.6258,-3.5958,-3.5716,-3.5554,-3.5522,-3.5489,-3.5492,-3.5459,-3.4923,-3.4234,-3.344,-3.2931,-3.2198,-3.172,-3.1496,-3.1496,-3.1496,-3.1496,-3.1496,-3.1496,-3.1496,-3.1854,-3.2093,-3.1824,-3.1256,-3.0672,-3.0073,-2.9067,-2.8109,-2.7764,-2.7675,-2.76,-2.7585,-2.7585,-2.7585,-2.7585,-2.7645,-2.769,-2.772,-2.7705,-2.7615,-2.754,-2.7585,-2.772,-2.7705,-2.7764,-2.775,-2.775,-2.7869,-2.7944,-2.8079,-2.8079,-2.7914,-2.8124,-2.8244,-2.8951,-2.9505,-2.9939,-3.0627,-3.1212,-3.1496,-3.1496,-3.1496,-3.1496,-3.1496,-3.1496,-3.1496,-3.1496,-3.1496,-3.1496,-3.1496,-3.1496,-3.1568,-3.1697,-3.114,-3.0953,-3.0928,-3.1122,-3.1247,-3.1021,-3.1847,-3.2462,-3.2765,-3.2861,-3.3076,-3.3266,-3.3074,-3.2853,-3.3027,-3.3257,-3.359,-3.3705,-3.3605,-3.3474,-3.2949,-3.2256,-3.1579,-3.1258,-3.1207,-3.119,-3.119,-3.119,-3.119,-3.119,-3.119,-3.119,-3.119,-3.119,-3.119,-3.904,-3.8611,-3.8173,-3.7608,-3.6966,-3.6352,-3.5958,-3.5767,-3.5587,-3.5489,-3.5489,-3.5489,-3.5489,-3.5489,-3.522,-3.4666,-3.3559,-3.317,-3.2677,-3.1585,-3.1496,-3.1496,-3.1496,-3.1496,-3.1496,-3.1496,-3.1496,-3.1854,-3.2258,-3.2318,-3.1944,-3.1331,-3.1061,-3.0193,-2.8637,-2.8319,-2.8094,-2.7705,-2.7585,-2.7585,-2.7585,-2.7585,-2.7585,-2.7585,-2.7585,-2.7585,-2.7585,-2.7585,-2.7854,-2.8259,-2.8412,-2.8442,-2.8472,-2.8828,-2.9022,-2.9037,-2.9082,-2.9127,-2.9142,-2.9097,-2.94,-2.9879,-3.0118,-3.0597,-3.1182,-3.1361,-3.1496,-3.1496,-3.1496,-3.1496,-3.1496,-3.1496,-3.157,-3.1585,-3.1615,-3.1585,-3.1511,-3.1511,-3.1539,-3.1523,-3.1419,-3.1149,-3.0754,-3.1427,-3.1508,-3.1305,-3.1695,-3.2333,-3.248,-3.2508,-3.2699,-3.2969,-3.3114,-3.2997,-3.3324,-3.3726,-3.4275,-3.4442,-3.4322,-3.4049,-3.3525,-3.2966,-3.2327,-3.1681,-3.119,-3.1207,-3.1258,-3.119,-3.119,-3.119,-3.119,-3.119,-3.119,-3.119,-3.119,-3.9002,-3.846,-3.7915,-3.7312,-3.6662,-3.6037,-3.5701,-3.5604,-3.5537,-3.5489,-3.5489,-3.5489,-3.5489,-3.5459,-3.5145,-3.4427,-3.3514,-3.2811,-3.2183,-3.157,-3.1496,-3.1496,-3.1496,-3.1496,-3.1496,-3.1496,-3.1496,-3.1869,-3.2407,-3.2751,-3.2647,-3.2019,-3.1974,-3.0881,-2.925,-2.8786,-2.8244,-2.7735,-2.7585,-2.7585,-2.7585,-2.7585,-2.7585,-2.7585,-2.7585,-2.7585,-2.7585,-2.7959,-2.8218,-2.8637,-2.9146,-2.934,-2.9131,-2.9412,-2.9606,-2.9621,-2.9621,-2.9621,-2.9606,-2.9651,-2.9846,-3.0462,-3.0507,-3.0883,-3.1301,-3.1496,-3.1496,-3.1496,-3.1496,-3.1496,-3.1511,-3.1869,-3.1929,-3.2034,-3.2243,-3.2288,-3.2004,-3.1705,-3.1496,-3.1496,-3.1481,-3.1316,-3.1371,-3.169,-3.1832,-3.1642,-3.1848,-3.2453,-3.2425,-3.2453,-3.2453,-3.2672,-3.3,-3.325,-3.3612,-3.4184,-3.5,-3.5105,-3.5065,-3.4687,-3.4201,-3.3643,-3.3072,-3.2344,-3.1579,-3.1376,-3.1393,-3.1292,-3.119,-3.119,-3.119,-3.119,-3.119,-3.119,-3.119,-3.8838,-3.8234,-3.7592,-3.6982,-3.6414,-3.578,-3.5489,-3.5489,-3.5489,-3.5489,-3.5489,-3.5489,-3.5489,-3.5385,-3.4981,-3.4262,-3.332,-3.2213,-3.1555,-3.1525,-3.1496,-3.1496,-3.1496,-3.1496,-3.1496,-3.1496,-3.1496,-3.1869,-3.2467,-3.3006,-3.2946,-3.2677,-3.2677,-3.1584,-3.0041,-2.919,-2.8543,-2.7764,-2.7585,-2.7585,-2.7585,-2.7585,-2.7585,-2.7585,-2.7585,-2.772,-2.7884,-2.8289,-2.8682,-2.8921,-2.9909,-3.0178,-3.0043,-2.9906,-2.9906,-2.9939,-3.0043,-3.0103,-3.0118,-3.0058,-3.0238,-3.0642,-3.0687,-3.0898,-3.1361,-3.166,-3.175,-3.1795,-3.1854,-3.1989,-3.1854,-3.2303,-3.2632,-3.2751,-3.3185,-3.317,-3.2706,-3.2108,-3.1929,-3.1496,-3.1496,-3.1406,-3.1521,-3.1768,-3.1896,-3.2053,-3.2247,-3.2398,-3.2398,-3.2398,-3.2398,-3.2496,-3.2839,-3.3372,-3.3772,-3.4251,-3.5102,-3.5373,-3.5419,-3.5205,-3.4805,-3.4556,-3.3914,-3.2716,-3.2056,-3.1819,-3.1478,-3.1258,-3.119,-3.119,-3.119,-3.119,-3.119,-3.119,-3.1258,-3.8234,-3.7759,-3.7222,-3.6692,-3.6211,-3.5716,-3.5489,-3.5489,-3.5489,-3.5489,-3.5489,-3.5489,-3.5489,-3.5429,-3.5429,-3.4637,-3.3335,-3.2183,-3.1555,-3.1511,-3.1496,-3.1496,-3.1496,-3.1496,-3.1496,-3.1496,-3.1511,-3.1839,-3.2288,-3.2632,-3.2901,-3.32,-3.3215,-3.2183,-3.0836,-3.0118,-2.9235,-2.8169,-2.7884,-2.7824,-2.7899,-2.7824,-2.7794,-2.7809,-2.7839,-2.8019,-2.8378,-2.8592,-2.9086,-3.0058,-3.0372,-3.0703,-3.0928,-3.1047,-3.1032,-3.1002,-3.1016,-3.0956,-3.0943,-3.1062,-3.1182,-3.1316,-3.1271,-3.1301,-3.1615,-3.1989,-3.2198,-3.2482,-3.2781,-3.3095,-3.3155,-3.323,-3.3305,-3.338,-3.3484,-3.3544,-3.338,-3.314,-3.2647,-3.1959,-3.172,-3.157,-3.1761,-3.1846,-3.1912,-3.2053,-3.2234,-3.237,-3.2398,-3.2398,-3.2398,-3.2523,-3.2718,-3.3346,-3.3917,-3.439,-3.4961,-3.5228,-3.5356,-3.5492,-3.5284,-3.5414,-3.4793,-3.3419,-3.2493,-3.209,-3.1732,-3.136,-3.119,-3.119,-3.119,-3.1207,-3.119,-3.1224,-3.1579,-3.7653,-3.7222,-3.6814,-3.643,-3.6053,-3.5683,-3.5489,-3.5489,-3.5489,-3.5489,-3.5489,-3.5489,-3.5489,-3.54,-3.5085,-3.4233,-3.308,-3.2407,-3.1839,-3.16,-3.1496,-3.1496,-3.1496,-3.1496,-3.1496,-3.1496,-3.1525,-3.163,-3.1989,-3.2348,-3.2677,-3.2871,-3.2991,-3.2287,-3.1225,-3.0612,-3.0013,-2.9071,-2.8783,-2.8753,-2.8963,-2.8798,-2.8633,-2.8618,-2.8603,-2.8813,-2.9082,-2.949,-2.9849,-3.0432,-3.0836,-3.1167,-3.1406,-3.154,-3.1525,-3.154,-3.1511,-3.1496,-3.1496,-3.1496,-3.1466,-3.1481,-3.1525,-3.169,-3.1959,-3.2318,-3.2706,-3.3036,-3.32,-3.3499,-3.3455,-3.3799,-3.4009,-3.4099,-3.4262,-3.4292,-3.4144,-3.4023,-3.3425,-3.2647,-3.2377,-3.2213,-3.2047,-3.2073,-3.1974,-3.2053,-3.2206,-3.2302,-3.237,-3.2398,-3.2398,-3.2508,-3.2676,-3.3107,-3.3694,-3.4143,-3.4586,-3.4866,-3.5118,-3.5281,-3.5418,-3.5402,-3.4891,-3.3907,-3.3174,-3.2611,-3.2022,-3.1667,-3.1427,-3.1258,-3.1326,-3.136,-3.1241,-3.1309,-3.1782,-3.7027,-3.6723,-3.6476,-3.6179,-3.5894,-3.5619,-3.5489,-3.5489,-3.5489,-3.5489,-3.5489,-3.5489,-3.5489,-3.5325,-3.4741,-3.3858,-3.2706,-3.2587,-3.2079,-3.16,-3.1496,-3.1496,-3.1496,-3.1496,-3.1496,-3.1496,-3.1496,-3.1496,-3.1645,-3.1974,-3.2288,-3.2557,-3.2542,-3.2153,-3.1481,-3.1002,-3.0688,-3.0193,-2.9921,-2.9921,-3.0073,-2.9864,-2.9621,-2.9621,-2.9621,-2.9592,-2.9774,-3.0103,-3.0462,-3.0881,-3.1286,-3.172,-3.1735,-3.1839,-3.1899,-3.1854,-3.1675,-3.1525,-3.1525,-3.1735,-3.1809,-3.1809,-3.1884,-3.2198,-3.2602,-3.2976,-3.3275,-3.3739,-3.3963,-3.4038,-3.4173,-3.4397,-3.4622,-3.4788,-3.5085,-3.5295,-3.4876,-3.4651,-3.4502,-3.3844,-3.326,-3.2781,-3.2542,-3.23,-3.2219,-3.1983,-3.2094,-3.2219,-3.2315,-3.2398,-3.2425,-3.2465,-3.2645,-3.2931,-3.3356,-3.3729,-3.4093,-3.4358,-3.4602,-3.4802,-3.5008,-3.5165,-3.4655,-3.4292,-3.3989,-3.3389,-3.2682,-3.2175,-3.2171,-3.207,-3.1765,-3.1749,-3.2019,-3.2171,-3.2459,-3.6461,-3.6274,-3.6116,-3.5926,-3.5735,-3.5554,-3.5489,-3.5489,-3.5489,-3.5489,-3.5489,-3.5489,-3.5489,-3.534,-3.4831,-3.4129,-3.3425,-3.2781,-3.2243,-3.1705,-3.154,-3.1496,-3.1496,-3.1496,-3.1467,-3.1438,-3.1467,-3.1496,-3.1511,-3.1616,-3.1944,-3.2332,-3.2333,-3.2168,-3.1555,-3.1331,-3.0778,-2.9953,-2.9756,-2.9759,-2.9846,-2.9786,-2.9729,-2.9699,-2.9744,-2.9966,-3.0342,-3.0612,-3.0836,-3.1406,-3.1989,-3.2318,-3.2452,-3.2991,-3.32,-3.2916,-3.2317,-3.1511,-3.172,-3.2093,-3.2407,-3.2497,-3.2811,-3.3215,-3.3469,-3.3903,-3.4412,-3.519,-3.519,-3.507,-3.5011,-3.5235,-3.537,-3.5325,-3.537,-3.5474,-3.5295,-3.51,-3.4966,-3.4891,-3.4247,-3.3455,-3.2901,-3.2676,-3.2447,-3.2186,-3.2027,-3.2242,-3.2474,-3.2726,-3.2857,-3.2992,-3.3079,-3.3345,-3.3607,-3.39,-3.4074,-3.4195,-3.4434,-3.4619,-3.4783,-3.5051,-3.5098,-3.4731,-3.4454,-3.4192,-3.3634,-3.3284,-3.3148,-3.2899,-3.2577,-3.278,-3.3152,-3.322,-3.3085,-3.5861,-3.5782,-3.5733,-3.5668,-3.5572,-3.5537,-3.5489,-3.5489,-3.5489,-3.5489,-3.5489,-3.5489,-3.5489,-3.5415,-3.5145,-3.4696,-3.4023,-3.3365,-3.2721,-3.2019,-3.172,-3.1468,-3.1409,-3.138,-3.138,-3.1307,-3.1278,-3.1249,-3.1307,-3.1439,-3.1705,-3.1869,-3.1929,-3.1824,-3.1497,-3.1496,-3.1451,-3.13,-3.124,-3.1046,-3.0791,-3.0687,-3.0672,-3.0657,-3.0614,-3.0806,-3.0971,-3.1077,-3.1391,-3.1944,-3.2407,-3.2706,-3.3006,-3.3335,-3.3484,-3.3425,-3.3021,-3.2691,-3.2706,-3.2931,-3.3021,-3.3095,-3.338,-3.3604,-3.4053,-3.4637,-3.51,-3.5444,-3.5489,-3.5489,-3.5489,-3.5489,-3.5489,-3.5489,-3.5489,-3.5489,-3.5489,-3.5489,-3.537,-3.534,-3.5205,-3.4382,-3.3649,-3.3396,-3.3201,-3.2944,-3.2896,-3.3088,-3.3383,-3.371,-3.3783,-3.3765,-3.3809,-3.3895,-3.4169,-3.4446,-3.4624,-3.4779,-3.5011,-3.5074,-3.4871,-3.4937,-3.489,-3.4998,-3.4848,-3.4622,-3.442,-3.404,-3.3554,-3.3457,-3.3372,-3.3575,-3.3744,-3.3491,-3.3491,-3.5489,-3.5489,-3.5489,-3.5489,-3.5489,-3.5489,-3.5489,-3.5489,-3.5489,-3.5489,-3.5489,-3.5489,-3.5489,-3.5489,-3.5429,-3.5055,-3.4459,-3.3963,-3.3245,-3.2587,-3.2004,-3.1588,-3.1381,-3.1292,-3.122,-3.1087,-3.1146,-3.1146,-3.1176,-3.1293,-3.138,-3.138,-3.1455,-3.1395,-3.1409,-3.1409,-3.1469,-3.1826,-3.1929,-3.175,-3.1481,-3.1406,-3.1421,-3.1451,-3.1496,-3.1496,-3.1525,-3.172,-3.2064,-3.2318,-3.2961,-3.338,-3.3709,-3.4038,-3.4173,-3.4188,-3.4023,-3.4008,-3.3918,-3.3903,-3.3784,-3.3799,-3.3978,-3.4352,-3.4696,-3.5265,-3.5489,-3.5489,-3.5489,-3.5489,-3.5489,-3.5489,-3.5489,-3.5489,-3.5489,-3.5489,-3.5489,-3.5489,-3.5489,-3.5444,-3.5355,-3.525,-3.4637,-3.4277,-3.398,-3.3697,-3.3744,-3.391,-3.4135,-3.4419,-3.4384,-3.4275,-3.4274,-3.4287,-3.445,-3.4729,-3.4995,-3.5219,-3.5417,-3.5177,-3.4738,-3.4552,-3.4504,-3.4667,-3.4886,-3.4898,-3.4631,-3.4269,-3.3977,-3.4235,-3.4387,-3.418,-3.4095,-3.3914,-3.3998,-3.5489,-3.5489,-3.5489,-3.5489,-3.5489,-3.5489,-3.5489,-3.5489,-3.5489,-3.5489,-3.5489,-3.5504,-3.5504,-3.5457,-3.5412,-3.5113,-3.4502,-3.4459,-3.3618,-3.281,-3.2288,-3.1886,-3.1531,-3.1294,-3.1191,-3.1117,-3.1058,-3.1028,-3.1087,-3.1043,-3.1102,-3.1132,-3.1161,-3.1146,-3.1176,-3.1234,-3.1293,-3.1574,-3.1647,-3.1675,-3.1525,-3.1496,-3.1496,-3.1496,-3.1496,-3.1511,-3.154,-3.2034,-3.2557,-3.2751,-3.3559,-3.4173,-3.4427,-3.4801,-3.4996,-3.5011,-3.5026,-3.5011,-3.4951,-3.4651,-3.4442,-3.4577,-3.4831,-3.5083,-3.5185,-3.5367,-3.5519,-3.5639,-3.5789,-3.5699,-3.5624,-3.5519,-3.5654,-3.5489,-3.5489,-3.5489,-3.5489,-3.5489,-3.5489,-3.5489,-3.5444,-3.5355,-3.5325,-3.4891,-3.4592,-3.4311,-3.427,-3.4454,-3.4471,-3.4667,-3.4649,-3.4601,-3.4629,-3.4628,-3.4597,-3.4898,-3.5281,-3.5298,-3.5326,-3.4796,-3.4154,-3.4109,-3.4284,-3.4242,-3.4469,-3.466,-3.4923,-3.4831,-3.4931,-3.5301,-3.5346,-3.4957,-3.4873,-3.4839,-3.4957,-3.5489,-3.5489,-3.5489,-3.5489,-3.5489,-3.5489,-3.5489,-3.5489,-3.5489,-3.5489,-3.5489,-3.5504,-3.5439,-3.5359,-3.5279,-3.5127,-3.4703,-3.4335,-3.3637,-3.3102,-3.2654,-3.2268,-3.1838,-3.1557,-3.1482,-3.1274,-3.104,-3.0791,-3.0791,-3.0836,-3.0806,-3.0821,-3.0984,-3.1073,-3.1117,-3.1132,-3.1234,-3.1307,-3.1424,-3.1511,-3.1496,-3.1496,-3.1496,-3.1496,-3.1496,-3.175,-3.2064,-3.2333,-3.2946,-3.3635,-3.4234,-3.4653,-3.4981,-3.5355,-3.5474,-3.5489,-3.5489,-3.5457,-3.5472,-3.5235,-3.5083,-3.4954,-3.5163,-3.5341,-3.5446,-3.5684,-3.5959,-3.6174,-3.6402,-3.6417,-3.6148,-3.6103,-3.6043,-3.5669,-3.5549,-3.5624,-3.5594,-3.5639,-3.5519,-3.5534,-3.5504,-3.5459,-3.5459,-3.5429,-3.516,-3.4923,-3.4915,-3.4936,-3.4956,-3.5064,-3.508,-3.5186,-3.5216,-3.5354,-3.5369,-3.5477,-3.5615,-3.5462,-3.5309,-3.4819,-3.4341,-3.4195,-3.4335,-3.4214,-3.4196,-3.4568,-3.498,-3.5461,-3.5613,-3.553,-3.5566,-3.5498,-3.5549,-3.5616,-3.5594,-3.5489,-3.5489,-3.5489,-3.5489,-3.5489,-3.5489,-3.5489,-3.5489,-3.5489,-3.5489,-3.5489,-3.5424,-3.5326,-3.5228,-3.5115,-3.5034,-3.482,-3.4481,-3.3935,-3.352,-3.3162,-3.2729,-3.2242,-3.1798,-3.1547,-3.1366,-3.093,-3.0642,-3.0642,-3.0612,-3.0642,-3.0702,-3.0836,-3.0895,-3.0955,-3.1087,-3.1176,-3.122,-3.1545,-3.1736,-3.1766,-3.2049,-3.2153,-3.2108,-3.2004,-3.2183,-3.2632,-3.2946,-3.3395,-3.4083,-3.4713,-3.5026,-3.531,-3.5489,-3.5489,-3.5457,-3.5424,-3.5424,-3.5407,-3.5407,-3.5326,-3.5187,-3.5385,-3.5444,-3.5626,-3.6089,-3.6514,-3.6742,-3.712,-3.7225,-3.6776,-3.6731,-3.6671,-3.6432,-3.6372,-3.6372,-3.6058,-3.5968,-3.5729,-3.5564,-3.5549,-3.5519,-3.5534,-3.5534,-3.5459,-3.525,-3.5224,-3.5262,-3.5374,-3.5532,-3.5702,-3.5796,-3.592,-3.6074,-3.6274,-3.6029,-3.5783,-3.5766,-3.5566,-3.5337,-3.4973,-3.4683,-3.4387,-3.4224,-3.4313,-3.4601,-3.5029,-3.5522,-3.5547,-3.5425,-3.5501,-3.5587,-3.5543,-3.552,-3.5503,-3.5489,-3.5489,-3.5489,-3.5489,-3.5489,-3.5489,-3.5489,-3.5504,-3.5472,-3.5457,-3.5424,-3.5294,-3.5195,-3.5115,-3.4983,-3.4868,-3.482,-3.4732,-3.4398,-3.3836,-3.3695,-3.3279,-3.2703,-3.2157,-3.1891,-3.1424,-3.1148,-3.0946,-3.0699,-3.0932,-3.0845,-3.0845,-3.1036,-3.0832,-3.0686,-3.0791,-3.085,-3.0968,-3.1826,-3.2213,-3.2437,-3.2855,-3.3095,-3.3021,-3.2721,-3.2811,-3.332,-3.3469,-3.3918,-3.4562,-3.5085,-3.5355,-3.5459,-3.5489,-3.5489,-3.5489,-3.5326,-3.5228,-3.5228,-3.5195,-3.5251,-3.5307,-3.5514,-3.5765,-3.6166,-3.6679,-3.7129,-3.7297,-3.753,-3.7535,-3.7434,-3.7389,-3.733,-3.7135,-3.7045,-3.6926,-3.6611,-3.6462,-3.6267,-3.6163,-3.5818,-3.5564,-3.5579,-3.5594,-3.5624,-3.5549,-3.5504,-3.5539,-3.5638,-3.5752,-3.5894,-3.599,-3.6053,-3.6132,-3.6178,-3.6084,-3.5959,-3.5973,-3.5819,-3.5545,-3.5163,-3.474,-3.4455,-3.4299,-3.4525,-3.4886,-3.5213,-3.5568,-3.5529,-3.549,-3.549,-3.5556,-3.5505,-3.5591,-3.5729,-3.5489,-3.5489,-3.5489,-3.5489,-3.5489,-3.5489,-3.5489,-3.5457,-3.5374,-3.5213,-3.51,-3.5001,-3.4949,-3.485,-3.4817,-3.4716,-3.4601,-3.4539,-3.4232,-3.3784,-3.3981,-3.3744,-3.326,-3.2896,-3.2527,-3.2222,-3.1874,-3.1496,-3.1235,-3.154,-3.1816,-3.1874,-3.1801,-3.1337,-3.1006,-3.1053,-3.1465,-3.1643,-3.2343,-3.2926,-3.2941,-3.3287,-3.3574,-3.3529,-3.3274,-3.3499,-3.4068,-3.4113,-3.4397,-3.4966,-3.5444,-3.5474,-3.5489,-3.5489,-3.5489,-3.5457,-3.5294,-3.5148,-3.5149,-3.5211,-3.5452,-3.5536,-3.5712,-3.6045,-3.6423,-3.7075,-3.7497,-3.7887,-3.8201,-3.8191,-3.8147,-3.8093,-3.7928,-3.7434,-3.727,-3.727,-3.7105,-3.7105,-3.7015,-3.7,-3.6776,-3.6641,-3.6596,-3.6252,-3.6148,-3.6043,-3.5983,-3.5639,-3.5617,-3.5686,-3.5767,-3.5831,-3.5926,-3.5973,-3.5988,-3.5925,-3.5861,-3.5814,-3.575,-3.5642,-3.5245,-3.485,-3.4721,-3.4622,-3.488,-3.5163,-3.5348,-3.5521,-3.5573,-3.5576,-3.5726,-3.582,-3.5856,-3.6111,-3.6436,-3.5489,-3.5489,-3.5439,-3.5407,-3.5407,-3.5472,-3.5472,-3.5374,-3.5195,-3.5001,-3.4902,-3.4883,-3.4783,-3.4698,-3.4631,-3.4563,-3.438,-3.4399,-3.4327,-3.3862,-3.4182,-3.408,-3.3881,-3.359,-3.3169,-3.2861,-3.2539,-3.2205,-3.1917,-3.2527,-3.2919,-3.3108,-3.3166,-3.2803,-3.2283,-3.223,-3.219,-3.2457,-3.3101,-3.3345,-3.3465,-3.3754,-3.4027,-3.3984,-3.3941,-3.4049,-3.4483,-3.4709,-3.4786,-3.528,-3.5489,-3.5489,-3.5489,-3.5489,-3.5489,-3.5424,-3.5213,-3.5119,-3.5194,-3.5297,-3.5653,-3.6231,-3.6172,-3.6441,-3.6929,-3.7557,-3.8038,-3.847,-3.8875,-3.8901,-3.8725,-3.8671,-3.8497,-3.7983,-3.7983,-3.7998,-3.7764,-3.7749,-3.7614,-3.7614,-3.7509,-3.7494,-3.7479,-3.712,-3.6791,-3.6641,-3.6477,-3.6073,-3.5684,-3.5752,-3.5789,-3.5808,-3.5778,-3.5795,-3.5795,-3.578,-3.5701,-3.5606,-3.5621,-3.5604,-3.5497,-3.5162,-3.5046,-3.5007,-3.526,-3.5416,-3.5369,-3.545,-3.5616,-3.5887,-3.6158,-3.6201,-3.6204,-3.6446,-3.6776,-3.5504,-3.5472,-3.5294,-3.518,-3.5228,-3.5359,-3.5326,-3.5148,-3.4983,-3.4902,-3.4868,-3.4731,-3.4664,-3.4664,-3.4481,-3.4414,-3.438,-3.438,-3.437,-3.4341,-3.4351,-3.4327,-3.4167,-3.3848,-3.3543,-3.3282,-3.3137,-3.3137,-3.273,-3.3558,-3.4124,-3.4356,-3.4472,-3.437,-3.4066,-3.3678,-3.3387,-3.366,-3.4025,-3.4255,-3.4405,-3.4592,-3.4824,-3.4771,-3.4569,-3.4637,-3.4832,-3.4899,-3.5023,-3.5295,-3.5489,-3.5489,-3.5489,-3.5489,-3.5489,-3.5359,-3.5082,-3.5228,-3.5355,-3.5456,-3.6154,-3.683,-3.7194,-3.7383,-3.7638,-3.7996,-3.8319,-3.8605,-3.8914,-3.9126,-3.9211,-3.9218,-3.9224,-3.9104,-3.9104,-3.8916,-3.8527,-3.8332,-3.8138,-3.8003,-3.7853,-3.7808,-3.7819,-3.7629,-3.7434,-3.7315,-3.709,-3.6656,-3.6297,-3.6073,-3.6049,-3.5839,-3.5779,-3.5627,-3.5629,-3.5649,-3.5619,-3.5572,-3.5539,-3.5522,-3.5459,-3.5444,-3.5344,-3.5334,-3.5565,-3.5651,-3.566,-3.5707,-3.583,-3.6106,-3.6341,-3.6426,-3.6352,-3.6556,-3.6729,-3.5392,-3.5294,-3.5213,-3.51,-3.5016,-3.4949,-3.4898,-3.4831,-3.4783,-3.4683,-3.4534,-3.4515,-3.4515,-3.4481,-3.4414,-3.4414,-3.438,-3.438,-3.438,-3.438,-3.438,-3.438,-3.4341,-3.4167,-3.3862,-3.3925,-3.4012,-3.4153,-3.4211,-3.4849,-3.5444,-3.5735,-3.5764,-3.5981,-3.5952,-3.5619,-3.5183,-3.4976,-3.5268,-3.5409,-3.54,-3.5551,-3.5648,-3.5436,-3.5111,-3.5133,-3.5109,-3.5213,-3.534,-3.5429,-3.5489,-3.5489,-3.5489,-3.5472,-3.5439,-3.5141,-3.5303,-3.5624,-3.5592,-3.6264,-3.6925,-3.7331,-3.7665,-3.7912,-3.8074,-3.8192,-3.8427,-3.8612,-3.8775,-3.8936,-3.9156,-3.9228,-3.9301,-3.9388,-3.9388,-3.9224,-3.8931,-3.8871,-3.8706,-3.8661,-3.8482,-3.8467,-3.8446,-3.8272,-3.8093,-3.7988,-3.7749,-3.736,-3.6941,-3.6731,-3.6477,-3.6267,-3.6013,-3.5923,-3.5639,-3.5582,-3.5552,-3.5489,-3.5489,-3.5489,-3.5489,-3.5474,-3.5507,-3.5539,-3.5621,-3.5782,-3.5929,-3.593,-3.5886,-3.6104,-3.6322,-3.6416,-3.654,-3.6699,-3.6793,-3.5326,-3.518,-3.5049,-3.4883,-3.4702,-3.4616,-3.4597,-3.4597,-3.4597,-3.4515,-3.4414,-3.4414,-3.438,-3.4414,-3.4414,-3.438,-3.438,-3.438,-3.438,-3.438,-3.438,-3.438,-3.438,-3.4414,-3.4385,-3.4549,-3.4869,-3.516,-3.5401,-3.6069,-3.6722,-3.7041,-3.7056,-3.7288,-3.736,-3.7085,-3.6678,-3.6365,-3.6306,-3.6493,-3.6353,-3.619,-3.6107,-3.5991,-3.5628,-3.5526,-3.5489,-3.5565,-3.5502,-3.5504,-3.5489,-3.5489,-3.5489,-3.5472,-3.5326,-3.5119,-3.5495,-3.5761,-3.5971,-3.6678,-3.7259,-3.768,-3.7999,-3.8101,-3.8173,-3.8211,-3.8352,-3.8501,-3.8553,-3.8642,-3.8885,-3.9126,-3.925,-3.9373,-3.9373,-3.9388,-3.9358,-3.9358,-3.9343,-3.9328,-3.9298,-3.9269,-3.9149,-3.8931,-3.8796,-3.8736,-3.8676,-3.8482,-3.7943,-3.7464,-3.7165,-3.6881,-3.6552,-3.6297,-3.5983,-3.5669,-3.5564,-3.5534,-3.5489,-3.5489,-3.5489,-3.5489,-3.5522,-3.5522,-3.5554,-3.5701,-3.5797,-3.5878,-3.5864,-3.6053,-3.6179,-3.6215,-3.644,-3.6787,-3.6843,-3.518,-3.5148,-3.4831,-3.4597,-3.4414,-3.4414,-3.4414,-3.438,-3.4399,-3.4414,-3.438,-3.438,-3.438,-3.438,-3.438,-3.438,-3.438,-3.438,-3.438,-3.438,-3.438,-3.438,-3.438,-3.4428,-3.4617,-3.5116,-3.5581,-3.5894,-3.6504,-3.7056,-3.7593,-3.8173,-3.8072,-3.8043,-3.7984,-3.797,-3.7535,-3.7012,-3.6649,-3.654,-3.6365,-3.6257,-3.6286,-3.6227,-3.6093,-3.6001,-3.595,-3.5822,-3.5639,-3.5609,-3.5609,-3.5639,-3.5504,-3.5654,-3.5442,-3.5507,-3.5922,-3.6239,-3.6539,-3.7114,-3.7622,-3.7984,-3.8246,-3.8391,-3.8478,-3.826,-3.8329,-3.8352,-3.8441,-3.8627,-3.8833,-3.898,-3.9104,-3.9301,-3.9388,-3.9388,-3.9388,-3.9388,-3.9388,-3.9388,-3.9388,-3.9388,-3.9358,-3.9125,-3.9095,-3.926,-3.926,-3.917,-3.8886,-3.8257,-3.7883,-3.7554,-3.73,-3.6926,-3.6312,-3.5998,-3.5684,-3.5579,-3.5534,-3.5489,-3.5489,-3.5489,-3.5489,-3.5522,-3.5522,-3.5522,-3.5587,-3.5668,-3.575,-3.5831,-3.5926,-3.5973,-3.6242,-3.6616,-3.6707,-3.5115,-3.4935,-3.4616,-3.4448,-3.438,-3.438,-3.4409,-3.438,-3.438,-3.4457,-3.438,-3.4395,-3.438,-3.438,-3.438,-3.438,-3.438,-3.438,-3.438,-3.438,-3.438,-3.438,-3.438,-3.4409,-3.4791,-3.5343,-3.5894,-3.6489,-3.7172,-3.7694,-3.7955,-3.813,-3.8072,-3.7999,-3.8014,-3.8014,-3.7709,-3.707,-3.6881,-3.6446,-3.6127,-3.6228,-3.6272,-3.6364,-3.6342,-3.6477,-3.6542,-3.6767,-3.6529,-3.6387,-3.6282,-3.6013,-3.5564,-3.5983,-3.6026,-3.5931,-3.6586,-3.6942,-3.7135,-3.7491,-3.7984,-3.8318,-3.8594,-3.8841,-3.8826,-3.8434,-3.8246,-3.8335,-3.8396,-3.8619,-3.8745,-3.887,-3.9076,-3.9273,-3.9388,-3.9388,-3.9388,-3.9388,-3.9388,-3.9388,-3.9388,-3.9388,-3.9388,-3.9388,-3.9388,-3.9373,-3.9358,-3.9313,-3.9298,-3.8895,-3.8601,-3.8302,-3.8138,-3.7704,-3.7,-3.6327,-3.5998,-3.5699,-3.5579,-3.5534,-3.5504,-3.5489,-3.5489,-3.5489,-3.5489,-3.5489,-3.5489,-3.5522,-3.5604,-3.5653,-3.5718,-3.5814,-3.5941,-3.6274,-3.6336,-3.5163,-3.531,-3.5277,-3.5256,-3.5256,-3.5256,-3.5256,-3.5256,-3.5256,-3.5256,-3.5125,-3.4719,-3.438,-3.4395,-3.438,-3.438,-3.438,-3.438,-3.438,-3.438,-3.438,-3.438,-3.438,-3.4395,-3.4849,-3.5421,-3.5996,-3.6693,-3.736,-3.7317,-3.7273,-3.7404,-3.7404,-3.7418,-3.7404,-3.7331,-3.7114,-3.6446,-3.6504,-3.6141,-3.572,-3.5909,-3.6243,-3.6393,-3.6415,-3.6531,-3.6571,-3.6752,-3.6578,-3.6222,-3.5983,-3.5878,-3.5714,-3.6088,-3.622,-3.6354,-3.6875,-3.7673,-3.7587,-3.7854,-3.8347,-3.8667,-3.8913,-3.916,-3.9567,-3.9247,-3.9,-3.901,-3.8835,-3.8996,-3.8789,-3.8855,-3.9365,-3.9697,-3.9553,-3.9388,-3.9388,-3.9388,-3.9388,-3.9388,-3.9388,-3.9388,-3.9388,-3.9388,-3.9388,-3.9388,-3.9388,-3.9388,-3.9388,-3.9388,-3.9155,-3.8931,-3.8676,-3.8377,-3.7778,-3.7,-3.6312,-3.5998,-3.5744,-3.5564,-3.5504,-3.5504,-3.5489,-3.5489,-3.5489,-3.5489,-3.5489,-3.5489,-3.5489,-3.5587,-3.5604,-3.5636,-3.5829,-3.5973,-3.6085,-3.527,-3.5835,-3.6064,-3.6214,-3.6286,-3.6272,-3.6243,-3.6243,-3.6272,-3.6243,-3.6098,-3.514,-3.4656,-3.4545,-3.438,-3.438,-3.438,-3.438,-3.438,-3.438,-3.438,-3.438,-3.438,-3.4457,-3.4864,-3.5372,-3.5996,-3.6214,-3.6519,-3.6548,-3.6548,-3.633,-3.6286,-3.6315,-3.6301,-3.6257,-3.6185,-3.5828,-3.5581,-3.5125,-3.5198,-3.5517,-3.5923,-3.6079,-3.6201,-3.6124,-3.6276,-3.6524,-3.6473,-3.6237,-3.6148,-3.5938,-3.6148,-3.6537,-3.6584,-3.6823,-3.7441,-3.7769,-3.7732,-3.8101,-3.8623,-3.903,-3.9247,-3.9639,-4.0089,-4.0176,-3.9944,-3.9523,-3.9349,-3.911,-3.8958,-3.9106,-3.9647,-4.0047,-3.9755,-3.9553,-3.9553,-3.9463,-3.9388,-3.9388,-3.9388,-3.9388,-3.9388,-3.9388,-3.9388,-3.9388,-3.9388,-3.9388,-3.9388,-3.9388,-3.9269,-3.9155,-3.899,-3.8661,-3.8302,-3.7749,-3.6926,-3.6507,-3.6252,-3.5833,-3.5519,-3.5504,-3.5489,-3.5489,-3.5489,-3.5489,-3.5489,-3.5489,-3.5489,-3.5537,-3.5522,-3.5587,-3.5636,-3.5797,-3.591,-3.515,-3.5511,-3.5587,-3.5851,-3.6272,-3.6315,-3.6286,-3.6301,-3.6344,-3.6286,-3.633,-3.6156,-3.5706,-3.5189,-3.4603,-3.4457,-3.4559,-3.4472,-3.438,-3.438,-3.438,-3.438,-3.438,-3.4395,-3.482,-3.5285,-3.5793,-3.6185,-3.6112,-3.6185,-3.6286,-3.6286,-3.6286,-3.6301,-3.6344,-3.6243,-3.6083,-3.5755,-3.5479,-3.5218,-3.4907,-3.5169,-3.545,-3.5997,-3.6837,-3.7243,-3.7724,-3.8389,-3.8307,-3.7943,-3.721,-3.6668,-3.6701,-3.7135,-3.7407,-3.7399,-3.803,-3.8121,-3.8221,-3.8559,-3.903,-3.9349,-3.9741,-4.0568,-4.0974,-4.1323,-4.0815,-3.9915,-3.962,-3.9273,-3.9163,-3.9511,-3.9979,-4.0293,-4.0262,-4.0172,-4.0142,-3.9702,-3.9388,-3.9388,-3.9388,-3.9388,-3.9388,-3.9388,-3.9388,-3.9388,-3.9388,-3.9388,-3.9388,-3.9388,-3.9388,-3.9284,-3.9179,-3.8871,-3.8497,-3.8347,-3.7734,-3.7255,-3.6671,-3.6088,-3.5684,-3.5519,-3.5489,-3.5489,-3.5489,-3.5489,-3.5489,-3.5489,-3.5489,-3.5489,-3.5489,-3.5522,-3.5554,-3.5636,-3.5814]},{"header":{"parameterUnit":"m.s-1","parameterCategory":1,"la1":31.0,"la2":29.5877,"lo1":-88.7671,"lo2":-86.6584,"dy":0.0162,"dx":0.0185,"nx":115,"ny":88,"refTime":"2026-05-20T12:00:00:Z","depth":0,"parameterNumber":3,"parameterNumberName":"V-component_of_WINDS"},"data":[0.0,0.0,0.0,0.0,0.0,0.0,0.0,0.0,0.0,0.0,0.0,0.0,0.0,0.0,0.0,0.0,0.0,0.0,0.0,0.0,0.0,0.0,0.0,0.0,0.0,0.0,0.0,0.0,0.0,0.0,0.0,0.0,0.0,0.0,0.0,0.0,0.0,0.0,0.0,0.0,0.0,0.0,0.0,0.0,0.0,0.0,0.0,0.0,0.0,0.0,0.0,0.0,0.0,0.0,0.0,0.0,0.0,0.0,0.0,0.0,0.0,0.0,0.0,0.0,0.0,0.0,0.0,0.0,0.0,0.0,0.0,0.0,0.0,0.0,0.0,0.0,0.0,0.0,0.0,0.0,0.0,0.0,0.0,0.0,0.0,0.0,0.0,0.0,0.0,0.0,0.0,0.0,0.0,0.0,0.0,0.0,0.0,0.0,0.0,0.0,0.0,0.0,0.0,0.0,0.0,0.0,0.0,0.0,0.0,0.0,0.0,0.0,0.0,0.0,0.0,0.0,0.0,0.0,0.0,0.0,0.0,0.0,0.0,0.0,0.0,0.0,0.0,0.0,0.0,0.0,0.0,0.0,0.0,0.0,0.0,0.0,0.0,0.0,0.0,0.0,0.0,0.0,0.0,0.0,0.0,0.0,0.0,0.0,0.0,0.0,0.0,0.0,0.0,0.0,0.0,0.0,0.0,0.0,0.0,0.0,0.0,0.0,0.0,0.0,0.0,0.0,0.0,0.0,0.0,0.0,0.0,0.0,0.0,0.0,0.0,0.0,0.0,0.0,0.0,0.0,0.0,0.0,0.0,0.0,0.0,0.0,0.0,0.0,0.0,0.0,0.0,0.0,0.0,0.0,0.0,0.0,0.0,0.0,0.0,0.0,0.0,0.0,0.0,0.0,0.0,0.0,0.0,0.0,0.0,0.0,0.0,0.0,0.0,0.0,0.0,0.0,0.0,0.0,0.0,0.0,0.0,0.0,0.0,0.0,0.0,0.0,0.0,0.0,0.0,0.0,0.0,0.0,0.0,0.0,0.0,0.0,0.0,0.0,0.0,0.0,0.0,0.0,0.0,0.0,0.0,0.0,0.0,0.0,0.0,0.0,0.0,0.0,0.0,0.0,0.0,0.0,0.0,0.0,0.0,0.0,0.0,0.0,0.0,0.0,0.0,0.0,0.0,0.0,0.0,0.0,0.0,0.0,0.0,0.0,0.0,0.0,0.0,0.0,0.0,0.0,0.0,0.0,0.0,0.0,0.0,0.0,0.0,0.0,0.0,0.0,0.0,0.0,0.0,0.0,0.0,0.0,0.0,0.0,0.0,0.0,0.0,0.0,0.0,0.0,0.0,0.0,0.0,0.0,0.0,0.0,0.0,0.0,0.0,0.0,0.0,0.0,0.0,0.0,0.0,0.0,0.0,0.0,0.0,0.0,0.0,0.0,0.0,0.0,0.0,0.0,0.0,0.0,0.0,0.0,0.0,0.0,0.0,0.0,0.0,0.0,0.0,0.0,0.0,0.0,0.0,0.0,0.0,0.0,0.0,0.0,0.0,0.0,0.0,0.0,0.0,0.0,0.0,0.0,0.0,0.0,0.0,0.0,0.0,0.0,0.0,0.0,0.0,0.0,0.0,0.0,0.0,0.0,0.0,0.0,0.0,0.0,0.0,0.0,0.0,0.0,0.0,0.0,0.0,0.0,0.0,0.0,0.0,0.0,0.0,0.0,0.0,0.0,0.0,0.0,0.0,0.0,0.0,0.0,0.0,0.0,0.0,0.0,0.0,0.0,0.0,0.0,0.0,0.0,0.0,0.0,0.0,0.0,0.0,0.0,0.0,0.0,0.0,0.0,0.0,0.0,0.0,0.0,0.0,0.0,0.0,0.0,0.0,0.0,0.0,0.0,0.0,0.0,0.0,0.0,0.0,0.0,0.0,0.0,0.0,0.0,0.0,0.0,0.0,0.0,0.0,0.0,0.0,0.0,0.0,0.0,0.0,0.0,0.0,0.0,0.0,0.0,0.0,0.0,0.0,0.0,0.0,0.0,0.0,0.0,0.0,0.0,0.0,0.0,0.0,0.0,0.0,0.0,0.0,0.0,0.0,0.0,0.0,0.0,0.0,0.0,0.0,0.0,0.0,0.0,0.0,0.0,0.0,0.0,0.0,0.0,0.0,0.0,0.0,0.0,0.0,0.0,0.0,0.0,0.0,0.0,0.0,0.0,0.0,0.0,0.0,0.0,0.0,0.0,0.0,0.0,0.0,0.0,0.0,0.0,0.0,0.0,0.0,0.0,0.0,0.0,0.0,0.0,0.0,0.0,0.0,0.0,0.0,0.0,0.0,0.0,0.0,0.0,0.0,0.0,0.0,0.0,0.0,0.0,0.0,0.0,0.0,0.0,0.0,0.0,0.0,0.0,0.0,0.0,0.0,0.0,0.0,0.0,0.0,0.0,0.0,0.0,0.0,0.0,0.0,0.0,0.0,0.0,0.0,0.0,0.0,0.0,0.0,0.0,0.0,0.0,0.0,0.0,0.0,0.0,0.0,0.0,0.0,0.0,0.0,0.0,0.0,0.0,0.0,0.0,0.0,0.0,0.0,0.0,0.0,0.0,0.0,0.0,0.0,0.0,0.0,0.0,0.0,0.0,0.0,0.0,0.0,0.0,0.0,0.0,0.0,0.0,0.0,0.0,0.0,0.0,0.0,0.0,0.0,0.0,0.0,0.0,0.0,0.0,0.0,0.0,0.0,0.0,0.0,0.0,0.0,0.0,0.0,0.0,0.0,0.0,0.0,0.0,0.0,0.0,0.0,0.0,0.0,0.0,0.0,0.0,0.0,0.0,0.0,0.0,0.0,0.0,0.0,0.0,0.0,0.0,0.0,0.0,0.0,0.0,0.0,0.0,0.0,0.0,0.0,0.0,0.0,0.0,0.0,0.0,0.0,0.0,0.0,0.0,0.0,0.0,0.0,0.0,0.0,0.0,0.0,0.0,0.0,0.0,0.0,0.0,0.0,0.0,0.0,0.0,0.0,0.0,0.0,0.0,0.0,0.0,0.0,0.0,0.0,0.0,0.0,0.0,0.0,0.0,0.0,0.0,0.0,0.0,0.0,0.0,0.0,0.0,0.0,0.0,0.0,0.0,0.0,0.0,0.0,0.0,0.0,0.0,0.0,0.0,0.0,0.0,0.0,0.0,0.0,0.0,0.0,0.0,0.0,0.0,0.0,0.0,0.0,0.0,0.0,0.0,0.0,0.0,0.0,0.0,0.0,0.0,0.0,0.0,0.0,0.0,0.0,0.0,0.0,0.0,0.0,0.0,0.0,0.0,0.0,0.0,0.0,0.0,0.0,0.0,0.0,0.0,0.0,0.0,0.0,0.0,0.0,0.0,0.0,0.0,0.0,0.0,0.0,0.0,0.0,0.0,0.0,0.0,0.0,0.0,0.0,0.0,0.0,0.0,0.0,0.0,0.0,0.0,0.0,0.0,0.0,0.0,0.0,0.0,0.0,0.0,0.0,0.0,0.0,0.0,0.0,0.0,0.0,0.0,0.0,0.0,0.0,0.0,0.0,0.0,0.0,0.0,0.0,0.0,0.0,0.0,0.0,0.0,0.0,0.0,0.0,0.0,0.0,0.0,0.0,0.0,0.0,0.0,0.0,0.0,0.0,0.0,0.0,0.0,0.0,0.0,0.0,0.0,0.0,0.0,0.0,0.0,0.0,0.0,0.0,0.0,0.0,0.0,0.0,0.0,0.0,0.0,0.0,0.0,0.0,0.0,0.0,0.0,0.0,0.0,0.0,0.0,0.0,0.0,0.0,0.0,0.0,0.0,0.0,0.0,0.0,0.0,0.0,0.0,0.0,0.0,0.0,0.0,0.0,0.0,0.0,0.0,0.0,0.0,0.0,0.0,0.0,0.0,0.0,0.0,0.0,0.0,0.0,0.0,0.0,0.0,0.0,0.0,0.0,0.0,0.0,0.0,0.0,0.0,0.0,0.0,0.0,0.0,0.0,0.0,0.0,0.0,0.0,0.0,0.0,0.0,0.0,0.0,0.0,0.0,0.0,0.0,0.0,0.0,0.0,0.0,0.0,0.0,0.0,0.0,0.0,0.0,0.0,0.0,0.0,0.0,0.0,0.0,0.0,0.0,0.0,0.0,0.0,0.0,0.0,0.0,0.0,0.0,0.0,0.0,0.0,0.0,0.0,0.0,0.0,0.0,0.0,0.0,0.0,0.0,0.0,0.0,0.0,0.0,0.0,0.0,0.0,0.0,0.5948,0.0,0.0,0.0,0.0,0.0,0.0,0.0,0.0,0.0,0.0,0.0,0.0,0.0,0.0,0.0,0.0,0.0,0.0,0.0,0.0,0.0,0.0,0.0,0.0,0.0,0.0,0.0,0.0,0.0,0.0,0.0,0.0,0.0,0.0,0.0,0.0,0.0,0.0,0.0,0.0,0.0,0.0,0.0,0.0,0.0,0.0,0.0,0.0,0.0,0.0,0.0,0.0,0.0,0.0,0.0,0.0,0.0,0.0,0.0,0.0,0.0,0.0,0.0,0.0,0.0,0.0,0.0,0.0,0.0,0.0,0.0,0.0,0.0,0.0,0.0,0.0,0.0,0.0,0.0,0.0,0.0,0.0,0.0,0.0,0.0,0.0,0.0,0.0,0.0,0.0,0.0,0.0,0.0,0.0,0.0,0.0,0.0,0.0,0.0,0.0,0.0,0.0,0.0,0.0,0.0,0.0,0.0,0.0,0.0,0.0,0.7188,0.7314,0.6937,0.6667,0.6452,0.0,0.0,0.0,0.0,0.0,0.0,0.0,0.0,0.0,0.0,0.0,0.0,0.0,0.0,0.0,0.0,0.0,0.0,0.0,0.0,0.0,0.0,0.0,0.0,0.0,0.0,0.0,0.0,0.0,0.0,0.0,0.0,0.0,0.0,0.0,0.0,0.0,0.0,0.0,0.0,0.0,0.0,0.0,0.0,0.0,0.0,0.0,0.0,0.0,0.0,0.0,0.0,0.0,0.0,0.0,0.0,0.0,0.0,0.0,0.0,0.0,0.0,0.0,0.0,0.0,0.0,0.0,0.0,0.0,0.0,0.0,0.0,0.0,0.0,0.0,0.0,0.0,0.0,0.0,0.0,0.0,0.0,0.0,0.0,0.0,0.0,0.0,0.0,0.0,0.0,0.0,0.0,0.0,0.0,0.0,0.0,0.0,0.0,0.0,0.0,0.0,0.0,0.0,0.0,0.0,0.0,0.0,0.0,0.0,0.0,0.0,0.0,0.7455,0.7109,0.6754,0.0,0.0,0.0,0.0,0.0,0.0,0.0,0.0,0.0,0.0,0.0,0.0,0.0,0.0,0.0,0.0,0.0,0.0,0.0,0.0,0.0,0.0,0.0,0.0,0.0,0.0,0.0,0.0,0.0,0.0,0.0,0.0,0.0,0.0,0.0,0.0,0.0,0.0,0.0,0.0,0.0,0.0,0.0,0.0,0.0,0.0,0.0,0.0,0.0,0.0,0.0,0.0,0.0,0.0,0.0,0.0,0.0,0.0,0.0,0.0,0.0,0.0,0.0,0.0,0.0,0.0,0.0,0.0,0.0,0.0,0.0,0.0,0.0,0.0,0.0,0.0,0.0,0.0,0.0,0.0,0.0,0.0,0.0,0.0,0.0,0.0,0.0,0.0,0.0,0.0,0.0,0.0,0.0,0.0,0.0,0.0,0.0,0.0,0.0,0.0,0.0,0.0,0.0,0.0,0.0,0.0,0.0,0.0,0.0,0.0,0.7806,0.8223,0.78,0.0,0.6623,0.0,0.0,0.0,0.0,0.0,0.0,0.0,0.0,0.0,0.0,0.0,0.0,0.0,0.0,0.0,0.0,0.0,0.0,0.0,0.0,0.0,0.0,0.0,0.0,0.0,0.0,0.0,0.0,0.0,0.0,0.0,0.0,0.0,0.0,0.0,0.0,0.0,0.0,0.0,0.0,0.0,0.0,0.0,0.0,0.0,0.0,0.0,0.0,0.0,0.0,0.0,0.0,0.0,0.0,0.0,0.0,0.0,0.0,0.0,0.0,0.0,0.0,0.0,0.0,0.0,0.0,0.0,0.0,0.0,0.0,0.0,0.0,0.0,0.0,0.0,0.0,0.0,0.0,0.0,0.0,0.0,0.0,0.0,0.0,0.0,0.0,0.0,0.0,0.0,0.0,0.0,0.0,0.0,0.0,0.0,0.0,0.0,0.0,0.0,0.0,0.0,0.0,0.0,0.0,0.0,0.0,0.0,0.0,0.0,0.0,0.8169,0.8536,0.8036,0.7435,0.0,0.0,0.0,0.0,0.0,0.0,0.0,0.0,0.0,0.0,0.0,0.0,0.0,0.0,0.0,0.0,0.0,0.0,0.0,0.0,0.0,0.0,0.0,0.0,0.0,0.0,0.0,0.0,0.0,0.0,0.0,0.0,0.0,0.0,0.0,0.0,0.0,0.0,0.0,0.0,0.0,0.0,0.0,0.0,0.0,0.0,0.0,0.0,0.0,0.0,0.0,0.0,0.0,0.0,0.0,0.0,0.0,0.0,0.0,0.0,0.0,0.0,0.0,0.0,0.0,0.0,0.0,0.0,0.0,0.0,0.0,0.0,0.0,0.0,0.0,0.0,0.0,0.0,0.0,0.0,0.0,0.0,0.0,0.0,0.0,0.0,0.0,0.0,0.0,0.0,0.0,0.0,0.0,0.0,0.0,0.0,0.0,0.0,0.0,0.0,0.0,0.0,0.0,0.0,0.0,0.0,0.0,0.0,0.0,0.0,0.7838,0.0,0.8435,0.8099,0.7549,0.6835,0.0,0.0,0.0,0.0,0.0,0.0,0.0,0.0,0.0,0.0,0.0,0.0,0.0,0.0,0.0,0.0,0.0,0.0,0.0,0.0,0.0,0.0,0.0,0.0,0.0,0.0,0.0,0.0,0.0,0.0,0.0,0.0,0.0,0.0,0.0,0.0,0.0,0.0,0.0,0.0,0.0,0.0,0.0,0.0,0.0,0.0,0.0,0.0,0.0,0.0,0.0,0.0,0.0,0.0,0.0,0.0,0.0,0.0,0.0,0.0,0.0,0.0,0.0,0.0,0.0,0.0,0.0,0.0,0.0,0.0,0.0,0.0,0.0,0.0,0.0,0.0,0.0,0.0,0.0,0.0,0.0,0.0,0.0,0.0,0.0,0.0,0.0,0.0,0.0,0.0,0.0,0.0,0.0,0.0,0.0,0.0,0.0,0.0,0.0,0.0,0.0,0.0,0.0,0.0,0.0,0.0,0.0,0.0,0.0,0.7669,0.7925,0.7961,0.7913,0.7555,0.0,0.0,0.0,0.0,0.0,0.0,0.0,0.0,0.0,0.0,0.0,0.0,0.0,0.0,0.0,0.0,0.0,0.0,0.0,0.0,0.0,0.0,0.0,0.0,0.0,0.0,0.0,0.0,0.0,0.0,0.0,0.0,0.0,0.0,0.0,0.0,0.0,0.0,0.0,0.0,0.0,0.0,0.0,0.0,0.0,0.0,0.0,0.0,0.0,0.0,0.0,0.0,0.0,0.0,0.0,0.0,0.0,0.0,0.0,0.0,0.0,0.0,0.0,0.0,0.0,0.0,0.0,0.0,0.0,0.0,0.0,0.0,0.0,0.0,0.0,0.0,0.0,0.0,0.0,0.0,0.0,0.0,0.0,0.0,0.0,0.0,0.0,0.0,0.0,0.0,0.0,0.0,0.0,0.0,0.0,0.0,0.0,0.0,0.0,0.0,0.0,0.0,0.0,0.0,0.0,0.0,0.0,0.0,0.0,0.723,0.784,0.8153,0.8135,0.7681,0.7146,0.0,0.0,0.0,0.0,0.0,0.0,0.0,0.0,0.0,0.0,0.0,0.0,0.0,0.0,0.0,0.0,0.0,0.0,0.0,0.0,0.0,0.0,0.0,0.0,0.0,0.0,0.0,0.0,0.0,0.0,0.0,0.0,0.0,0.0,0.0,0.0,0.0,0.0,0.0,0.0,0.0,0.0,0.0,0.0,0.0,0.0,0.0,0.0,0.0,0.0,0.0,0.0,0.0,0.0,0.0,0.0,0.0,0.0,0.0,0.0,0.0,0.0,0.0,0.0,0.0,0.0,0.0,0.0,0.0,0.0,0.0,0.0,0.0,0.0,0.0,0.0,0.0,0.0,0.0,0.0,0.0,0.0,0.0,0.0,0.0,0.0,0.0,0.0,0.0,0.0,0.0,0.0,0.0,0.0,0.0,0.0,0.0,0.0,0.0,0.0,0.0,0.0,0.0,0.0,0.0,0.0,0.0,0.0,0.0,0.7576,0.0,0.8465,0.0,0.7744,0.7109,0.0,0.0,0.0,0.0,0.0,0.0,0.0,0.0,0.0,0.0,0.0,0.0,0.0,0.0,0.0,0.0,0.0,0.0,0.0,0.0,0.0,0.0,0.0,0.0,0.0,0.0,0.0,0.0,0.0,0.0,0.0,0.0,0.0,0.0,0.0,0.0,0.0,0.0,0.0,0.0,0.0,0.0,0.0,0.0,0.0,0.0,0.0,0.0,0.0,0.0,0.0,0.0,0.0,0.0,0.0,0.0,0.0,0.0,0.0,0.0,0.0,0.0,0.0,0.0,0.0,0.0,0.0,0.0,0.0,0.0,0.0,0.0,0.0,0.0,0.0,0.0,0.0,0.0,0.0,0.0,0.0,0.0,0.0,0.0,0.0,0.0,0.0,0.0,0.0,0.0,0.0,0.0,0.0,0.0,0.0,0.0,0.0,0.0,0.0,0.0,0.0,0.0,0.0,0.0,0.0,0.0,0.0,0.0,0.7848,0.8319,0.883,0.8854,0.8343,0.8009,0.7411,0.0,0.0,0.0,0.0,0.0,0.0,0.0,0.0,0.0,0.0,0.0,0.0,0.0,0.0,0.0,0.0,0.0,0.0,0.0,0.0,0.0,0.0,0.0,0.0,0.0,0.0,0.0,0.0,0.0,0.0,0.0,0.0,0.0,0.0,0.0,0.0,0.0,0.0,0.0,0.0,0.0,0.0,0.0,0.0,0.0,0.0,0.0,0.0,0.0,0.0,0.0,0.0,0.0,0.0,0.0,0.0,0.0,0.0,0.0,0.0,0.0,0.0,0.0,0.0,0.0,0.0,0.0,0.0,0.0,0.0,0.0,0.0,0.0,0.0,0.0,0.0,0.0,0.0,0.0,0.0,0.0,0.0,0.0,0.0,0.0,0.0,0.0,0.0,0.0,0.0,0.0,0.0,0.0,0.0,0.0,0.0,0.0,0.0,0.0,0.0,0.0,0.0,0.0,0.0,0.0,0.0,0.0,0.0,0.0,0.9137,0.9306,0.9215,0.8848,0.7919,0.7164,0.0,0.0,0.0,0.0,0.0,0.0,0.0,0.0,0.0,0.0,0.0,0.0,0.0,0.0,0.0,0.0,0.0,0.0,0.0,0.0,0.0,0.0,0.0,0.0,0.0,0.0,0.0,0.0,0.0,0.0,0.0,0.0,0.0,0.0,0.0,0.0,0.0,0.0,0.0,0.0,0.0,0.0,0.0,0.0,0.0,0.0,0.0,0.0,0.0,0.0,0.0,0.0,0.0,0.0,0.0,0.0,0.0,0.0,0.0,0.0,0.0,0.0,0.0,0.0,0.0,0.0,0.0,0.0,0.0,0.0,0.0,0.0,0.0,0.0,0.0,0.0,0.0,0.0,0.0,0.0,0.0,0.0,0.0,0.0,0.0,0.0,0.0,0.0,0.0,0.0,0.0,0.0,0.0,0.0,0.0,0.0,0.0,0.0,0.0,0.0,0.0,0.0,0.0,0.0,0.0,0.0,0.0,0.0,0.0,1.1123,1.0849,1.0446,0.9866,0.8775,0.7855,0.7115,0.0,0.0,0.0,0.0,0.0,0.0,0.0,0.0,0.0,0.0,0.0,0.0,0.0,0.0,0.0,0.0,0.0,0.0,0.0,0.0,0.0,0.0,0.0,0.0,0.0,0.0,0.0,0.0,0.0,0.0,0.0,0.0,0.0,0.0,0.0,0.0,0.0,0.0,0.0,0.0,0.0,0.0,0.0,0.0,0.0,0.0,0.0,0.0,0.0,0.0,0.0,0.0,0.0,0.0,0.0,0.0,0.0,0.0,0.0,0.0,0.0,0.0,0.0,0.0,0.0,0.0,0.0,0.0,0.0,0.0,0.0,0.0,0.0,0.0,0.0,0.0,0.0,0.0,0.0,0.0,0.0,0.0,0.0,0.0,0.0,0.0,0.0,0.0,0.0,0.0,0.0,0.0,0.0,0.0,0.0,0.0,0.0,0.0,0.0,0.0,0.0,0.0,0.0,0.0,0.0,0.0,0.0,0.0,1.3998,1.3367,1.2447,1.1299,1.0436,0.9251,0.0,0.0,0.0,0.0,0.0,0.0,0.0,0.0,0.0,0.0,0.0,0.0,0.0,0.0,0.0,0.0,0.0,0.0,0.0,0.0,0.0,0.0,0.0,0.0,0.0,0.0,0.0,0.0,0.0,0.0,0.0,0.0,0.0,0.0,0.0,0.0,0.0,0.0,0.0,0.0,0.0,0.0,0.0,0.0,0.0,0.0,0.0,0.0,0.0,0.0,0.0,0.0,0.0,0.0,0.0,0.0,0.0,0.0,0.0,0.0,0.0,0.0,0.0,0.0,0.0,0.0,0.0,0.0,0.0,0.0,0.0,0.0,0.0,0.0,0.0,0.0,0.0,0.0,0.0,0.0,0.0,0.0,0.0,0.0,0.0,0.0,0.0,0.0,0.0,0.0,0.0,0.0,0.0,0.0,0.0,0.0,0.0,0.0,0.0,0.0,0.0,0.0,0.0,0.0,0.0,0.0,0.0,0.0,0.0,1.5746,1.6296,1.5514,1.3391,1.1891,1.0392,0.0,0.0,0.0,0.0,0.0,0.0,0.0,0.0,0.0,0.0,0.0,0.0,0.0,0.0,0.0,0.0,0.0,0.0,0.0,0.0,0.0,0.0,0.0,0.0,0.0,0.0,0.0,0.0,0.0,0.0,0.0,0.0,0.0,0.0,0.0,0.0,0.0,0.0,0.0,0.0,0.0,0.0,0.0,0.0,0.0,0.0,0.0,0.0,0.0,0.0,0.0,0.0,0.0,0.0,0.0,0.0,0.0,0.0,0.0,0.0,0.0,0.0,0.0,0.0,0.0,0.0,0.0,0.0,0.0,0.0,0.0,0.0,0.0,0.0,0.0,0.0,0.0,0.0,0.0,0.0,0.0,0.0,0.0,0.0,0.0,0.0,0.0,0.0,0.0,0.0,0.0,0.0,0.0,0.0,0.0,0.0,0.0,0.0,0.0,0.0,0.0,0.0,0.0,0.0,0.0,0.0,0.0,0.0,1.4957,1.6997,1.8025,1.768,1.5986,1.3825,1.19,0.0,0.0,0.0,0.0,0.0,0.0,0.0,0.0,0.0,0.0,0.0,0.0,0.0,0.0,0.0,0.0,0.0,0.0,0.0,0.0,0.0,0.0,0.0,0.0,0.0,0.0,0.0,0.0,0.0,0.0,0.0,0.0,0.0,0.0,0.0,0.0,0.0,0.0,0.0,0.0,0.0,0.0,0.0,0.0,0.0,0.0,0.0,0.0,0.0,0.0,0.0,0.0,0.0,0.0,0.0,0.0,0.0,0.0,0.0,0.0,0.0,0.0,0.0,0.0,0.0,0.0,0.0,0.0,0.0,0.0,0.0,0.0,0.0,0.0,0.0,0.0,0.0,0.0,0.0,0.0,0.0,0.0,0.0,0.0,0.0,0.0,0.0,0.0,0.0,0.0,0.0,0.0,0.0,0.0,0.0,0.0,0.0,0.0,0.0,0.0,0.0,0.0,0.0,0.0,0.0,0.0,0.0,0.0,1.6134,1.785,1.8937,1.9201,1.8566,1.5904,1.3512,0.0,0.0,0.0,0.0,0.0,0.0,0.0,0.0,0.0,0.0,0.0,0.0,0.0,0.0,0.0,0.0,0.0,0.0,0.0,0.0,0.0,0.0,0.0,0.0,0.0,0.0,0.0,0.0,0.0,0.0,0.0,0.0,0.0,0.0,0.0,0.0,0.0,0.0,0.0,0.0,0.0,0.0,0.0,0.0,0.0,0.0,0.0,0.0,0.0,0.0,0.0,0.0,0.0,0.0,0.0,0.0,0.0,0.0,0.0,0.0,0.0,0.0,0.0,0.0,0.0,0.0,0.0,0.0,0.0,0.0,0.0,0.0,0.0,0.0,0.0,0.0,0.0,0.0,0.0,0.0,0.0,0.0,0.0,0.0,0.0,0.0,0.0,0.0,0.0,0.0,0.0,0.0,0.0,0.0,0.0,0.0,0.0,0.0,0.0,0.0,0.0,0.0,0.0,0.0,0.0,0.0,0.0,0.0,1.6833,1.8557,1.936,1.9598,1.9209,1.6894,1.4758,0.0,0.0,0.0,0.0,0.0,0.0,0.0,0.0,0.0,0.0,0.0,0.0,0.0,0.0,0.0,0.0,0.0,0.0,0.0,0.0,0.0,0.0,0.0,0.0,0.0,0.0,0.0,0.0,0.0,0.0,0.0,0.0,0.0,0.0,0.0,0.0,0.0,0.0,0.0,0.0,0.0,0.0,0.0,0.0,0.0,0.0,0.0,0.0,0.7759,0.0,0.0,0.0,0.0,0.0,0.0,0.0,0.0,0.0,0.0,0.0,0.0,0.0,0.0,0.0,0.0,0.0,0.0,0.0,0.0,0.0,0.0,0.0,0.0,0.0,0.0,0.0,0.0,0.0,0.0,0.0,0.0,0.0,0.0,0.0,0.0,0.0,0.0,0.0,0.0,0.0,0.0,0.0,0.0,0.0,0.0,0.0,0.0,0.0,0.0,0.0,0.0,0.0,0.0,0.0,0.0,0.0,0.0,0.0,1.7397,1.8742,1.9511,1.9757,1.9344,1.7705,1.5844,0.0,0.0,0.0,0.0,0.0,0.0,0.0,0.0,0.0,0.0,0.0,0.0,0.0,0.0,0.0,0.0,0.0,0.0,0.0,0.0,0.0,0.0,0.0,0.0,0.0,0.0,0.0,0.0,0.0,0.0,0.0,0.0,0.0,0.0,0.0,0.0,0.0,0.0,0.0,0.0,0.0,0.0,0.0,0.0,0.0,0.0,0.0,0.0,0.0,0.0,0.0,0.0,0.0,0.0,0.0,0.0,0.0,0.0,0.0,0.0,0.0,0.0,0.0,0.0,0.0,0.0,0.0,0.0,0.0,0.0,0.0,0.0,0.0,0.0,0.0,0.0,0.0,0.0,0.0,0.0,0.0,0.0,0.0,0.0,0.0,0.0,0.0,0.0,0.0,0.0,0.0,0.0,0.0,0.0,0.0,0.0,0.0,0.0,0.0,0.0,0.0,0.0,0.0,0.0,0.0,0.0,0.0,1.646,1.7826,1.875,1.9463,1.9606,1.9209,1.8268,1.6583,1.4158,0.0,0.0,0.0,0.0,0.0,0.0,0.0,0.0,0.0,0.0,0.0,0.0,0.0,0.0,0.0,0.0,0.0,0.0,0.0,0.0,0.0,0.0,0.0,0.0,0.0,0.0,0.0,0.0,0.0,0.0,0.0,0.0,0.0,0.0,0.0,0.0,0.0,0.0,0.7874,0.8234,0.0,0.0,0.0,0.0,0.0,0.0,0.0,0.0,0.8389,0.0,0.0,0.0,0.0,0.0,0.0,0.0,0.0,0.0,0.0,0.0,0.0,0.0,0.0,0.0,0.0,0.0,0.0,0.0,0.0,0.0,0.0,0.0,0.0,0.0,0.0,0.0,0.0,0.0,0.0,0.0,0.0,0.0,0.0,0.0,0.0,0.0,0.0,0.0,0.0,0.0,0.0,0.0,0.0,0.0,0.0,0.0,0.0,0.0,0.0,0.0,0.0,0.0,0.0,0.0,0.0,1.5078,1.6851,1.8065,1.8765,1.9233,1.9137,1.8494,1.7755,1.6365,1.4194,0.0,0.0,0.0,0.0,0.0,0.0,0.0,0.0,0.0,0.0,0.0,0.0,0.0,0.0,0.0,0.0,0.0,0.0,0.0,0.0,0.0,0.0,0.0,0.0,0.0,0.0,0.0,0.0,0.0,0.0,0.0,0.0,0.0,0.0,0.0,0.0,0.0,0.0,0.0,0.9144,0.9418,0.0,0.0,0.0,0.0,0.0,0.0,0.0,0.0,0.8553,0.0,0.0,0.0,0.0,0.0,0.0,0.0,0.0,0.0,0.0,0.0,0.0,0.0,0.0,0.0,0.0,0.0,0.0,0.0,0.0,0.0,0.0,0.0,0.0,0.0,0.0,0.0,0.0,0.0,0.0,0.0,0.0,0.0,0.0,0.0,0.0,0.0,0.0,0.0,0.0,0.0,0.0,0.0,0.0,0.0,0.0,0.0,0.0,0.0,0.0,0.0,0.0,0.0,0.0,0.0,1.5449,1.7201,1.8303,1.8773,1.9185,1.8947,1.8041,1.7175,1.5737,0.0,0.0,0.0,0.0,0.0,0.0,0.0,0.0,0.0,0.0,0.0,0.0,0.0,0.0,0.0,0.0,0.0,0.0,0.0,0.0,0.0,0.0,0.0,0.0,0.0,0.0,0.0,0.0,0.0,0.0,0.0,0.0,0.0,0.0,0.0,0.0,0.0,0.0,0.0,0.0,0.9688,1.0136,1.0059,0.0,0.0,0.0,0.0,0.0,0.0,0.898,0.8805,0.0,0.0,0.0,0.0,0.0,0.0,0.0,0.0,0.0,0.0,0.0,0.0,0.0,0.0,0.0,0.0,0.0,0.0,0.0,0.0,0.0,0.0,0.0,0.0,0.0,0.0,0.0,0.0,0.0,0.0,0.0,0.0,0.0,0.0,0.0,0.0,0.0,0.0,0.0,0.0,0.0,0.0,0.0,0.0,0.0,0.0,0.0,0.0,0.0,0.0,0.0,0.0,0.0,0.0,0.0,1.5811,1.7469,1.8489,1.8866,1.916,1.8762,1.7682,1.6764,1.5309,0.0,0.0,0.0,0.0,0.0,0.0,0.0,0.0,0.0,0.0,0.0,0.0,0.0,0.0,0.0,0.0,0.0,0.0,0.0,0.0,0.0,0.0,0.0,0.0,0.0,0.0,0.0,0.0,0.0,0.0,0.0,0.0,0.0,0.0,0.0,0.0,0.0,0.0,0.0,0.0,0.0,1.0689,1.0682,1.0455,0.0,0.0,0.0,0.0,0.9141,0.931,0.0,0.0,0.0,0.0,0.0,0.0,0.0,0.0,0.0,0.0,0.0,0.0,0.0,0.0,0.0,0.0,0.0,0.0,0.0,0.0,0.0,0.0,0.0,0.0,0.0,0.0,0.0,0.0,0.0,0.0,0.0,0.0,0.0,0.0,0.0,0.0,0.0,0.0,0.0,0.0,0.0,0.0,0.0,0.0,0.0,0.0,0.0,0.0,0.0,0.0,0.0,0.0,0.0,0.0,0.0,0.0,1.6193,1.7638,1.8632,1.9109,1.896,1.8292,1.712,1.6806,1.5483,0.0,0.0,0.0,0.0,0.0,0.0,0.0,0.0,0.0,0.0,0.0,0.0,0.0,0.0,0.0,0.0,0.0,0.0,0.0,0.0,0.0,0.0,0.0,0.0,0.0,0.0,0.0,0.0,0.0,0.0,0.0,0.0,0.0,0.0,0.0,0.0,0.0,0.0,0.0,0.0,0.0,1.1019,1.1019,1.1012,1.0872,0.0,0.0,1.0411,1.0375,1.0432,0.0,0.0,0.0,0.0,0.0,0.0,0.0,0.0,0.0,0.0,0.0,0.0,0.0,0.0,0.0,0.0,0.0,0.0,0.0,0.0,0.0,0.0,0.0,0.0,0.0,0.0,0.0,0.0,0.0,0.0,0.0,0.0,0.0,0.0,0.0,0.0,0.0,0.0,0.0,0.0,0.0,0.0,0.0,0.0,0.0,0.0,0.0,0.0,0.0,0.0,0.0,0.0,0.0,0.0,0.0,1.4316,1.6431,1.7985,1.8939,1.9224,1.8945,1.839,1.7531,1.7025,1.5724,0.0,0.0,0.0,0.0,0.0,0.0,0.0,0.0,0.0,0.0,0.0,0.0,0.0,0.0,0.0,0.0,0.0,0.0,0.0,0.0,0.0,0.0,0.0,0.0,0.0,0.0,0.0,0.0,0.0,0.0,0.0,0.0,0.0,0.0,0.0,0.0,0.0,0.0,0.0,0.0,0.0,0.0,1.1107,1.1269,0.0,0.0,0.0,1.0726,1.0602,0.0,0.0,0.0,0.0,0.0,0.0,0.0,0.0,0.0,0.0,0.0,0.0,0.0,0.0,0.0,0.0,0.0,0.0,0.0,0.0,0.0,0.0,0.0,0.0,0.0,0.0,0.0,0.0,0.0,0.0,0.0,0.0,0.0,0.0,0.0,0.0,0.0,0.0,0.0,0.0,0.0,0.0,0.0,0.0,0.0,0.0,0.0,0.0,0.0,0.0,0.0,0.0,0.0,0.0,0.0,0.0,0.0,1.6802,1.8551,1.9411,1.9441,1.9142,1.8733,1.8079,1.7402,0.0,0.0,0.0,0.0,0.0,0.0,0.0,0.0,0.0,0.0,0.0,0.0,0.0,0.0,0.0,0.0,0.0,0.0,0.0,0.0,0.0,0.0,0.0,0.0,0.0,0.0,0.0,0.6546,0.0,0.0,0.0,0.0,0.0,0.0,0.0,0.0,0.0,0.0,0.0,0.0,0.0,0.0,1.1368,1.1458,1.1742,1.1816,0.0,0.0,1.1063,1.1011,1.0937,1.0522,0.0,0.0,0.0,0.0,0.0,0.0,0.0,0.0,0.0,0.0,0.0,0.0,0.0,0.0,0.0,0.0,0.0,0.0,0.0,0.0,0.0,0.0,0.0,0.0,0.0,0.0,0.0,0.0,0.0,0.0,0.0,0.0,0.0,0.0,0.0,0.0,0.0,0.0,0.0,0.0,0.0,0.0,0.0,0.0,0.0,0.0,0.0,0.0,0.0,0.0,0.0,0.0,0.0,0.0,0.0,1.7423,1.9347,2.0141,1.9778,1.9669,1.9282,1.8593,1.8073,1.6824,0.0,0.0,0.0,0.0,0.0,0.0,0.0,0.0,0.0,0.0,0.0,0.0,0.0,0.0,0.0,0.0,0.0,0.0,0.0,0.0,0.0,0.0,0.0,0.0,0.0,0.0,0.0,0.0,0.0,0.0,0.0,0.0,0.0,0.0,0.0,0.0,0.0,0.0,0.0,0.0,0.0,1.2125,1.2373,1.2695,1.2788,0.0,0.0,1.1693,1.2104,1.1805,1.1144,1.0034,0.0,0.0,0.0,0.0,0.0,0.0,0.0,0.0,0.0,0.0,0.0,0.0,0.0,0.0,0.0,0.0,0.0,0.0,0.0,0.0,0.0,0.0,0.0,0.0,0.0,0.0,0.0,0.0,0.0,0.0,0.0,0.0,0.0,0.0,0.0,0.0,0.0,0.0,0.0,0.0,0.0,0.0,0.0,0.0,0.0,0.0,0.0,0.0,0.0,0.0,0.0,0.0,0.0,1.5878,1.7971,1.985,2.0712,2.0434,2.0183,1.9964,1.9718,1.9266,1.8081,0.0,0.0,0.0,0.0,0.0,0.0,0.0,0.0,0.0,0.0,0.0,0.0,0.0,0.0,0.0,0.0,0.0,0.0,0.0,0.0,0.0,0.0,0.0,0.0,0.0,0.0,0.0,0.0,0.7673,0.7505,0.7263,0.0,0.0,0.0,0.0,0.0,0.0,0.0,0.0,0.0,0.0,1.2714,1.2818,1.3337,0.0,0.0,1.3369,1.328,1.2544,1.1961,1.1185,0.9898,0.8999,0.0,0.0,0.0,0.0,0.0,0.0,0.0,0.0,0.0,0.0,0.0,0.0,0.0,0.0,0.0,0.0,0.0,0.0,0.0,0.0,0.0,0.0,0.0,0.0,0.0,0.0,0.0,0.0,0.0,0.0,0.0,0.0,0.0,0.0,0.0,0.0,0.0,0.0,0.0,0.0,0.0,0.0,0.0,0.0,0.0,0.0,0.0,0.0,0.0,0.0,0.0,0.0,1.6175,1.8351,2.0141,2.1006,2.0837,2.0674,2.0514,2.0337,1.9946,1.8876,0.0,0.0,0.0,0.0,0.0,0.0,0.0,0.0,0.0,0.0,0.0,0.0,0.0,0.0,0.0,0.0,0.0,0.0,0.0,0.0,0.0,0.0,0.0,0.0,0.0,0.0,0.0,0.0,0.8225,0.7976,0.7804,0.0,0.0,0.0,0.0,0.0,0.0,0.0,0.0,0.0,0.0,1.36,1.3485,1.4114,1.4407,1.3882,1.4364,1.4315,1.2978,1.2277,1.1459,1.0198,0.0,0.0,0.0,0.0,0.0,0.0,0.0,0.0,0.0,0.0,0.0,0.0,0.0,0.0,0.0,0.0,0.0,0.0,0.0,0.0,0.0,0.0,0.0,0.0,0.0,0.0,0.0,0.0,0.0,0.0,1.2276,0.0,0.0,0.0,0.0,0.0,0.0,0.0,0.0,0.0,0.0,0.0,0.0,0.0,0.0,0.0,0.0,0.0,0.0,0.0,0.0,0.0,0.0,1.6038,1.8476,2.0206,2.1031,2.0925,2.1095,2.0869,2.0246,1.9936,1.8973,1.722,0.0,0.0,0.0,0.0,0.0,0.0,0.0,0.0,0.0,0.0,0.0,0.0,0.0,0.0,0.0,0.0,0.0,0.0,0.0,0.0,0.0,0.0,0.0,0.0,0.0,0.0,0.9535,0.9023,0.8678,0.0,0.0,0.0,0.0,0.0,0.0,0.0,0.0,0.0,0.0,1.3941,1.4919,1.4506,1.5081,1.5278,1.4572,1.4684,1.4477,1.3509,1.2854,1.2122,0.0,0.0,0.0,0.0,0.0,0.0,0.0,0.0,0.0,0.0,0.0,0.0,0.0,0.0,0.0,0.0,0.0,0.0,0.0,0.0,0.0,0.0,0.0,0.0,0.0,0.0,0.0,1.4857,1.4546,0.0,0.0,0.0,0.0,0.0,0.0,0.0,0.0,0.0,0.0,0.0,1.7957,1.7812,0.0,0.0,0.0,0.0,0.0,0.0,0.0,0.0,0.0,0.0,0.0,0.0,1.6382,1.8426,2.0206,2.107,2.1043,2.111,2.1022,2.0791,2.014,1.866,1.6284,0.0,0.0,0.0,0.0,0.0,0.0,0.0,0.0,0.0,0.0,0.0,0.0,0.0,0.0,0.0,0.0,0.0,0.0,0.0,0.0,0.0,0.0,0.0,0.0,0.0,0.9906,0.0,0.0,0.0,0.0,0.0,0.0,0.0,0.0,0.0,0.0,0.0,1.2314,1.3232,1.4459,1.5251,1.5098,1.559,1.5715,0.0,0.0,0.0,0.0,0.0,0.0,0.0,0.0,0.0,0.0,0.0,0.0,0.0,0.0,1.1089,1.0723,1.0201,0.9561,0.8799,0.0,0.0,0.0,0.0,0.0,0.0,0.0,0.0,0.0,0.0,0.0,0.0,0.0,0.0,1.6684,0.0,1.588,0.0,0.0,0.0,0.0,0.0,0.0,0.0,0.0,1.9365,1.9789,1.9803,1.9613,1.9375,0.0,1.894,1.7885,0.0,0.0,0.0,0.0,0.0,0.0,0.0,0.0,1.657,1.8393,2.0027,2.0839,2.0886,2.1031,2.0959,2.0638,1.9793,1.8331,1.6218,1.5277,1.4231,0.0,0.0,0.0,0.0,0.0,0.0,0.0,0.0,0.0,0.0,0.0,0.0,0.0,0.0,0.0,0.0,0.0,0.0,0.0,0.0,0.0,0.0,0.0,1.0546,0.0,0.0,0.0,0.0,0.0,0.0,0.0,0.0,0.0,1.0916,1.223,1.3468,1.4209,1.5342,1.6045,1.5859,0.0,0.0,0.0,0.0,0.0,0.0,0.0,1.3344,1.2545,1.2191,1.2032,1.221,1.2307,1.258,1.3179,0.0,0.0,1.2325,1.1739,1.1115,1.0384,1.0017,0.9635,0.8959,0.9015,0.9143,0.0,0.0,0.0,0.0,0.0,0.0,0.0,0.0,1.7864,1.7874,0.0,1.7368,0.0,0.0,0.0,0.0,0.0,1.7358,0.0,0.0,2.07,2.1098,2.1093,2.0633,2.0426,2.042,1.9975,1.9544,1.8942,1.6848,0.0,0.0,0.0,0.0,0.0,0.0,1.662,1.835,1.9717,2.0374,2.0374,2.0834,2.0627,1.9772,1.8858,1.7968,1.7027,1.6167,1.5277,1.432,1.2608,0.0,0.0,0.0,0.0,0.0,0.0,0.0,0.0,0.0,0.0,0.0,0.0,0.0,0.0,0.0,0.0,0.0,0.0,0.0,0.0,1.1085,0.0,0.0,0.0,0.0,0.0,0.0,0.0,0.0,0.0,0.0,1.2551,1.3985,1.5156,1.5235,0.0,0.0,0.0,0.0,1.6687,1.6687,1.6697,1.6354,1.538,1.5108,1.4735,1.3818,0.0,0.0,1.4064,1.4015,1.4078,1.4448,1.4416,1.4266,1.3955,1.3329,1.2679,1.2122,1.172,1.1261,1.0462,1.0156,1.0085,2.1093,0.0,0.0,0.0,0.0,1.9323,1.9682,2.0137,2.0493,2.0612,2.056,1.9765,0.0,0.0,0.0,0.0,0.0,0.0,1.9772,2.0741,2.1342,2.1611,2.16,2.1466,2.1201,2.0907,2.0452,1.9831,1.9077,1.8113,1.6786,1.5101,0.0,0.0,0.0,0.0,1.6941,1.8383,1.945,1.999,1.999,2.0114,1.9741,1.8839,1.8548,1.7957,1.7048,1.6487,1.5753,1.4821,1.3328,0.0,0.0,0.0,0.0,0.0,0.0,0.0,0.0,0.0,0.0,0.0,0.0,0.0,0.0,0.0,0.0,0.0,0.0,0.0,1.1116,1.2006,1.2234,0.0,0.0,0.0,0.0,0.0,0.0,0.0,0.0,0.0,1.5012,1.5478,1.5905,0.0,0.0,1.6843,1.6716,1.6697,1.6697,1.6697,1.6697,0.0,1.5937,1.5809,1.5701,1.5429,1.5468,1.5576,1.5564,1.5372,1.5228,1.5346,1.5305,1.519,1.4778,1.4068,1.3398,1.2956,1.2369,1.1708,1.1139,1.0784,1.0587,2.2801,2.1694,2.0607,2.042,2.0902,2.1135,2.1518,2.1952,2.2242,2.2356,2.2304,2.1569,2.0638,1.9551,1.8475,0.0,0.0,0.0,2.042,2.1135,2.159,2.1807,2.1807,2.1807,2.1662,2.1373,2.0881,2.0292,1.9603,1.9181,1.8227,1.6786,0.0,0.0,1.6208,1.6498,1.7212,1.8393,1.9326,1.971,1.9533,1.9336,1.8868,1.8164,1.8123,1.7792,1.7048,1.6748,1.6218,1.5297,1.4128,1.3029,0.0,0.0,0.0,0.0,0.0,0.0,0.0,0.0,0.0,0.0,0.0,0.8678,0.9082,0.0,0.0,0.0,1.0539,1.1323,1.2037,1.3093,0.0,0.0,0.0,0.0,0.0,0.0,0.0,1.5114,1.5791,1.6357,1.6809,1.6868,1.6875,1.6982,1.7106,1.7236,1.7204,0.0,1.7213,1.7213,1.7204,1.708,1.6692,1.6613,1.6582,1.6519,1.6469,1.6481,1.6567,1.6364,1.6175,1.6147,1.5909,1.5615,1.5377,1.462,1.3985,1.3781,1.3251,1.2599,1.191,1.1539,1.1176,2.3929,2.3826,2.2553,2.2221,2.2553,2.2594,2.2842,2.3246,2.3277,2.3298,2.3256,2.2811,2.1859,2.0478,1.923,0.0,1.9969,2.0348,2.0772,2.1186,2.1611,2.1807,2.1807,2.1807,2.1807,2.1787,2.1342,2.0839,2.0374,1.9965,1.9347,1.8455,1.7201,1.6746,1.7089,1.712,1.7544,1.8465,1.9305,1.9513,1.9023,1.859,1.8123,1.7668,1.7647,1.7409,1.6904,1.6903,1.65,1.5659,1.479,1.391,1.2987,0.0,0.0,0.0,0.0,0.0,0.0,0.0,0.0,0.0,0.0,0.0,0.0,0.0,0.0,0.0,1.1643,0.0,1.3018,1.4314,0.0,0.0,0.0,1.5089,1.5539,1.5704,1.6128,1.6953,0.0,0.0,1.7959,1.8008,1.7871,1.748,1.7764,1.8008,1.8008,1.7978,1.8008,1.7959,1.7988,1.7861,1.7451,1.7393,1.7317,1.7166,1.6973,1.6906,1.7114,1.7001,1.6899,1.6789,1.623,1.5698,1.5652,1.501,1.4543,1.4476,1.4197,1.367,1.2755,1.2294,1.1815,2.4342,2.4311,2.3991,2.3557,2.306,2.3401,2.3608,2.3784,2.4084,2.4177,2.4135,2.3743,2.2977,2.1973,2.13,2.1114,2.1331,2.1435,2.1538,2.1652,2.1756,2.1807,2.1807,2.1807,2.1807,2.1776,2.1304,2.0839,2.042,2.001,1.9502,1.8932,1.8268,1.7957,1.8061,1.8061,1.833,1.8932,1.916,1.9046,1.8579,1.8112,1.7637,1.7192,1.7182,1.68,1.6042,1.6011,1.5742,1.5183,1.4614,1.402,1.3452,1.2492,0.0,0.0,0.0,0.0,0.0,0.0,0.0,0.0,0.0,1.0084,1.052,0.0,1.1426,0.0,1.302,1.4003,1.4469,1.5432,0.0,0.0,1.5897,1.6038,1.6459,1.6608,1.6862,1.7387,1.7687,1.79,1.7998,1.8008,1.7935,1.7871,1.7949,1.8008,1.8008,1.8008,1.8008,1.8008,1.8008,1.7969,1.7871,1.7707,1.7629,1.7562,1.729,1.7133,1.7182,1.7038,1.6807,1.6498,1.6288,1.5945,1.5368,1.5065,1.4854,1.4568,1.4159,1.3725,1.3192,1.2741,1.2176,2.4507,2.4507,2.4507,2.4208,2.3805,2.4064,2.4178,2.4198,2.4394,2.4507,2.4476,2.4074,2.3598,2.3091,2.2625,2.2418,2.2408,2.2211,2.2108,2.2097,2.1911,2.1807,2.1807,2.1807,2.1807,2.1797,2.1331,2.0876,2.042,2.001,1.9554,1.9108,1.8849,1.8725,1.8714,1.8517,1.8538,1.8787,1.8568,1.8247,1.7802,1.7513,1.7172,1.6738,1.6539,1.6198,1.5701,1.5548,1.5399,1.518,1.4729,1.4373,1.4077,1.3254,1.2215,0.0,0.0,0.0,0.0,0.0,0.0,0.0,0.0,0.0,0.0,0.0,1.3095,1.3748,1.4505,1.5194,1.5846,1.6726,1.7294,1.7304,1.742,1.7575,1.7822,1.7718,1.7743,1.7982,1.7986,1.8008,1.8008,1.8008,1.8008,1.8008,1.8008,1.8008,1.8008,1.8008,1.8008,1.8008,1.8008,1.8008,1.8008,1.7906,1.7784,1.7623,1.7461,1.7279,1.7107,1.6968,1.678,1.6361,1.6166,1.5845,1.523,1.4937,1.4723,1.4538,1.4237,1.3878,1.3467,1.3324,1.3,2.4507,2.4507,2.4507,2.4507,2.4507,2.4507,2.4507,2.4507,2.4507,2.4507,2.4476,2.4126,2.3971,2.3939,2.3546,2.3329,2.3246,2.2791,2.2563,2.247,2.2014,2.1807,2.1807,2.1807,2.1807,2.1787,2.1393,2.0928,2.042,2.0107,1.9685,1.9218,1.9198,1.9241,1.921,1.8834,1.8499,1.8299,1.7864,1.742,1.7017,1.6925,1.6717,1.6301,1.5898,1.5628,1.5542,1.529,1.5168,1.5263,1.49,1.4662,1.464,1.382,1.2947,0.0,1.2153,0.0,0.0,0.0,0.0,0.0,0.0,0.0,0.0,1.3952,1.4842,1.5701,1.5887,1.6291,1.711,1.7968,1.8464,1.8517,1.8859,1.9098,1.9098,1.8751,1.8482,1.8482,1.8212,1.8008,1.8008,1.8057,1.8086,1.8037,1.8086,1.8096,1.8018,1.8008,1.8008,1.8008,1.8008,1.8008,1.8008,1.7974,1.7828,1.7598,1.7461,1.7358,1.7003,1.6934,1.6762,1.6321,1.5945,1.5551,1.512,1.4735,1.4504,1.4494,1.4387,1.4165,1.3765,1.3922,1.3891,2.4507,2.4507,2.4507,2.4507,2.4507,2.4507,2.4507,2.4507,2.4507,2.4507,2.4497,2.4414,2.4383,2.4405,2.428,2.4084,2.3764,2.3267,2.2863,2.248,2.2025,2.1807,2.1807,2.1807,2.1807,2.1807,2.1725,2.1312,2.0634,2.0748,2.0421,1.9758,1.9857,1.9901,1.9911,0.0,0.0,0.0,1.7378,1.7099,1.7006,1.6684,1.6319,1.5835,1.5742,0.0,1.4614,1.4727,1.4729,1.4597,1.4488,0.0,0.0,0.0,0.0,0.0,0.0,0.0,0.0,0.0,0.0,0.0,1.5386,1.5423,1.4555,1.5049,1.5659,1.6198,1.6912,1.7523,1.8071,1.8609,1.8973,1.8973,1.9056,1.9098,1.9098,1.8741,1.8482,1.8482,1.8221,1.8008,1.8047,1.8266,1.8344,1.8125,1.8276,1.8325,1.8066,1.8018,1.8008,1.8008,1.8008,1.8008,1.8008,1.7862,1.7784,1.7647,1.7407,1.7235,1.7176,1.7003,1.6633,1.5982,1.5744,1.546,1.4772,1.4561,1.4485,1.4485,1.4485,1.4388,1.4131,1.4307,1.4393,2.4507,0.0,2.4507,2.4507,0.0,2.4507,2.4507,2.4507,2.4507,2.4507,2.4507,2.4507,2.4507,2.4507,2.4507,2.4373,2.4178,2.3494,2.306,2.2801,2.2128,2.1807,2.1807,2.1807,2.1807,2.1797,2.1569,2.1261,2.0878,2.088,2.0704,2.0226,2.0484,2.0581,2.057,2.0219,1.9334,1.7966,1.7195,1.6792,1.6705,1.6487,1.6299,1.607,0.0,0.0,0.0,0.0,0.0,0.0,0.0,0.0,0.0,0.0,0.0,1.4112,1.4553,1.4722,1.4496,1.5375,1.6052,1.6275,1.7182,1.7296,1.6208,1.6252,1.6643,1.7335,1.7792,1.8237,1.8704,1.8973,1.9098,1.9098,1.9098,1.9098,1.9065,1.8751,1.8482,1.8482,1.8202,1.8042,1.8256,1.8451,1.8617,1.8633,1.8588,1.8529,1.8315,1.8144,1.8008,1.8008,1.8008,1.8008,1.8008,1.793,1.7784,1.7706,1.7569,1.7407,1.7235,1.7097,1.6779,1.5923,1.5689,1.5432,1.4687,1.4485,1.4485,1.4485,1.4485,1.4471,1.4394,1.4764,1.5027,2.4507,2.4507,2.4507,2.4507,2.4507,2.4507,2.4507,2.4507,0.0,0.0,0.0,2.4507,2.4507,2.4507,2.4507,2.454,2.452,2.367,2.3346,2.3293,2.2425,2.1987,2.2035,2.2035,2.2025,2.1977,2.1601,2.136,2.1196,2.1155,2.0986,2.0807,2.106,2.123,2.1164,2.0455,1.9527,1.8443,1.736,1.6675,1.6413,1.6402,1.6343,1.626,1.606,1.5791,1.5517,1.5546,1.5739,1.6148,1.5765,1.5719,1.6137,1.5753,1.5556,1.5613,1.6068,1.6287,1.6299,1.6799,1.731,1.7795,1.858,1.8669,1.7744,1.751,1.7738,1.8511,1.8647,1.8878,1.9222,1.9297,1.9264,1.9241,1.9198,1.9175,1.9142,1.8785,1.8482,1.8448,1.8212,1.8091,1.8412,1.8627,1.8792,1.9053,1.888,1.8627,1.8481,1.8213,1.8008,1.8008,1.8008,1.8008,1.8008,1.8008,1.793,1.7818,1.7706,1.7604,1.7373,1.7235,1.6806,1.5933,1.573,1.5359,1.4677,1.4485,1.4485,1.4485,1.4485,1.4485,1.4549,1.5139,1.5538,2.4507,2.4507,2.4507,2.4507,2.4507,2.4507,2.4507,2.4507,2.4507,2.4507,2.4507,2.4507,2.4507,2.4507,2.4507,2.4615,2.4798,2.4039,2.3788,2.3934,2.3183,2.2852,2.2852,2.2815,2.2815,2.2804,2.2728,2.2469,2.203,2.2207,2.1999,2.1397,2.1526,2.162,2.1542,2.0943,2.022,1.9495,1.8141,1.7106,1.6413,1.6402,1.6216,1.5832,1.5995,1.5988,1.5847,1.628,1.6755,1.7231,1.7195,1.7219,1.7255,1.7183,1.7183,1.7195,1.7627,1.7876,1.7802,1.8343,1.8919,1.9383,1.9586,1.9296,1.8382,1.8758,1.9109,1.9271,1.9619,1.989,1.9933,1.9977,1.9922,1.9769,1.9638,1.9473,1.9308,1.8818,1.8482,1.8482,1.8212,1.8018,1.8193,1.875,1.9062,1.8887,1.9014,1.8936,1.8301,1.8047,1.8008,1.8008,1.8008,1.8008,1.8008,1.8008,1.7974,1.7974,1.7818,1.7706,1.7613,1.7407,1.6945,1.6113,1.5836,1.5409,1.468,1.4485,1.4485,1.4485,1.4485,1.4494,1.4561,1.5175,1.568,2.4507,2.4507,2.4507,2.4507,2.4507,2.4507,2.4507,2.4507,2.4507,2.4507,2.4507,2.4507,2.4507,2.4507,2.4507,2.4711,2.5031,2.4373,2.4263,2.4513,2.3906,2.3596,2.3596,2.3585,2.3596,2.3585,2.3279,2.301,2.2673,2.2698,2.2412,2.1867,2.1925,2.1963,2.1896,2.1644,2.1074,2.0187,1.882,1.7679,1.6857,1.6835,1.6729,1.6516,1.683,1.6888,1.6714,1.7164,1.7645,1.813,1.7836,1.7812,1.813,1.7836,1.7812,1.8118,1.8312,1.8529,1.8783,1.9332,1.9745,1.9989,2.0548,2.0663,2.0188,2.0,2.0048,2.0306,2.0522,2.0645,2.0645,2.0645,2.0549,2.0291,2.0031,1.9758,1.944,1.8875,1.8482,1.8448,1.8202,1.8096,1.8295,1.8896,1.9346,1.926,1.9355,1.8955,1.8144,1.8008,1.8008,1.8008,1.8008,1.8008,1.8008,1.8008,1.8008,1.8008,1.793,1.7818,1.775,1.7545,1.7058,1.6225,1.5923,1.5503,1.4692,1.4485,1.4485,1.4485,1.4485,1.457,1.4836,1.5469,1.5957,2.4507,2.4507,2.4507,2.4507,2.4507,2.4507,2.4507,2.4507,2.4507,2.4507,2.4507,2.4507,2.454,2.4583,2.4615,2.4956,2.5314,2.4836,2.4871,2.522,2.4676,2.4373,2.4373,2.4373,2.4373,2.4315,2.3827,2.349,2.3301,2.3042,2.2666,2.2246,2.2197,2.2173,2.2125,2.2192,2.1735,2.073,1.9586,1.8493,1.7451,1.7401,1.7401,1.7429,1.7717,1.7836,1.7787,1.8102,1.8526,1.8895,1.8511,1.8474,1.8883,1.8487,1.845,1.8883,1.8895,1.9104,1.9673,2.019,2.0548,2.0683,2.1449,2.192,2.1883,2.1373,2.1101,2.1318,2.1325,2.1356,2.1356,2.1356,2.123,2.0901,2.066,2.0325,1.9834,1.9202,1.8718,1.858,1.8236,1.8135,1.8486,1.8965,1.9365,1.959,1.9404,1.8838,1.8184,1.8008,1.8008,1.8008,1.8008,1.8008,1.8008,1.8008,1.8008,1.8008,1.8008,1.793,1.7818,1.775,1.7312,1.6406,1.6092,1.5651,1.4868,1.4565,1.4565,1.4565,1.4618,1.4827,1.534,1.5812,1.6245,2.4507,2.4507,2.4507,2.4507,2.4507,2.4507,2.4507,2.4507,2.4507,2.4507,2.4497,2.4507,2.4658,2.4861,2.5073,2.5485,2.6014,2.5645,2.5747,2.6039,2.5479,2.5206,2.5206,2.5194,2.5194,2.5122,2.4608,2.4172,2.389,2.3494,2.2931,2.2277,2.2197,2.2173,2.2204,2.2297,2.1945,2.1083,2.073,1.9749,1.8134,1.8011,1.8023,1.805,1.8294,1.8578,1.8773,1.9111,1.9412,1.9646,1.9635,1.9597,1.9672,1.9635,1.9647,1.9685,1.9672,1.9961,2.0525,2.1064,2.1562,2.2067,2.2147,2.2447,2.2855,2.2857,2.261,2.2235,2.2092,2.2092,2.2092,2.2092,2.1968,2.1702,2.1666,2.1379,2.0522,1.9954,1.9438,1.8805,1.8367,1.8037,1.8174,1.8769,1.9248,1.9316,1.9033,1.8568,1.8125,1.8008,1.8008,1.8008,1.8008,1.8008,1.8008,1.8008,1.8008,1.8008,1.8008,1.7974,1.793,1.776,1.7403,1.659,1.6218,1.5801,1.5193,1.4813,1.4686,1.4775,1.4964,1.5285,1.5964,1.6276,1.6335,2.4507,2.4507,2.4507,2.4507,2.4507,2.4507,2.4507,2.4507,2.4507,2.4583,2.4743,2.4861,2.4988,2.5115,2.539,2.5823,2.6318,2.6329,2.6358,2.6456,2.6159,2.6037,2.6025,2.599,2.6025,2.5904,2.5126,2.4596,2.4327,2.349,2.2677,2.2204,2.2173,2.2185,2.2168,2.242,2.2314,2.1823,2.1728,2.1026,1.973,1.897,1.8617,1.8655,1.8842,1.9028,1.9237,1.942,1.9604,1.9773,1.9798,1.9798,1.9798,1.9798,1.9798,1.9823,2.0151,2.0591,2.1144,2.1669,2.2071,2.2309,2.2594,2.2882,2.307,2.3095,2.2987,2.2775,2.2714,2.2726,2.2726,2.2726,2.2758,2.2727,2.2651,2.2329,2.1854,2.0883,2.0122,1.9625,1.8734,1.8168,1.8256,1.8595,1.8867,1.8896,1.8685,1.8422,1.8086,1.8008,1.8008,1.8008,1.8008,1.8008,1.8008,1.8008,1.8008,1.8008,1.8008,1.8008,1.7935,1.7687,1.728,1.6625,1.6239,1.5773,1.5123,1.4979,1.4899,1.5091,1.5508,1.5955,1.6233,1.6505,1.6578,2.4507,2.4507,2.4507,2.4507,2.4507,2.4507,2.4507,2.4507,2.4507,2.4668,2.4988,2.5274,2.5516,2.5779,2.6049,2.6348,2.6669,2.6888,2.6895,2.6708,2.6564,2.6487,2.6487,2.6487,2.6487,2.6336,2.5511,2.4863,2.4499,2.3375,2.2592,2.2322,2.2297,2.2328,2.2292,2.2592,2.2605,2.2343,2.2322,2.1845,2.0886,1.9966,1.9409,1.9237,1.9317,1.9422,1.9486,1.9617,1.9682,1.9798,1.9798,1.9798,1.9811,1.9949,2.0138,2.03,2.083,2.128,2.1694,2.2221,2.2506,2.2531,2.2895,2.3095,2.3095,2.3095,2.3095,2.3065,2.3095,2.3078,2.3095,2.3095,2.3174,2.3312,2.3281,2.3134,2.2476,2.1609,2.0915,2.0103,1.9028,1.8431,1.8404,1.8429,1.8471,1.8598,1.85,1.8344,1.8096,1.8008,1.8008,1.8008,1.8008,1.8008,1.8008,1.8008,1.8008,1.8008,1.8008,1.7959,1.792,1.7607,1.7168,1.6595,1.6152,1.5784,1.533,1.5184,1.5368,1.5651,1.6053,1.6382,1.6505,1.6734,1.6784,2.4507,2.4507,2.4507,2.4507,2.4507,2.4507,2.4507,2.4507,2.4507,2.4743,2.5189,2.5589,2.6246,2.7051,2.711,2.7168,2.7272,2.7368,2.7213,2.6911,2.6646,2.6487,2.6487,2.6487,2.6487,2.6436,2.5812,2.5021,2.4079,2.3281,2.2818,2.2678,2.2678,2.2678,2.2678,2.2818,2.2708,2.2406,2.2385,2.2046,2.1481,2.0928,2.0348,1.9834,1.9759,1.9747,1.9785,1.9785,1.9798,1.9798,1.9798,1.9798,1.9836,2.0339,2.0842,2.1355,2.1882,2.2209,2.2322,2.2732,2.302,2.3045,2.3058,2.3095,2.3095,2.3095,2.3095,2.3095,2.3145,2.317,2.3158,2.3133,2.3097,2.3095,2.3688,2.3417,2.2194,2.2309,2.1576,2.0258,1.925,1.8694,1.8546,1.8252,1.8247,1.8383,1.8256,1.8047,1.8037,1.8008,1.8008,1.8008,1.8008,1.8008,1.8008,1.8008,1.8008,1.8008,1.7978,1.791,1.7754,1.7529,1.7031,1.6592,1.6239,1.5897,1.5595,1.566,1.5992,1.6256,1.6417,1.6661,1.6791,1.686,1.6874,2.4507,2.4507,2.4507,2.4507,2.4507,2.4507,2.4507,2.4507,2.4507,2.4828,2.5443,2.5977,2.6753,2.7597,2.7798,2.7731,2.744,2.7384,2.7115,2.6721,2.654,2.6487,2.6487,2.6487,2.6487,2.6411,2.5896,2.5046,2.4042,2.3353,2.3,2.2969,2.2969,2.2957,2.2957,2.3,2.2935,2.2802,2.2807,2.2543,2.2058,2.182,2.1305,2.0427,1.9987,1.9798,1.9798,1.9798,1.9798,1.9798,1.9798,1.9798,1.9849,2.0377,2.1106,2.1895,2.2209,2.2431,2.2769,2.2995,2.3095,2.3095,2.3095,2.312,2.3095,2.3095,2.3095,2.317,2.3471,2.3665,2.3572,2.3333,2.324,2.3585,2.3873,2.3924,2.3417,2.3045,2.2358,2.1216,1.9962,1.8822,1.837,1.8096,1.8042,1.8184,1.8105,1.8027,1.8008,1.8008,1.8008,1.8008,1.8008,1.8008,1.8008,1.8008,1.8008,1.8008,1.7988,1.7969,1.7861,1.7393,1.6894,1.6582,1.625,1.6094,1.5868,1.6282,1.6632,1.6764,1.6935,1.6964,1.707,1.7038,1.6978,2.4507,2.4507,2.4507,2.4507,2.4507,2.4507,2.4507,2.4507,2.4507,2.4914,2.5664,2.6404,2.7082,2.7743,2.8092,2.7953,2.7446,2.7324,2.6979,2.6537,2.6487,2.6487,2.6487,2.6487,2.6487,2.6399,2.5908,2.5121,2.4293,2.3659,2.3296,2.3078,2.3095,2.3095,2.3095,2.3095,2.3095,2.3095,2.3095,2.2907,2.2581,2.2573,2.2217,2.1493,2.074,2.0176,1.9836,1.9798,1.9798,1.9798,1.9798,1.9962,2.0338,2.0742,2.1446,2.241,2.2556,2.2706,2.3032,2.3095,2.3095,2.312,2.3296,2.3384,2.3396,2.3534,2.3634,2.3747,2.3973,2.4268,2.4192,2.3885,2.381,2.4217,2.4418,2.4429,2.4336,2.3961,2.3087,2.1705,2.0226,1.905,1.8337,1.8221,1.8187,1.8144,1.8144,1.8173,1.8277,1.8178,1.812,1.8154,1.8086,1.8027,1.8008,1.8018,1.8008,1.8008,1.7998,1.7988,1.7832,1.7282,1.6882,1.656,1.6406,1.6289,1.6463,1.6896,1.7131,1.7244,1.7317,1.7347,1.7304,1.721,1.7151,2.4507,2.4507,2.4507,2.4497,2.454,2.4593,2.455,2.4583,2.4572,2.5137,2.601,2.6764,2.7352,2.7717,2.8002,2.7809,2.7371,2.7243,2.6964,2.6524,2.6487,2.6487,2.6487,2.6487,2.6487,2.6461,2.5875,2.5335,2.482,2.4173,2.3678,2.3221,2.312,2.3095,2.3095,2.3095,2.3095,2.3095,2.3095,2.3083,2.3095,2.3032,2.2982,2.2832,2.2008,2.1004,1.9949,1.9836,1.9823,1.9849,1.9861,2.0351,2.1242,2.1509,2.197,2.2844,2.3083,2.312,2.3145,2.317,2.3208,2.3258,2.3647,2.3904,2.3941,2.4356,2.4612,2.46,2.4713,2.482,2.482,2.48,2.475,2.4813,2.5059,2.5081,2.4768,2.4851,2.4095,2.1832,2.0412,1.9383,1.8795,1.8711,1.8775,1.8775,1.8758,1.8831,1.8954,1.874,1.8503,1.8472,1.8266,1.8047,1.8027,1.8018,1.8008,1.8008,1.7998,1.7969,1.7822,1.7432,1.7139,1.6846,1.6885,1.6787,1.6885,1.7278,1.7469,1.7562,1.7614,1.7613,1.751,1.7382,1.7323,2.4507,2.4507,2.4507,2.4625,2.4786,2.4903,2.5031,2.5211,2.538,2.5895,2.6633,2.7296,2.7687,2.7888,2.8052,2.7808,2.7304,2.6952,2.665,2.6512,2.6487,2.6487,2.6487,2.6487,2.6487,2.6399,2.5862,2.5523,2.5209,2.4443,2.3891,2.3703,2.3296,2.3108,2.3095,2.3095,2.3095,2.3095,2.3095,2.3095,2.3095,2.3108,2.3108,2.307,2.2744,2.2108,2.1029,2.0225,2.0024,2.039,2.0427,2.0903,2.1807,2.2029,2.2368,2.3032,2.3496,2.3728,2.3728,2.3715,2.3678,2.3753,2.3904,2.3979,2.4042,2.4544,2.4845,2.4895,2.5134,2.536,2.541,2.577,2.5598,2.4876,2.4958,2.5076,2.4886,2.4583,2.3661,2.2372,2.1449,2.0676,1.9942,1.983,2.002,2.0062,2.0139,2.0202,1.9959,1.9534,1.9179,1.9082,1.8595,1.8208,1.8277,1.8198,1.8042,1.8008,1.7998,1.7988,1.7822,1.7666,1.7373,1.7217,1.7256,1.7314,1.7422,1.7588,1.7735,1.7765,1.7765,1.7716,1.7657,1.7588,1.7529,2.4507,2.4507,2.4507,2.47,2.5031,2.5316,2.56,2.5863,2.6207,2.6652,2.7278,2.7822,2.8056,2.8092,2.8126,2.7795,2.7243,2.6738,2.6487,2.6487,2.6487,2.6487,2.6487,2.6487,2.6487,2.6436,2.6122,2.5799,2.5548,2.4757,2.4205,2.3941,2.3384,2.3095,2.3095,2.3095,2.3095,2.3095,2.3095,2.3095,2.3145,2.3321,2.3421,2.3396,2.3221,2.2757,2.2071,2.1016,2.0489,2.0717,2.0867,2.1418,2.2221,2.2322,2.2531,2.3045,2.3409,2.3665,2.3678,2.3584,2.3678,2.3728,2.4067,2.4305,2.4443,2.4946,2.541,2.5485,2.5724,2.5912,2.6009,2.6235,2.6135,2.5548,2.5485,2.5435,2.5344,2.4892,2.4174,2.3259,2.2476,2.1614,2.0985,2.0809,2.1085,2.1118,2.1266,2.1317,2.092,2.0361,2.0027,1.9623,1.9081,1.8818,1.8714,1.8453,1.8139,1.8042,1.8008,1.8008,1.793,1.7832,1.7627,1.7539,1.7529,1.7529,1.7617,1.7783,1.7935,1.793,1.7896,1.7862,1.7828,1.7803,1.7735,2.4497,2.454,2.454,2.4871,2.5316,2.5746,2.6174,2.6588,2.6999,2.7447,2.7891,2.8343,2.8448,2.8333,2.825,2.7896,2.7304,2.6851,2.6562,2.6512,2.6487,2.6487,2.6487,2.6487,2.6487,2.6474,2.6449,2.6185,2.5724,2.5146,2.4562,2.4092,2.3565,2.3133,2.312,2.3095,2.3095,2.3095,2.3095,2.3095,2.312,2.3559,2.3916,2.3916,2.3471,2.3145,2.2819,2.1983,2.1255,2.0955,2.1368,2.1907,2.2284,2.2372,2.2631,2.3083,2.3133,2.3258,2.3208,2.3346,2.3384,2.3534,2.4236,2.4825,2.4926,2.5707,2.6273,2.6298,2.6373,2.6436,2.6424,2.6474,2.6436,2.6474,2.6298,2.6311,2.6399,2.5802,2.5062,2.43,2.3342,2.2365,2.1751,2.173,2.181,2.1811,2.2048,2.2214,2.1905,2.1489,2.0868,2.0421,2.0135,1.9646,1.9606,1.9103,1.8725,1.8316,1.8262,1.8252,1.8076,1.7939,1.7891,1.7812,1.7754,1.7754,1.7803,1.7939,1.8008,1.7974,1.7974,1.8008,1.7974,1.7906,1.7872,2.4615,2.4818,2.4946,2.5359,2.5988,2.6558,2.708,2.7487,2.7955,2.8275,2.8554,2.8831,2.8784,2.8548,2.8625,2.821,2.748,2.7153,2.6839,2.6537,2.6487,2.6487,2.6487,2.6487,2.6487,2.6487,2.6487,2.6424,2.6235,2.5674,2.5121,2.4562,2.4042,2.3509,2.3183,2.3095,2.3095,2.3095,2.3095,2.3095,2.312,2.3246,2.3547,2.3954,2.3816,2.3496,2.3108,2.2443,2.2058,2.1945,2.2368,2.2719,2.2832,2.2857,2.292,2.3095,2.3471,2.371,2.374,2.3728,2.3885,2.4311,2.455,2.4938,2.5385,2.6059,2.6436,2.6487,2.6487,2.6487,2.6487,2.6487,2.6487,2.6487,2.6487,2.6487,2.6427,2.6214,2.576,2.5191,2.4637,2.3893,2.3311,2.3337,2.3556,2.3394,2.3536,2.3707,2.3169,2.2914,2.239,2.2129,2.1771,2.0986,2.0373,1.9859,1.9323,1.8733,1.8613,1.8652,1.835,1.8008,1.7988,1.7959,1.79,1.7891,1.792,1.7998,1.8008,1.8008,1.8008,1.8008,1.8008,1.7974,1.7974,2.47,2.5073,2.5316,2.5883,2.6682,2.7418,2.7983,2.8383,2.8855,2.9104,2.926,2.9339,2.9282,2.9086,2.895,2.8461,2.7682,2.7394,2.7002,2.6562,2.6487,2.6487,2.6487,2.6487,2.6487,2.6487,2.6487,2.6637,2.67,2.6273,2.5686,2.5146,2.4607,2.391,2.3133,2.3095,2.3108,2.3095,2.3095,2.3095,2.3095,2.3095,2.3246,2.3559,2.364,2.3421,2.3083,2.2794,2.2631,2.2681,2.292,2.3095,2.3095,2.3095,2.3095,2.312,2.3434,2.3627,2.3597,2.364,2.3904,2.4381,2.4612,2.5084,2.5561,2.6147,2.6487,2.6487,2.6487,2.6487,2.6487,2.6487,2.6487,2.6487,2.6487,2.6487,2.6487,2.6383,2.6143,2.5788,2.54,2.5015,2.4247,2.4621,2.4606,2.4449,2.4527,2.4484,2.4241,2.4129,2.3863,2.3391,2.2724,2.1847,2.0997,2.0416,1.9815,1.9236,1.8984,1.9023,1.8672,1.8232,1.8037,1.8027,1.8018,1.8008,1.8008,1.8008,1.8008,1.8008,1.8008,1.8008,1.8008,1.8008,1.8008,2.4796,2.5285,2.5673,2.6412,2.7296,2.8183,2.8712,2.9118,2.9507,2.9702,2.974,2.9779,2.9715,2.9754,2.9239,2.8662,2.8059,2.7632,2.7077,2.6675,2.6487,2.6487,2.6487,2.6487,2.6487,2.6487,2.6487,2.6788,2.6989,2.6763,2.6285,2.5737,2.5234,2.4336,2.3534,2.3246,2.317,2.3108,2.3095,2.3095,2.3095,2.3095,2.3145,2.3183,2.3208,2.3195,2.312,2.3058,2.3095,2.3208,2.3195,2.3246,2.3233,2.3233,2.3333,2.3396,2.3509,2.3509,2.3371,2.3547,2.3647,2.4293,2.4757,2.5121,2.5699,2.6248,2.6487,2.6487,2.6487,2.6487,2.6487,2.6487,2.6487,2.6487,2.6487,2.6487,2.6487,2.6487,2.643,2.6245,2.5784,2.5459,2.5213,2.5034,2.491,2.4786,2.4938,2.4909,2.4802,2.4707,2.4419,2.4059,2.332,2.2474,2.1653,2.0933,2.0282,1.9706,1.9451,1.9326,1.9023,1.8623,1.8232,1.8047,1.8018,1.8008,1.8008,1.8008,1.8008,1.8008,1.8008,1.8008,1.8008,1.8008,1.8008,2.4871,2.5496,2.6113,2.6887,2.773,2.8593,2.9118,2.9353,2.9663,2.9779,2.9779,2.9779,2.9779,2.9779,2.9553,2.9089,2.816,2.7833,2.7419,2.6562,2.6487,2.6487,2.6487,2.6487,2.6487,2.6487,2.6487,2.6788,2.7128,2.7178,2.6864,2.6348,2.6063,2.5335,2.4029,2.371,2.3521,2.3195,2.3095,2.3095,2.3095,2.3095,2.3095,2.3095,2.3095,2.3095,2.3095,2.3095,2.3321,2.3659,2.3841,2.3866,2.3891,2.4136,2.4299,2.4311,2.4349,2.4387,2.4399,2.4362,2.4669,2.5071,2.5272,2.5674,2.6223,2.6373,2.6487,2.6487,2.6487,2.6487,2.6487,2.6487,2.6549,2.6562,2.6587,2.6562,2.6499,2.6499,2.6465,2.6393,2.6305,2.6079,2.5578,2.562,2.5458,2.5181,2.5099,2.5204,2.5206,2.517,2.4921,2.4563,2.4003,2.3158,2.2266,2.1434,2.0696,2.0187,1.9966,1.9658,1.9355,1.9033,1.8617,1.8291,1.8008,1.8018,1.8047,1.8008,1.8008,1.8008,1.8008,1.8008,1.8008,1.8008,1.8008,2.4967,2.5759,2.6487,2.7296,2.8195,2.9052,2.9495,2.9611,2.9753,2.9779,2.9779,2.9779,2.9779,2.9754,2.949,2.8888,2.8122,2.7532,2.7065,2.6549,2.6487,2.6487,2.6487,2.6487,2.6487,2.6487,2.6487,2.6801,2.7193,2.7482,2.7394,2.6927,2.6889,2.5912,2.4544,2.4155,2.3647,2.3221,2.3095,2.3095,2.3095,2.3095,2.3095,2.3095,2.3095,2.3095,2.3095,2.3409,2.3678,2.4029,2.4456,2.4619,2.4443,2.4625,2.4788,2.48,2.48,2.48,2.4788,2.4825,2.4988,2.5561,2.5598,2.5971,2.6323,2.6487,2.6487,2.6487,2.6487,2.6487,2.6499,2.6801,2.6851,2.6939,2.7115,2.7153,2.6914,2.6663,2.6487,2.6487,2.6474,2.6336,2.6149,2.6008,2.5834,2.5509,2.522,2.5241,2.5276,2.5241,2.5241,2.4957,2.4586,2.3881,2.2886,2.1988,2.1082,2.0678,2.0398,2.0077,1.9746,1.9424,1.9046,1.8627,1.8232,1.8115,1.8125,1.8066,1.8008,1.8008,1.8008,1.8008,1.8008,1.8008,1.8008,2.5221,2.6093,2.6876,2.7742,2.8578,2.9429,2.9779,2.9779,2.9779,2.9779,2.9779,2.9779,2.9779,2.9691,2.9352,2.875,2.7959,2.709,2.6537,2.6512,2.6487,2.6487,2.6487,2.6487,2.6487,2.6487,2.6487,2.6801,2.7304,2.7695,2.7645,2.7419,2.7419,2.6502,2.5151,2.4494,2.3898,2.3246,2.3095,2.3095,2.3095,2.3095,2.3095,2.3095,2.3095,2.3208,2.3346,2.3684,2.4067,2.4268,2.5096,2.5322,2.5209,2.5039,2.5039,2.5121,2.5209,2.5259,2.5272,2.5222,2.5372,2.5711,2.5749,2.5984,2.6373,2.6625,2.67,2.6738,2.6788,2.6901,2.6788,2.7165,2.7381,2.7482,2.7846,2.7833,2.7505,2.7002,2.6851,2.6487,2.6487,2.6411,2.6274,2.6129,2.6002,2.584,2.5535,2.5312,2.5312,2.5312,2.5312,2.5218,2.4802,2.408,2.3103,2.2243,2.1405,2.0992,2.076,2.0428,2.0145,1.9951,1.958,1.8841,1.8461,1.8325,1.8174,1.8047,1.8008,1.8008,1.8008,1.8008,1.8008,1.8008,1.8047,2.6093,2.6809,2.7418,2.8091,2.8803,2.9507,2.9779,2.9779,2.9779,2.9779,2.9779,2.9779,2.9779,2.9729,2.9729,2.9063,2.7971,2.7065,2.6537,2.6499,2.6487,2.6487,2.6487,2.6487,2.6487,2.6487,2.6499,2.6776,2.7153,2.7381,2.7607,2.7858,2.7871,2.7005,2.5875,2.5272,2.4531,2.3584,2.3346,2.3296,2.3358,2.3296,2.3271,2.3283,2.3308,2.3459,2.376,2.3991,2.4406,2.5222,2.5485,2.582,2.6009,2.6109,2.6097,2.6072,2.6025,2.5975,2.6021,2.6122,2.6223,2.6336,2.6298,2.6323,2.6587,2.6901,2.7077,2.7256,2.7507,2.777,2.7821,2.7883,2.7946,2.8009,2.8097,2.8147,2.8009,2.7808,2.7394,2.6876,2.6675,2.6549,2.6474,2.631,2.6015,2.584,2.5583,2.5347,2.5312,2.5312,2.5312,2.5182,2.4992,2.4116,2.3202,2.2387,2.1634,2.1272,2.0982,2.075,2.0526,2.0498,2.0088,1.9343,1.876,1.8481,1.832,1.8105,1.8008,1.8008,1.8008,1.8018,1.8008,1.8027,1.8232,2.6857,2.7418,2.7931,2.8462,2.9,2.9546,2.9779,2.9779,2.9779,2.9779,2.9779,2.9779,2.9779,2.9704,2.944,2.8725,2.7758,2.7253,2.6776,2.6575,2.6487,2.6487,2.6487,2.6487,2.6487,2.6487,2.6512,2.66,2.6901,2.7203,2.7419,2.7582,2.7682,2.7092,2.6201,2.5686,2.5184,2.4393,2.4098,2.4073,2.4249,2.4111,2.3973,2.396,2.3948,2.4123,2.4349,2.4745,2.5046,2.5536,2.5875,2.621,2.6411,2.6524,2.6512,2.6524,2.6499,2.6487,2.6487,2.6487,2.6461,2.6474,2.6512,2.665,2.6876,2.7178,2.7444,2.772,2.7858,2.8109,2.8072,2.836,2.8474,2.8549,2.875,2.8775,2.8587,2.8549,2.8047,2.7394,2.7168,2.703,2.6832,2.6557,2.6124,2.584,2.5618,2.5465,2.5347,2.5312,2.5312,2.517,2.5016,2.4442,2.3593,2.2868,2.2193,2.1787,2.1415,2.1146,2.0915,2.0905,2.0501,1.9824,1.9298,1.8828,1.8442,1.8237,1.8144,1.8047,1.8086,1.8105,1.8037,1.8076,1.835,2.7649,2.8051,2.8435,2.8843,2.9197,2.9624,2.9779,2.9779,2.9779,2.9779,2.9779,2.9779,2.9779,2.9641,2.9151,2.8411,2.7505,2.7404,2.6977,2.6575,2.6487,2.6487,2.6487,2.6487,2.6487,2.6487,2.6487,2.6487,2.6612,2.6889,2.7153,2.7318,2.7306,2.704,2.6474,2.6072,2.5808,2.5335,2.5051,2.5051,2.5234,2.5059,2.48,2.48,2.48,2.4775,2.4983,2.5259,2.5561,2.5912,2.6311,2.6675,2.6688,2.6776,2.6826,2.6788,2.6637,2.6512,2.6512,2.6688,2.6751,2.6751,2.6813,2.7077,2.7356,2.767,2.7921,2.831,2.8499,2.8561,2.8674,2.8863,2.9051,2.9126,2.944,2.9616,2.9264,2.9076,2.895,2.8398,2.7908,2.7507,2.7245,2.6864,2.6441,2.5957,2.5758,2.5571,2.5418,2.5312,2.5276,2.5194,2.4993,2.4647,2.4068,2.3508,2.2942,2.258,2.2203,2.1852,2.1558,2.1339,2.0823,2.0402,1.9723,1.9277,1.8822,1.8529,1.8574,1.8516,1.834,1.833,1.8486,1.8574,1.874,2.8486,2.8724,2.8922,2.9157,2.9392,2.9702,2.9779,2.9779,2.9779,2.9779,2.9779,2.9779,2.9779,2.9654,2.9227,2.8574,2.8047,2.7568,2.7115,2.6663,2.6524,2.6487,2.6487,2.6487,2.6521,2.6555,2.6521,2.6487,2.6559,2.6647,2.6864,2.713,2.719,2.7052,2.6537,2.6348,2.5883,2.5134,2.4913,2.4971,2.4988,2.4938,2.4946,2.4921,2.4958,2.5089,2.546,2.5686,2.5875,2.6411,2.6901,2.7178,2.7291,2.7682,2.7858,2.762,2.7118,2.6499,2.6675,2.6989,2.7193,2.7268,2.7532,2.7871,2.8084,2.8448,2.8875,2.9528,2.9528,2.9428,2.9377,2.9566,2.9679,2.9641,2.9679,2.9767,2.9616,2.9453,2.934,2.9277,2.8737,2.8072,2.7607,2.7176,2.6748,2.6297,2.5935,2.5761,2.5658,2.5684,2.5613,2.5661,2.5613,2.5298,2.4982,2.4349,2.397,2.3556,2.3171,2.2751,2.2427,2.2116,2.1561,2.1075,2.0397,1.984,1.9517,1.9265,1.9187,1.8994,1.8809,1.8926,1.9141,1.918,1.9102,2.93,2.9365,2.9456,2.9534,2.965,2.9753,2.9779,2.9779,2.9779,2.9779,2.9779,2.9779,2.9779,2.9716,2.949,2.9114,2.8549,2.7996,2.7457,2.6927,2.6675,2.658,2.6589,2.6624,2.6624,2.6739,2.6773,2.6807,2.6739,2.6615,2.6663,2.6801,2.6851,2.6763,2.6546,2.6487,2.6449,2.6264,2.6214,2.605,2.5837,2.5749,2.5737,2.5724,2.5745,2.585,2.5988,2.6135,2.6399,2.6864,2.7253,2.7444,2.7695,2.7971,2.8097,2.8047,2.7708,2.7431,2.7444,2.7632,2.7708,2.777,2.8009,2.8197,2.8574,2.9063,2.9453,2.9741,2.9779,2.9779,2.9779,2.9779,2.9779,2.9779,2.9779,2.9779,2.9779,2.9779,2.9679,2.9654,2.9541,2.885,2.8235,2.7898,2.7552,2.7097,2.6817,2.6735,2.6554,2.6456,2.6394,2.6321,2.6296,2.6185,2.5924,2.5489,2.5214,2.4865,2.4572,2.4105,2.3465,2.3015,2.255,2.1869,2.1146,2.0649,2.0224,1.9752,1.9421,1.9316,1.9268,1.9385,1.9482,1.9336,1.9336,2.9779,2.9779,2.9779,2.9779,2.9779,2.9779,2.9779,2.9779,2.9779,2.9779,2.9779,2.9779,2.9779,2.9779,2.9729,2.9415,2.885,2.8499,2.7896,2.7344,2.6974,2.6801,2.6743,2.6726,2.6841,2.7024,2.6956,2.6956,2.6922,2.6786,2.6683,2.6624,2.6746,2.6696,2.6649,2.6649,2.67,2.6883,2.6851,2.67,2.6474,2.6411,2.6424,2.6449,2.6487,2.6487,2.6512,2.6675,2.6964,2.7178,2.7657,2.8009,2.8285,2.8561,2.8674,2.8687,2.8549,2.8536,2.8461,2.8448,2.8348,2.836,2.8511,2.8825,2.9114,2.9591,2.9779,2.9779,2.9779,2.9779,2.9779,2.9779,2.9779,2.9779,2.9779,2.9779,2.9779,2.9779,2.9779,2.9741,2.9666,2.9578,2.9063,2.8762,2.8387,2.7964,2.7754,2.7644,2.7396,2.7134,2.6925,2.6779,2.6717,2.6668,2.6554,2.6349,2.6191,2.612,2.585,2.5382,2.4721,2.4138,2.3658,2.2891,2.2012,2.1438,2.1014,2.0287,1.9666,1.9766,1.9853,1.9783,1.9734,1.958,1.9629,2.9779,2.9779,2.9779,2.9779,2.9779,2.9779,2.9779,2.9779,2.9779,2.9779,2.9779,2.9792,2.9792,2.9818,2.978,2.9529,2.895,2.885,2.8272,2.7715,2.7394,2.7234,2.7109,2.7024,2.7054,2.7109,2.7117,2.7092,2.7024,2.7045,2.6977,2.6943,2.6909,2.6956,2.6922,2.6854,2.6786,2.6848,2.6732,2.6637,2.6512,2.6487,2.6487,2.6487,2.6487,2.6499,2.6524,2.6939,2.7318,2.7482,2.816,2.8674,2.8888,2.9202,2.9365,2.9377,2.939,2.9377,2.9327,2.9076,2.89,2.9013,2.9227,2.9504,2.9655,2.9742,2.9804,2.9905,3.003,2.9955,2.9892,2.9804,2.9917,2.9779,2.9779,2.9779,2.9779,2.9779,2.9779,2.9779,2.9741,2.9666,2.9641,2.9277,2.9026,2.86,2.8313,2.815,2.7852,2.7575,2.7315,2.7155,2.7055,2.6994,2.697,2.69,2.7011,2.7085,2.6984,2.652,2.5912,2.5354,2.4852,2.3865,2.2977,2.2401,2.1769,2.1136,2.0627,2.0536,2.0458,2.0233,2.0184,2.0165,2.0233,2.9779,2.9779,2.9779,2.9779,2.9779,2.9779,2.9779,2.9779,2.9779,2.9779,2.9779,2.9792,2.9869,2.9934,2.9998,2.9935,2.977,2.9389,2.8792,2.8397,2.8199,2.7988,2.7738,2.7614,2.773,2.773,2.7522,2.7302,2.7302,2.7281,2.7315,2.7268,2.7113,2.7011,2.699,2.6943,2.6794,2.6739,2.6602,2.6499,2.6487,2.6487,2.6487,2.6487,2.6487,2.67,2.6964,2.719,2.7645,2.8161,2.8662,2.9013,2.9352,2.9666,2.9767,2.9779,2.9779,2.9818,2.983,2.9566,2.9504,2.9656,2.9833,2.9985,3.0073,3.0275,3.0374,3.0421,3.0545,3.0557,3.0331,3.0294,3.0244,2.993,2.9829,2.9892,2.9867,2.9905,2.9804,2.9817,2.9792,2.9754,2.9754,2.9729,2.9503,2.9239,2.8974,2.8672,2.837,2.8142,2.7966,2.7801,2.7762,2.7746,2.7758,2.7842,2.7888,2.7956,2.8023,2.7572,2.7012,2.6596,2.5932,2.4915,2.4,2.3426,2.277,2.2051,2.1504,2.1033,2.0741,2.0546,2.0576,2.0615,2.0654,2.9779,2.9779,2.9779,2.9779,2.9779,2.9779,2.9779,2.9779,2.9779,2.9779,2.9779,2.9856,2.9972,3.0088,3.019,3.0254,3.0202,2.9908,2.9434,2.9138,2.8954,2.8766,2.8463,2.8257,2.8157,2.8242,2.785,2.7469,2.7469,2.7503,2.7469,2.7403,2.7281,2.7214,2.7146,2.6964,2.6863,2.6841,2.6882,2.6807,2.6832,2.6952,2.704,2.7002,2.6914,2.7065,2.7381,2.7645,2.8021,2.8599,2.9063,2.939,2.9628,2.9779,2.9779,2.9818,2.9856,2.9856,2.9908,2.9908,2.9972,2.9986,3.0355,3.0406,3.0494,3.0823,3.1048,3.0899,3.1148,3.1235,3.0859,3.0821,3.0771,3.057,3.052,3.052,3.0256,3.0181,2.998,2.9842,2.9829,2.9804,2.9817,2.9817,2.9754,2.9578,2.9426,2.9197,2.9031,2.8837,2.8782,2.8665,2.8572,2.863,2.8661,2.853,2.8463,2.8578,2.8609,2.8488,2.8069,2.765,2.7048,2.6143,2.5275,2.451,2.3963,2.3511,2.2428,2.1286,2.1121,2.1014,2.078,2.0819,2.0809,2.9779,2.9779,2.9779,2.9779,2.9779,2.9779,2.9779,2.9792,2.983,2.9818,2.9856,3.0011,3.0126,3.019,3.0343,3.0444,3.047,3.0392,3.0033,2.9608,2.968,2.9443,2.9061,2.8764,2.8652,2.8294,2.8046,2.7803,2.7581,2.779,2.7712,2.7712,2.7762,2.7579,2.7509,2.7361,2.7294,2.7338,2.7484,2.7513,2.7582,2.7752,2.777,2.7708,2.7457,2.7532,2.7959,2.8084,2.8461,2.9001,2.944,2.9666,2.9754,2.9779,2.9779,2.9779,2.9972,3.0088,3.0088,3.0126,3.0241,3.0356,3.0804,3.1021,3.1094,3.1396,3.1711,3.1574,3.1631,3.1565,3.1411,3.1373,3.1323,3.116,3.1085,3.0984,3.0721,3.0595,3.0432,3.0344,3.0055,2.9842,2.9854,2.9867,2.9892,2.9829,2.9792,2.9689,2.9509,2.9341,2.9197,2.9079,2.9,2.8934,2.8907,2.9025,2.9055,2.9131,2.9135,2.8977,2.8857,2.851,2.7901,2.7222,2.6552,2.5814,2.5467,2.5137,2.3852,2.2664,2.1855,2.1523,2.1228,2.1122,2.131,2.9779,2.9779,2.9779,2.9779,2.9779,2.9779,2.9779,2.9818,2.9946,3.0075,3.0177,3.0292,3.0381,3.0495,3.0533,3.0647,3.0748,3.0759,3.0487,3.0021,3.0329,3.0184,2.9816,2.949,2.9287,2.9013,2.8699,2.836,2.8124,2.8399,2.8647,2.8699,2.8634,2.8216,2.7795,2.7655,2.7838,2.7872,2.7991,2.8122,2.8134,2.818,2.8172,2.8196,2.7982,2.8109,2.8586,2.8624,2.8863,2.934,2.9741,2.9767,2.9779,2.9779,2.9779,2.9818,3.0011,3.0152,3.042,3.0676,3.1023,3.1164,3.1319,3.168,3.1872,3.2371,3.2452,3.2358,3.2411,3.2331,3.2081,3.1964,3.1825,3.1411,3.1273,3.1273,3.1135,3.1135,3.106,3.1047,3.0859,3.0746,3.0708,3.0419,3.0331,3.0244,3.0193,2.9905,2.9688,2.9482,2.9353,2.9275,2.9157,2.9131,2.9143,2.9221,2.93,2.9326,2.9404,2.9381,2.9248,2.9113,2.8749,2.8099,2.7621,2.7165,2.6697,2.6105,2.5199,2.4166,2.3591,2.2655,2.208,2.2075,2.2219,2.9779,2.9779,2.9869,2.9908,2.9908,2.983,2.983,2.9946,3.0126,3.0292,3.0406,3.0457,3.0571,3.0698,3.0773,3.0849,3.1024,3.0973,3.0908,3.049,3.0777,3.0686,3.044,3.0179,2.98,2.9588,2.9362,2.9061,2.8739,2.9287,2.964,2.981,2.9862,2.9536,2.9004,2.8829,2.8668,2.8779,2.8965,2.8922,2.8963,2.8956,2.8998,2.8897,2.8797,2.8761,2.9063,2.9189,2.9189,2.9603,2.9779,2.9779,2.9779,2.9779,2.9779,2.9856,3.0075,3.0394,3.0932,3.1228,3.1682,3.2266,3.2214,3.2382,3.2744,3.3155,3.3139,3.3148,3.3276,3.3005,3.2638,3.252,3.2303,3.1942,3.1942,3.1955,3.1687,3.1675,3.1562,3.1562,3.1474,3.1461,3.1449,3.1148,3.0871,3.0746,3.0608,3.0269,2.9942,2.98,2.9633,2.9518,2.9493,2.9442,2.9442,2.9429,2.9495,2.9548,2.956,2.9611,2.9588,2.9439,2.9213,2.8986,2.8553,2.8108,2.7695,2.7079,2.6535,2.6134,2.5791,2.4706,2.3287,2.3163,2.3372,2.9792,2.983,3.0011,3.0113,3.0088,2.9934,2.9972,3.0152,3.0343,3.0406,3.0444,3.066,3.0736,3.0736,3.0911,3.0986,3.1024,3.1024,3.0947,3.0921,3.0998,3.0908,3.0764,3.0477,3.0202,2.9967,2.9836,2.9836,2.947,3.0215,3.0725,3.0934,3.1039,3.0947,3.0673,3.0257,2.9996,3.0043,3.0103,3.0107,3.0173,3.0137,3.0139,2.9961,2.9656,2.9517,2.9618,2.9479,2.9453,2.9616,2.9779,2.9779,2.9779,2.9779,2.9779,2.9934,3.0228,3.0894,3.1487,3.1785,3.2411,3.309,3.3416,3.3439,3.3446,3.369,3.3679,3.3559,3.353,3.3343,3.3122,3.3054,3.2986,3.2885,3.2885,3.2654,3.2328,3.2164,3.2001,3.1888,3.1763,3.1725,3.1804,3.1574,3.1411,3.1311,3.1122,3.0758,3.0457,3.0269,3.0115,2.9939,2.9889,2.9828,2.9764,2.9649,2.9624,2.965,2.9689,2.974,2.9754,2.9741,2.9526,2.9387,2.9383,2.9063,2.8429,2.8276,2.8246,2.7893,2.7261,2.6223,2.4693,2.46,2.4658,2.9895,3.0011,3.0075,3.0177,3.0305,3.0381,3.047,3.0546,3.0571,3.0685,3.0823,3.0874,3.0874,3.0911,3.0986,3.0986,3.1024,3.1024,3.1024,3.1024,3.1024,3.1024,3.0921,3.0764,3.049,3.0479,3.0557,3.0751,3.0803,3.1378,3.1914,3.2176,3.2202,3.2398,3.2372,3.2071,3.1679,3.1355,3.1409,3.1397,3.1319,3.1177,3.1125,3.0804,3.0254,3.0139,2.9986,2.9744,2.9654,2.9729,2.9779,2.9779,2.9779,2.983,2.9869,3.0279,3.0689,3.1242,3.1837,3.2581,3.3247,3.3613,3.3914,3.4136,3.4131,3.4087,3.4147,3.3937,3.3781,3.3624,3.3368,3.3283,3.3197,3.3124,3.3124,3.2986,3.2667,3.2616,3.2478,3.2441,3.229,3.2277,3.2332,3.2114,3.1964,3.1876,3.1675,3.1348,3.0997,3.0821,3.0608,3.0432,3.0218,3.0143,2.9905,2.979,2.9765,2.9779,2.9779,2.9779,2.9779,2.9767,2.9728,2.9689,2.956,2.9365,2.903,2.8966,2.8866,2.8718,2.8124,2.7193,2.6365,2.6177,2.5943,2.9972,3.0113,3.0267,3.0457,3.0634,3.0761,3.0811,3.0811,3.0811,3.0874,3.0986,3.0986,3.1024,3.0986,3.0986,3.1024,3.1024,3.1024,3.1024,3.1024,3.1024,3.1024,3.1024,3.0986,3.096,3.104,3.1327,3.1588,3.1875,3.2476,3.3064,3.3352,3.3365,3.3574,3.3639,3.3391,3.3025,3.2672,3.2475,3.25,3.2304,3.2018,3.1875,3.1564,3.0971,3.0611,3.0444,3.0174,2.9855,2.9792,2.9779,2.9779,2.9779,2.983,2.9972,3.0394,3.0855,3.15,3.2176,3.3025,3.3548,3.3927,3.4214,3.4306,3.4371,3.433,3.423,3.4063,3.4034,3.3962,3.3654,3.3343,3.3227,3.3111,3.3111,3.3124,3.3099,3.3099,3.3086,3.3074,3.3048,3.3023,3.2923,3.2667,3.2554,3.2503,3.2453,3.229,3.1838,3.1436,3.1185,3.0947,3.067,3.0457,3.0193,2.993,2.9842,2.9817,2.9779,2.9779,2.9779,2.9779,2.974,2.974,2.9702,2.9495,2.9378,2.9248,2.9172,2.9,2.8843,2.823,2.7584,2.7283,2.7076,3.0113,3.0152,3.0546,3.0811,3.0986,3.0986,3.0986,3.1024,3.0973,3.0986,3.1024,3.1024,3.1024,3.1024,3.1024,3.1024,3.1024,3.1024,3.1024,3.1024,3.1024,3.1024,3.1024,3.0999,3.1169,3.1549,3.1967,3.2319,3.2868,3.3365,3.3849,3.4371,3.428,3.4254,3.4201,3.4188,3.3796,3.3326,3.2999,3.2829,3.2672,3.2646,3.2672,3.2476,3.1862,3.1226,3.1045,3.0595,2.9905,2.988,2.988,2.9905,2.9792,2.9917,3.0137,3.0662,3.1227,3.1991,3.2684,3.3417,3.3875,3.4201,3.4437,3.4567,3.4646,3.445,3.4285,3.423,3.416,3.3949,3.3683,3.3513,3.3398,3.3197,3.3124,3.3124,3.3124,3.3124,3.3124,3.3124,3.3124,3.3124,3.3099,3.283,3.2805,3.2943,3.2943,3.2867,3.2629,3.2102,3.1788,3.1512,3.1298,3.0984,3.047,3.0206,2.9942,2.9854,2.9817,2.9779,2.9779,2.9779,2.9779,2.974,2.974,2.974,2.9663,2.9534,2.9404,2.9275,2.9157,2.9131,2.8764,2.8287,2.8039,3.019,3.0368,3.0761,3.0949,3.1024,3.1024,3.105,3.1024,3.1024,3.1026,3.1024,3.1037,3.1024,3.1024,3.1024,3.1024,3.1024,3.1024,3.1024,3.1024,3.1024,3.1024,3.1024,3.105,3.1326,3.1823,3.2319,3.2855,3.347,3.394,3.4175,3.4332,3.428,3.4214,3.4228,3.4228,3.3953,3.3378,3.3208,3.2816,3.2529,3.262,3.2659,3.2527,3.2082,3.1779,3.1556,3.1263,3.0788,3.0532,3.0444,3.0218,2.9842,3.0193,3.0566,3.1097,3.1803,3.2612,3.3217,3.3757,3.4201,3.4502,3.475,3.4972,3.4959,3.4607,3.4437,3.4366,3.4269,3.4017,3.3755,3.3641,3.3522,3.3321,3.3124,3.3124,3.3124,3.3124,3.3124,3.3124,3.3124,3.3124,3.3124,3.3124,3.3124,3.3111,3.3099,3.3061,3.3048,3.2709,3.239,3.2139,3.2001,3.1637,3.1047,3.0482,3.0206,2.9955,2.9854,2.9817,2.9792,2.9779,2.9779,2.9779,2.9779,2.9779,2.9779,2.974,2.9611,2.9521,2.9443,2.9326,2.917,2.8724,2.8645,3.0433,3.083,3.1486,3.1744,3.1744,3.1744,3.1744,3.1744,3.1744,3.1744,3.1627,3.1261,3.1024,3.1037,3.1024,3.1024,3.1024,3.1024,3.1024,3.1024,3.1024,3.1024,3.1024,3.1037,3.1378,3.1823,3.2411,3.3038,3.3639,3.36,3.3561,3.3679,3.3679,3.3692,3.3679,3.3613,3.3417,3.2816,3.2868,3.2542,3.2163,3.2333,3.2633,3.2553,3.2146,3.1896,3.1581,3.1251,3.0761,3.0394,3.0193,3.0105,2.9967,3.0281,3.073,3.1325,3.2126,3.3111,3.3621,3.4084,3.4528,3.4816,3.5038,3.526,3.5626,3.5338,3.5116,3.5048,3.4891,3.4653,3.3942,3.3628,3.3695,3.3606,3.3262,3.3124,3.3124,3.3124,3.3124,3.3124,3.3124,3.3124,3.3124,3.3124,3.3124,3.3124,3.3124,3.3124,3.3124,3.3124,3.2855,3.2667,3.2453,3.2202,3.17,3.1047,3.047,3.0206,2.9993,2.9842,2.9792,2.9792,2.9779,2.9779,2.9779,2.9779,2.9779,2.9779,2.9779,2.9663,2.9611,2.9573,2.9339,2.9131,2.8961,3.0727,3.1357,3.2189,3.2607,3.2672,3.2659,3.2633,3.2633,3.2659,3.2633,3.2502,3.164,3.1273,3.1104,3.1024,3.1024,3.1024,3.1024,3.1024,3.1024,3.1024,3.1024,3.1024,3.1026,3.1392,3.1849,3.2411,3.2607,3.2881,3.2908,3.2908,3.2712,3.2672,3.2698,3.2685,3.2646,3.2581,3.2189,3.1967,3.1627,3.1692,3.198,3.2346,3.2202,3.1887,3.1471,3.1326,3.1126,3.0673,3.0407,3.0331,3.0156,3.0331,3.0658,3.1177,3.1798,3.2547,3.3269,3.3751,3.4306,3.4776,3.5142,3.5338,3.5691,3.6096,3.6175,3.5966,3.5587,3.543,3.4907,3.4165,3.3845,3.3936,3.3827,3.3507,3.3262,3.3262,3.3187,3.3124,3.3124,3.3124,3.3124,3.3124,3.3124,3.3124,3.3124,3.3124,3.3124,3.3124,3.3124,3.3023,3.2855,3.2717,3.2441,3.2139,3.1675,3.0984,3.0633,3.0419,3.0068,2.9804,2.9792,2.9779,2.9779,2.9779,2.9779,2.9779,2.9779,2.9779,2.9753,2.974,2.9663,2.9573,2.9378,2.9209,3.0894,3.1694,3.1902,3.228,3.2659,3.2698,3.2672,3.2685,3.2725,3.2672,3.2712,3.2555,3.215,3.1615,3.1156,3.1026,3.1117,3.1039,3.1024,3.1024,3.1024,3.1024,3.1024,3.1037,3.1352,3.1771,3.2228,3.2581,3.2515,3.2581,3.2672,3.2672,3.2672,3.2685,3.2725,3.2633,3.2489,3.2124,3.1876,3.1641,3.1431,3.1666,3.185,3.2058,3.2376,3.2446,3.2577,3.2642,3.2286,3.1838,3.1223,3.0836,3.0796,3.116,3.1807,3.2296,3.3059,3.3578,3.4113,3.4643,3.5142,3.543,3.5783,3.6528,3.6894,3.7207,3.675,3.594,3.5596,3.4899,3.4345,3.4422,3.4448,3.4111,3.3784,3.3709,3.3684,3.3388,3.3124,3.3124,3.3124,3.3124,3.3124,3.3124,3.3124,3.3124,3.3124,3.3124,3.3124,3.3124,3.3124,3.3036,3.2948,3.2616,3.2303,3.2177,3.1662,3.126,3.0771,3.0281,2.9942,2.9804,2.9779,2.9779,2.9779,2.9779,2.9779,2.9779,2.9779,2.9779,2.9779,2.974,2.9702,2.9573,2.9326]}]]